[[{"header":{"parameterUnit":"m.s-1","parameterCategory":1,"la1":31.0,"la2":29.5877,"lo1":-88.7671,"lo2":-86.6584,"dy":0.0162,"dx":0.0185,"nx":115,"ny":88,"refTime":"2024-06-10T12:00:00:Z","depth":0,"parameterNumber":2,"parameterNumberName":"U-component_of_WINDS"},"data":[0.0,0.0,0.0,0.0,0.0,0.0,0.0,0.0,0.0,0.0,0.0,0.0,0.0,0.0,0.0,0.0,0.0,0.0,0.0,0.0,0.0,0.0,0.0,0.0,0.0,0.0,0.0,0.0,0.0,0.0,0.0,0.0,0.0,0.0,0.0,0.0,0.0,0.0,0.0,0.0,0.0,0.0,0.0,0.0,0.0,0.0,0.0,0.0,0.0,0.0,0.0,0.0,0.0,0.0,0.0,0.0,0.0,0.0,0.0,0.0,0.0,0.0,0.0,0.0,0.0,0.0,0.0,0.0,0.0,0.0,0.0,0.0,0.0,0.0,0.0,0.0,0.0,0.0,0.0,0.0,0.0,0.0,0.0,0.0,0.0,0.0,0.0,0.0,0.0,0.0,0.0,0.0,0.0,0.0,0.0,0.0,0.0,0.0,0.0,0.0,0.0,0.0,0.0,0.0,0.0,0.0,0.0,0.0,0.0,0.0,0.0,0.0,0.0,0.0,0.0,0.0,0.0,0.0,0.0,0.0,0.0,0.0,0.0,0.0,0.0,0.0,0.0,0.0,0.0,0.0,0.0,0.0,0.0,0.0,0.0,0.0,0.0,0.0,0.0,0.0,0.0,0.0,0.0,0.0,0.0,0.0,0.0,0.0,0.0,0.0,0.0,0.0,0.0,0.0,0.0,0.0,0.0,0.0,0.0,0.0,0.0,0.0,0.0,0.0,0.0,0.0,0.0,0.0,0.0,0.0,0.0,0.0,0.0,0.0,0.0,0.0,0.0,0.0,0.0,0.0,0.0,0.0,0.0,0.0,0.0,0.0,0.0,0.0,0.0,0.0,0.0,0.0,0.0,0.0,0.0,0.0,0.0,0.0,0.0,0.0,0.0,0.0,0.0,0.0,0.0,0.0,0.0,0.0,0.0,0.0,0.0,0.0,0.0,0.0,0.0,0.0,0.0,0.0,0.0,0.0,0.0,0.0,0.0,0.0,0.0,0.0,0.0,0.0,0.0,0.0,0.0,0.0,0.0,0.0,0.0,0.0,0.0,0.0,0.0,0.0,0.0,0.0,0.0,0.0,0.0,0.0,0.0,0.0,0.0,0.0,0.0,0.0,0.0,0.0,0.0,0.0,0.0,0.0,0.0,0.0,0.0,0.0,0.0,0.0,0.0,0.0,0.0,0.0,0.0,0.0,0.0,0.0,0.0,0.0,0.0,0.0,0.0,0.0,0.0,0.0,0.0,0.0,0.0,0.0,0.0,0.0,0.0,0.0,0.0,0.0,0.0,0.0,0.0,0.0,0.0,0.0,0.0,0.0,0.0,0.0,0.0,0.0,0.0,0.0,0.0,0.0,0.0,0.0,0.0,0.0,0.0,0.0,0.0,0.0,0.0,0.0,0.0,0.0,0.0,0.0,0.0,0.0,0.0,0.0,0.0,0.0,0.0,0.0,0.0,0.0,0.0,0.0,0.0,0.0,0.0,0.0,0.0,0.0,0.0,0.0,0.0,0.0,0.0,0.0,0.0,0.0,0.0,0.0,0.0,0.0,0.0,0.0,0.0,0.0,0.0,0.0,0.0,0.0,0.0,0.0,0.0,0.0,0.0,0.0,0.0,0.0,0.0,0.0,0.0,0.0,0.0,0.0,0.0,0.0,0.0,0.0,0.0,0.0,0.0,0.0,0.0,0.0,0.0,0.0,0.0,0.0,0.0,0.0,0.0,0.0,0.0,0.0,0.0,0.0,0.0,0.0,0.0,0.0,0.0,0.0,0.0,0.0,0.0,0.0,0.0,0.0,0.0,0.0,0.0,0.0,0.0,0.0,0.0,0.0,0.0,0.0,0.0,0.0,0.0,0.0,0.0,0.0,0.0,0.0,0.0,0.0,0.0,0.0,0.0,0.0,0.0,0.0,0.0,0.0,0.0,0.0,0.0,0.0,0.0,0.0,0.0,0.0,0.0,0.0,0.0,0.0,0.0,0.0,0.0,0.0,0.0,0.0,0.0,0.0,0.0,0.0,0.0,0.0,0.0,0.0,0.0,0.0,0.0,0.0,0.0,0.0,0.0,0.0,0.0,0.0,0.0,0.0,0.0,0.0,0.0,0.0,0.0,0.0,0.0,0.0,0.0,0.0,0.0,0.0,0.0,0.0,0.0,0.0,0.0,0.0,0.0,0.0,0.0,0.0,0.0,0.0,0.0,0.0,0.0,0.0,0.0,0.0,0.0,0.0,0.0,0.0,0.0,0.0,0.0,0.0,0.0,0.0,0.0,0.0,0.0,0.0,0.0,0.0,0.0,0.0,0.0,0.0,0.0,0.0,0.0,0.0,0.0,0.0,0.0,0.0,0.0,0.0,0.0,0.0,0.0,0.0,0.0,0.0,0.0,0.0,0.0,0.0,0.0,0.0,0.0,0.0,0.0,0.0,0.0,0.0,0.0,0.0,0.0,0.0,0.0,0.0,0.0,0.0,0.0,0.0,0.0,0.0,0.0,0.0,0.0,0.0,0.0,0.0,0.0,0.0,0.0,0.0,0.0,0.0,0.0,0.0,0.0,0.0,0.0,0.0,0.0,0.0,0.0,0.0,0.0,0.0,0.0,0.0,0.0,0.0,0.0,0.0,0.0,0.0,0.0,0.0,0.0,0.0,0.0,0.0,0.0,0.0,0.0,0.0,0.0,0.0,0.0,0.0,0.0,0.0,0.0,0.0,0.0,0.0,0.0,0.0,0.0,0.0,0.0,0.0,0.0,0.0,0.0,0.0,0.0,0.0,0.0,0.0,0.0,0.0,0.0,0.0,0.0,0.0,0.0,0.0,0.0,0.0,0.0,0.0,0.0,0.0,0.0,0.0,0.0,0.0,0.0,0.0,0.0,0.0,0.0,0.0,0.0,0.0,0.0,0.0,0.0,0.0,0.0,0.0,0.0,0.0,0.0,0.0,0.0,0.0,0.0,0.0,0.0,0.0,0.0,0.0,0.0,0.0,0.0,0.0,0.0,0.0,0.0,0.0,0.0,0.0,0.0,0.0,0.0,0.0,0.0,0.0,0.0,0.0,0.0,0.0,0.0,0.0,0.0,0.0,0.0,0.0,0.0,0.0,0.0,0.0,0.0,0.0,0.0,0.0,0.0,0.0,0.0,0.0,0.0,0.0,0.0,0.0,0.0,0.0,0.0,0.0,0.0,0.0,0.0,0.0,0.0,0.0,0.0,0.0,0.0,0.0,0.0,0.0,0.0,0.0,0.0,0.0,0.0,0.0,0.0,0.0,0.0,0.0,0.0,0.0,0.0,0.0,0.0,0.0,0.0,0.0,0.0,0.0,0.0,0.0,0.0,0.0,0.0,0.0,0.0,0.0,0.0,0.0,0.0,0.0,0.0,0.0,0.0,0.0,0.0,0.0,0.0,0.0,0.0,0.0,0.0,0.0,0.0,0.0,0.0,0.0,0.0,0.0,0.0,0.0,0.0,0.0,0.0,0.0,0.0,0.0,0.0,0.0,0.0,0.0,0.0,0.0,0.0,0.0,0.0,0.0,0.0,0.0,0.0,0.0,0.0,0.0,0.0,0.0,0.0,0.0,0.0,0.0,0.0,0.0,0.0,0.0,0.0,0.0,0.0,0.0,0.0,0.0,0.0,0.0,0.0,0.0,0.0,0.0,0.0,0.0,0.0,0.0,0.0,0.0,0.0,0.0,0.0,0.0,0.0,0.0,0.0,0.0,0.0,0.0,0.0,0.0,0.0,0.0,0.0,0.0,0.0,0.0,0.0,0.0,0.0,0.0,0.0,0.0,0.0,0.0,0.0,0.0,0.0,0.0,0.0,0.0,0.0,0.0,0.0,0.0,0.0,0.0,0.0,0.0,0.0,0.0,0.0,0.0,0.0,0.0,0.0,0.0,0.0,0.0,0.0,0.0,0.0,0.0,0.0,0.0,0.0,0.0,0.0,0.0,0.0,0.0,0.0,0.0,0.0,0.0,0.0,0.0,0.0,0.0,0.0,0.0,0.0,0.0,0.0,0.0,0.0,0.0,0.0,0.0,0.0,0.0,0.0,0.0,0.0,0.0,0.0,0.0,0.0,0.0,0.0,0.0,0.0,0.0,0.0,0.0,0.0,0.0,0.0,0.0,0.0,0.0,0.0,0.0,0.0,0.0,0.0,0.0,0.0,0.0,0.0,0.0,0.0,0.0,0.0,0.0,0.0,0.0,0.0,0.0,0.0,0.0,0.0,0.0,0.0,0.0,0.0,0.0,0.0,0.0,0.0,0.0,0.0,0.0,-1.8251,0.0,0.0,0.0,0.0,0.0,0.0,0.0,0.0,0.0,0.0,0.0,0.0,0.0,0.0,0.0,0.0,0.0,0.0,0.0,0.0,0.0,0.0,0.0,0.0,0.0,0.0,0.0,0.0,0.0,0.0,0.0,0.0,0.0,0.0,0.0,0.0,0.0,0.0,0.0,0.0,0.0,0.0,0.0,0.0,0.0,0.0,0.0,0.0,0.0,0.0,0.0,0.0,0.0,0.0,0.0,0.0,0.0,0.0,0.0,0.0,0.0,0.0,0.0,0.0,0.0,0.0,0.0,0.0,0.0,0.0,0.0,0.0,0.0,0.0,0.0,0.0,0.0,0.0,0.0,0.0,0.0,0.0,0.0,0.0,0.0,0.0,0.0,0.0,0.0,0.0,0.0,0.0,0.0,0.0,0.0,0.0,0.0,0.0,0.0,0.0,0.0,0.0,0.0,0.0,0.0,0.0,0.0,0.0,0.0,0.0,-2.2129,-2.2237,-2.1974,-2.1428,-2.0493,0.0,0.0,0.0,0.0,0.0,0.0,0.0,0.0,0.0,0.0,0.0,0.0,0.0,0.0,0.0,0.0,0.0,0.0,0.0,0.0,0.0,0.0,0.0,0.0,0.0,0.0,0.0,0.0,0.0,0.0,0.0,0.0,0.0,0.0,0.0,0.0,0.0,0.0,0.0,0.0,0.0,0.0,0.0,0.0,0.0,0.0,0.0,0.0,0.0,0.0,0.0,0.0,0.0,0.0,0.0,0.0,0.0,0.0,0.0,0.0,0.0,0.0,0.0,0.0,0.0,0.0,0.0,0.0,0.0,0.0,0.0,0.0,0.0,0.0,0.0,0.0,0.0,0.0,0.0,0.0,0.0,0.0,0.0,0.0,0.0,0.0,0.0,0.0,0.0,0.0,0.0,0.0,0.0,0.0,0.0,0.0,0.0,0.0,0.0,0.0,0.0,0.0,0.0,0.0,0.0,0.0,0.0,0.0,0.0,0.0,0.0,0.0,-2.4778,-2.3929,-2.2602,0.0,0.0,0.0,0.0,0.0,0.0,0.0,0.0,0.0,0.0,0.0,0.0,0.0,0.0,0.0,0.0,0.0,0.0,0.0,0.0,0.0,0.0,0.0,0.0,0.0,0.0,0.0,0.0,0.0,0.0,0.0,0.0,0.0,0.0,0.0,0.0,0.0,0.0,0.0,0.0,0.0,0.0,0.0,0.0,0.0,0.0,0.0,0.0,0.0,0.0,0.0,0.0,0.0,0.0,0.0,0.0,0.0,0.0,0.0,0.0,0.0,0.0,0.0,0.0,0.0,0.0,0.0,0.0,0.0,0.0,0.0,0.0,0.0,0.0,0.0,0.0,0.0,0.0,0.0,0.0,0.0,0.0,0.0,0.0,0.0,0.0,0.0,0.0,0.0,0.0,0.0,0.0,0.0,0.0,0.0,0.0,0.0,0.0,0.0,0.0,0.0,0.0,0.0,0.0,0.0,0.0,0.0,0.0,0.0,0.0,-2.7787,-2.8508,-2.8071,0.0,-2.4509,0.0,0.0,0.0,0.0,0.0,0.0,0.0,0.0,0.0,0.0,0.0,0.0,0.0,0.0,0.0,0.0,0.0,0.0,0.0,0.0,0.0,0.0,0.0,0.0,0.0,0.0,0.0,0.0,0.0,0.0,0.0,0.0,0.0,0.0,0.0,0.0,0.0,0.0,0.0,0.0,0.0,0.0,0.0,0.0,0.0,0.0,0.0,0.0,0.0,0.0,0.0,0.0,0.0,0.0,0.0,0.0,0.0,0.0,0.0,0.0,0.0,0.0,0.0,0.0,0.0,0.0,0.0,0.0,0.0,0.0,0.0,0.0,0.0,0.0,0.0,0.0,0.0,0.0,0.0,0.0,0.0,0.0,0.0,0.0,0.0,0.0,0.0,0.0,0.0,0.0,0.0,0.0,0.0,0.0,0.0,0.0,0.0,0.0,0.0,0.0,0.0,0.0,0.0,0.0,0.0,0.0,0.0,0.0,0.0,0.0,-2.9785,-3.0649,-2.9752,-2.832,0.0,0.0,0.0,0.0,0.0,0.0,0.0,0.0,0.0,0.0,0.0,0.0,0.0,0.0,0.0,0.0,0.0,0.0,0.0,0.0,0.0,0.0,0.0,0.0,0.0,0.0,0.0,0.0,0.0,0.0,0.0,0.0,0.0,0.0,0.0,0.0,0.0,0.0,0.0,0.0,0.0,0.0,0.0,0.0,0.0,0.0,0.0,0.0,0.0,0.0,0.0,0.0,0.0,0.0,0.0,0.0,0.0,0.0,0.0,0.0,0.0,0.0,0.0,0.0,0.0,0.0,0.0,0.0,0.0,0.0,0.0,0.0,0.0,0.0,0.0,0.0,0.0,0.0,0.0,0.0,0.0,0.0,0.0,0.0,0.0,0.0,0.0,0.0,0.0,0.0,0.0,0.0,0.0,0.0,0.0,0.0,0.0,0.0,0.0,0.0,0.0,0.0,0.0,0.0,0.0,0.0,0.0,0.0,0.0,0.0,-3.1119,-3.176,-3.2497,-3.1652,-3.0161,-2.8168,0.0,0.0,0.0,0.0,0.0,0.0,0.0,0.0,0.0,0.0,0.0,0.0,0.0,0.0,0.0,0.0,0.0,0.0,0.0,0.0,0.0,0.0,0.0,0.0,0.0,0.0,0.0,0.0,0.0,0.0,0.0,0.0,0.0,0.0,0.0,0.0,0.0,0.0,0.0,0.0,0.0,0.0,0.0,0.0,0.0,0.0,0.0,0.0,0.0,0.0,0.0,0.0,0.0,0.0,0.0,0.0,0.0,0.0,0.0,0.0,0.0,0.0,0.0,0.0,0.0,0.0,0.0,0.0,0.0,0.0,0.0,0.0,0.0,0.0,0.0,0.0,0.0,0.0,0.0,0.0,0.0,0.0,0.0,0.0,0.0,0.0,0.0,0.0,0.0,0.0,0.0,0.0,0.0,0.0,0.0,0.0,0.0,0.0,0.0,0.0,0.0,0.0,0.0,0.0,0.0,0.0,0.0,0.0,0.0,-3.3289,-3.3863,-3.4426,-3.4231,-3.2741,0.0,0.0,0.0,0.0,0.0,0.0,0.0,0.0,0.0,0.0,0.0,0.0,0.0,0.0,0.0,0.0,0.0,0.0,0.0,0.0,0.0,0.0,0.0,0.0,0.0,0.0,0.0,0.0,0.0,0.0,0.0,0.0,0.0,0.0,0.0,0.0,0.0,0.0,0.0,0.0,0.0,0.0,0.0,0.0,0.0,0.0,0.0,0.0,0.0,0.0,0.0,0.0,0.0,0.0,0.0,0.0,0.0,0.0,0.0,0.0,0.0,0.0,0.0,0.0,0.0,0.0,0.0,0.0,0.0,0.0,0.0,0.0,0.0,0.0,0.0,0.0,0.0,0.0,0.0,0.0,0.0,0.0,0.0,0.0,0.0,0.0,0.0,0.0,0.0,0.0,0.0,0.0,0.0,0.0,0.0,0.0,0.0,0.0,0.0,0.0,0.0,0.0,0.0,0.0,0.0,0.0,0.0,0.0,0.0,-3.4246,-3.5786,-3.6292,-3.5742,-3.57,-3.4276,0.0,0.0,0.0,0.0,0.0,0.0,0.0,0.0,0.0,0.0,0.0,0.0,0.0,0.0,0.0,0.0,0.0,0.0,0.0,0.0,0.0,0.0,0.0,0.0,0.0,0.0,0.0,0.0,0.0,0.0,0.0,0.0,0.0,0.0,0.0,0.0,0.0,0.0,0.0,0.0,0.0,0.0,0.0,0.0,0.0,0.0,0.0,0.0,0.0,0.0,0.0,0.0,0.0,0.0,0.0,0.0,0.0,0.0,0.0,0.0,0.0,0.0,0.0,0.0,0.0,0.0,0.0,0.0,0.0,0.0,0.0,0.0,0.0,0.0,0.0,0.0,0.0,0.0,0.0,0.0,0.0,0.0,0.0,0.0,0.0,0.0,0.0,0.0,0.0,0.0,0.0,0.0,0.0,0.0,0.0,0.0,0.0,0.0,0.0,0.0,0.0,0.0,0.0,0.0,0.0,0.0,0.0,0.0,0.0,-3.5759,0.0,-3.8157,0.0,-3.7012,-3.5586,0.0,0.0,0.0,0.0,0.0,0.0,0.0,0.0,0.0,0.0,0.0,0.0,0.0,0.0,0.0,0.0,0.0,0.0,0.0,0.0,0.0,0.0,0.0,0.0,0.0,0.0,0.0,0.0,0.0,0.0,0.0,0.0,0.0,0.0,0.0,0.0,0.0,0.0,0.0,0.0,0.0,0.0,0.0,0.0,0.0,0.0,0.0,0.0,0.0,0.0,0.0,0.0,0.0,0.0,0.0,0.0,0.0,0.0,0.0,0.0,0.0,0.0,0.0,0.0,0.0,0.0,0.0,0.0,0.0,0.0,0.0,0.0,0.0,0.0,0.0,0.0,0.0,0.0,0.0,0.0,0.0,0.0,0.0,0.0,0.0,0.0,0.0,0.0,0.0,0.0,0.0,0.0,0.0,0.0,0.0,0.0,0.0,0.0,0.0,0.0,0.0,0.0,0.0,0.0,0.0,0.0,0.0,0.0,-3.4834,-3.7178,-3.9034,-3.9399,-3.8167,-3.8168,-3.6722,0.0,0.0,0.0,0.0,0.0,0.0,0.0,0.0,0.0,0.0,0.0,0.0,0.0,0.0,0.0,0.0,0.0,0.0,0.0,0.0,0.0,0.0,0.0,0.0,0.0,0.0,0.0,0.0,0.0,0.0,0.0,0.0,0.0,0.0,0.0,0.0,0.0,0.0,0.0,0.0,0.0,0.0,0.0,0.0,0.0,0.0,0.0,0.0,0.0,0.0,0.0,0.0,0.0,0.0,0.0,0.0,0.0,0.0,0.0,0.0,0.0,0.0,0.0,0.0,0.0,0.0,0.0,0.0,0.0,0.0,0.0,0.0,0.0,0.0,0.0,0.0,0.0,0.0,0.0,0.0,0.0,0.0,0.0,0.0,0.0,0.0,0.0,0.0,0.0,0.0,0.0,0.0,0.0,0.0,0.0,0.0,0.0,0.0,0.0,0.0,0.0,0.0,0.0,0.0,0.0,0.0,0.0,0.0,0.0,-3.9043,-4.0401,-4.0438,-3.9076,-3.9091,-3.7636,0.0,0.0,0.0,0.0,0.0,0.0,0.0,0.0,0.0,0.0,0.0,0.0,0.0,0.0,0.0,0.0,0.0,0.0,0.0,0.0,0.0,0.0,0.0,0.0,0.0,0.0,0.0,0.0,0.0,0.0,0.0,0.0,0.0,0.0,0.0,0.0,0.0,0.0,0.0,0.0,0.0,0.0,0.0,0.0,0.0,0.0,0.0,0.0,0.0,0.0,0.0,0.0,0.0,0.0,0.0,0.0,0.0,0.0,0.0,0.0,0.0,0.0,0.0,0.0,0.0,0.0,0.0,0.0,0.0,0.0,0.0,0.0,0.0,0.0,0.0,0.0,0.0,0.0,0.0,0.0,0.0,0.0,0.0,0.0,0.0,0.0,0.0,0.0,0.0,0.0,0.0,0.0,0.0,0.0,0.0,0.0,0.0,0.0,0.0,0.0,0.0,0.0,0.0,0.0,0.0,0.0,0.0,0.0,0.0,-4.0916,-4.157,-4.1378,-4.0242,-3.9998,-3.8483,-3.5527,0.0,0.0,0.0,0.0,0.0,0.0,0.0,0.0,0.0,0.0,0.0,0.0,0.0,0.0,0.0,0.0,0.0,0.0,0.0,0.0,0.0,0.0,0.0,0.0,0.0,0.0,0.0,0.0,0.0,0.0,0.0,0.0,0.0,0.0,0.0,0.0,0.0,0.0,0.0,0.0,0.0,0.0,0.0,0.0,0.0,0.0,0.0,0.0,0.0,0.0,0.0,0.0,0.0,0.0,0.0,0.0,0.0,0.0,0.0,0.0,0.0,0.0,0.0,0.0,0.0,0.0,0.0,0.0,0.0,0.0,0.0,0.0,0.0,0.0,0.0,0.0,0.0,0.0,0.0,0.0,0.0,0.0,0.0,0.0,0.0,0.0,0.0,0.0,0.0,0.0,0.0,0.0,0.0,0.0,0.0,0.0,0.0,0.0,0.0,0.0,0.0,0.0,0.0,0.0,0.0,0.0,0.0,0.0,-4.2713,-4.2555,-4.2178,-4.163,-4.0817,-3.9265,0.0,0.0,0.0,0.0,0.0,0.0,0.0,0.0,0.0,0.0,0.0,0.0,0.0,0.0,0.0,0.0,0.0,0.0,0.0,0.0,0.0,0.0,0.0,0.0,0.0,0.0,0.0,0.0,0.0,0.0,0.0,0.0,0.0,0.0,0.0,0.0,0.0,0.0,0.0,0.0,0.0,0.0,0.0,0.0,0.0,0.0,0.0,0.0,0.0,0.0,0.0,0.0,0.0,0.0,0.0,0.0,0.0,0.0,0.0,0.0,0.0,0.0,0.0,0.0,0.0,0.0,0.0,0.0,0.0,0.0,0.0,0.0,0.0,0.0,0.0,0.0,0.0,0.0,0.0,0.0,0.0,0.0,0.0,0.0,0.0,0.0,0.0,0.0,0.0,0.0,0.0,0.0,0.0,0.0,0.0,0.0,0.0,0.0,0.0,0.0,0.0,0.0,0.0,0.0,0.0,0.0,0.0,0.0,0.0,-4.3032,-4.3105,-4.2723,-4.1905,-4.1123,-3.9798,0.0,0.0,0.0,0.0,0.0,0.0,0.0,0.0,0.0,0.0,0.0,0.0,0.0,0.0,0.0,0.0,0.0,0.0,0.0,0.0,0.0,0.0,0.0,0.0,0.0,0.0,0.0,0.0,0.0,0.0,0.0,0.0,0.0,0.0,0.0,0.0,0.0,0.0,0.0,0.0,0.0,0.0,0.0,0.0,0.0,0.0,0.0,0.0,0.0,0.0,0.0,0.0,0.0,0.0,0.0,0.0,0.0,0.0,0.0,0.0,0.0,0.0,0.0,0.0,0.0,0.0,0.0,0.0,0.0,0.0,0.0,0.0,0.0,0.0,0.0,0.0,0.0,0.0,0.0,0.0,0.0,0.0,0.0,0.0,0.0,0.0,0.0,0.0,0.0,0.0,0.0,0.0,0.0,0.0,0.0,0.0,0.0,0.0,0.0,0.0,0.0,0.0,0.0,0.0,0.0,0.0,0.0,0.0,-4.2559,-4.3304,-4.3428,-4.3243,-4.2766,-4.1563,-4.0291,0.0,0.0,0.0,0.0,0.0,0.0,0.0,0.0,0.0,0.0,0.0,0.0,0.0,0.0,0.0,0.0,0.0,0.0,0.0,0.0,0.0,0.0,0.0,0.0,0.0,0.0,0.0,0.0,0.0,0.0,0.0,0.0,0.0,0.0,0.0,0.0,0.0,0.0,0.0,0.0,0.0,0.0,0.0,0.0,0.0,0.0,0.0,0.0,0.0,0.0,0.0,0.0,0.0,0.0,0.0,0.0,0.0,0.0,0.0,0.0,0.0,0.0,0.0,0.0,0.0,0.0,0.0,0.0,0.0,0.0,0.0,0.0,0.0,0.0,0.0,0.0,0.0,0.0,0.0,0.0,0.0,0.0,0.0,0.0,0.0,0.0,0.0,0.0,0.0,0.0,0.0,0.0,0.0,0.0,0.0,0.0,0.0,0.0,0.0,0.0,0.0,0.0,0.0,0.0,0.0,0.0,0.0,0.0,-4.3233,-4.3515,-4.36,-4.3667,-4.3732,-4.2073,-4.0763,0.0,0.0,0.0,0.0,0.0,0.0,0.0,0.0,0.0,0.0,0.0,0.0,0.0,0.0,0.0,0.0,0.0,0.0,0.0,0.0,0.0,0.0,0.0,0.0,0.0,0.0,0.0,0.0,0.0,0.0,0.0,0.0,0.0,0.0,0.0,0.0,0.0,0.0,0.0,0.0,0.0,0.0,0.0,0.0,0.0,0.0,0.0,0.0,0.0,0.0,0.0,0.0,0.0,0.0,0.0,0.0,0.0,0.0,0.0,0.0,0.0,0.0,0.0,0.0,0.0,0.0,0.0,0.0,0.0,0.0,0.0,0.0,0.0,0.0,0.0,0.0,0.0,0.0,0.0,0.0,0.0,0.0,0.0,0.0,0.0,0.0,0.0,0.0,0.0,0.0,0.0,0.0,0.0,0.0,0.0,0.0,0.0,0.0,0.0,0.0,0.0,0.0,0.0,0.0,0.0,0.0,0.0,0.0,-4.3356,-4.3565,-4.3684,-4.3788,-4.3788,-4.2147,-4.1175,0.0,0.0,0.0,0.0,0.0,0.0,0.0,0.0,0.0,0.0,0.0,0.0,0.0,0.0,0.0,0.0,0.0,0.0,0.0,0.0,0.0,0.0,0.0,0.0,0.0,0.0,0.0,0.0,0.0,0.0,0.0,0.0,0.0,0.0,0.0,0.0,0.0,0.0,0.0,0.0,0.0,0.0,0.0,0.0,0.0,0.0,0.0,0.0,-4.0085,0.0,0.0,0.0,0.0,0.0,0.0,0.0,0.0,0.0,0.0,0.0,0.0,0.0,0.0,0.0,0.0,0.0,0.0,0.0,0.0,0.0,0.0,0.0,0.0,0.0,0.0,0.0,0.0,0.0,0.0,0.0,0.0,0.0,0.0,0.0,0.0,0.0,0.0,0.0,0.0,0.0,0.0,0.0,0.0,0.0,0.0,0.0,0.0,0.0,0.0,0.0,0.0,0.0,0.0,0.0,0.0,0.0,0.0,0.0,-4.3426,-4.3703,-4.3802,-4.3867,-4.3825,-4.2289,-4.1403,0.0,0.0,0.0,0.0,0.0,0.0,0.0,0.0,0.0,0.0,0.0,0.0,0.0,0.0,0.0,0.0,0.0,0.0,0.0,0.0,0.0,0.0,0.0,0.0,0.0,0.0,0.0,0.0,0.0,0.0,0.0,0.0,0.0,0.0,0.0,0.0,0.0,0.0,0.0,0.0,0.0,0.0,0.0,0.0,0.0,0.0,0.0,0.0,0.0,0.0,0.0,0.0,0.0,0.0,0.0,0.0,0.0,0.0,0.0,0.0,0.0,0.0,0.0,0.0,0.0,0.0,0.0,0.0,0.0,0.0,0.0,0.0,0.0,0.0,0.0,0.0,0.0,0.0,0.0,0.0,0.0,0.0,0.0,0.0,0.0,0.0,0.0,0.0,0.0,0.0,0.0,0.0,0.0,0.0,0.0,0.0,0.0,0.0,0.0,0.0,0.0,0.0,0.0,0.0,0.0,0.0,0.0,-4.2266,-4.3351,-4.3788,-4.3867,-4.3873,-4.3801,-4.2385,-4.1471,-4.1132,0.0,0.0,0.0,0.0,0.0,0.0,0.0,0.0,0.0,0.0,0.0,0.0,0.0,0.0,0.0,0.0,0.0,0.0,0.0,0.0,0.0,0.0,0.0,0.0,0.0,0.0,0.0,0.0,0.0,0.0,0.0,0.0,0.0,0.0,0.0,0.0,0.0,0.0,-3.4106,-3.7744,0.0,0.0,0.0,0.0,0.0,0.0,0.0,0.0,-4.3506,0.0,0.0,0.0,0.0,0.0,0.0,0.0,0.0,0.0,0.0,0.0,0.0,0.0,0.0,0.0,0.0,0.0,0.0,0.0,0.0,0.0,0.0,0.0,0.0,0.0,0.0,0.0,0.0,0.0,0.0,0.0,0.0,0.0,0.0,0.0,0.0,0.0,0.0,0.0,0.0,0.0,0.0,0.0,0.0,0.0,0.0,0.0,0.0,0.0,0.0,0.0,0.0,0.0,0.0,0.0,0.0,-4.0564,-4.1773,-4.2818,-4.3769,-4.3867,-4.3614,-4.3002,-4.2151,-4.1347,-4.0588,0.0,0.0,0.0,0.0,0.0,0.0,0.0,0.0,0.0,0.0,0.0,0.0,0.0,0.0,0.0,0.0,0.0,0.0,0.0,0.0,0.0,0.0,0.0,0.0,0.0,0.0,0.0,0.0,0.0,0.0,0.0,0.0,0.0,0.0,0.0,0.0,0.0,0.0,0.0,-3.9627,-4.1753,0.0,0.0,0.0,0.0,0.0,0.0,0.0,0.0,-4.4607,0.0,0.0,0.0,0.0,0.0,0.0,0.0,0.0,0.0,0.0,0.0,0.0,0.0,0.0,0.0,0.0,0.0,0.0,0.0,0.0,0.0,0.0,0.0,0.0,0.0,0.0,0.0,0.0,0.0,0.0,0.0,0.0,0.0,0.0,0.0,0.0,0.0,0.0,0.0,0.0,0.0,0.0,0.0,0.0,0.0,0.0,0.0,0.0,0.0,0.0,0.0,0.0,0.0,0.0,0.0,-4.0545,-4.1663,-4.2673,-4.3666,-4.3851,-4.3524,-4.2755,-4.2017,-4.1305,0.0,0.0,0.0,0.0,0.0,0.0,0.0,0.0,0.0,0.0,0.0,0.0,0.0,0.0,0.0,0.0,0.0,0.0,0.0,0.0,0.0,0.0,0.0,0.0,0.0,0.0,0.0,0.0,0.0,0.0,0.0,0.0,0.0,0.0,0.0,0.0,0.0,0.0,0.0,0.0,-4.0745,-4.2943,-4.3497,0.0,0.0,0.0,0.0,0.0,0.0,-4.5504,-4.507,0.0,0.0,0.0,0.0,0.0,0.0,0.0,0.0,0.0,0.0,0.0,0.0,0.0,0.0,0.0,0.0,0.0,0.0,0.0,0.0,0.0,0.0,0.0,0.0,0.0,0.0,0.0,0.0,0.0,0.0,0.0,0.0,0.0,0.0,0.0,0.0,0.0,0.0,0.0,0.0,0.0,0.0,0.0,0.0,0.0,0.0,0.0,0.0,0.0,0.0,0.0,0.0,0.0,0.0,0.0,-4.0239,-4.1321,-4.2331,-4.3306,-4.3494,-4.3204,-4.244,-4.1731,-4.1016,0.0,0.0,0.0,0.0,0.0,0.0,0.0,0.0,0.0,0.0,0.0,0.0,0.0,0.0,0.0,0.0,0.0,0.0,0.0,0.0,0.0,0.0,0.0,0.0,0.0,0.0,0.0,0.0,0.0,0.0,0.0,0.0,0.0,0.0,0.0,0.0,0.0,0.0,0.0,0.0,0.0,-4.3921,-4.4401,-4.6143,0.0,0.0,0.0,0.0,-4.6796,-4.5992,0.0,0.0,0.0,0.0,0.0,0.0,0.0,0.0,0.0,0.0,0.0,0.0,0.0,0.0,0.0,0.0,0.0,0.0,0.0,0.0,0.0,0.0,0.0,0.0,0.0,0.0,0.0,0.0,0.0,0.0,0.0,0.0,0.0,0.0,0.0,0.0,0.0,0.0,0.0,0.0,0.0,0.0,0.0,0.0,0.0,0.0,0.0,0.0,0.0,0.0,0.0,0.0,0.0,0.0,0.0,0.0,-3.9175,-4.0203,-4.1265,-4.2376,-4.2483,-4.2145,-4.1474,-4.0867,-4.0137,0.0,0.0,0.0,0.0,0.0,0.0,0.0,0.0,0.0,0.0,0.0,0.0,0.0,0.0,0.0,0.0,0.0,0.0,0.0,0.0,0.0,0.0,0.0,0.0,0.0,0.0,0.0,0.0,0.0,0.0,0.0,0.0,0.0,0.0,0.0,0.0,0.0,0.0,0.0,0.0,0.0,-4.4383,-4.486,-4.653,-4.7816,0.0,0.0,-4.8457,-4.8491,-4.7313,0.0,0.0,0.0,0.0,0.0,0.0,0.0,0.0,0.0,0.0,0.0,0.0,0.0,0.0,0.0,0.0,0.0,0.0,0.0,0.0,0.0,0.0,0.0,0.0,0.0,0.0,0.0,0.0,0.0,0.0,0.0,0.0,0.0,0.0,0.0,0.0,0.0,0.0,0.0,0.0,0.0,0.0,0.0,0.0,0.0,0.0,0.0,0.0,0.0,0.0,0.0,0.0,0.0,0.0,0.0,-3.6239,-3.8887,-3.9481,-4.0309,-4.1333,-4.1507,-4.1187,-4.0407,-4.0246,-3.9593,0.0,0.0,0.0,0.0,0.0,0.0,0.0,0.0,0.0,0.0,0.0,0.0,0.0,0.0,0.0,0.0,0.0,0.0,0.0,0.0,0.0,0.0,0.0,0.0,0.0,0.0,0.0,0.0,0.0,0.0,0.0,0.0,0.0,0.0,0.0,0.0,0.0,0.0,0.0,0.0,0.0,0.0,-4.5555,-4.69,0.0,0.0,0.0,-4.866,-4.8821,0.0,0.0,0.0,0.0,0.0,0.0,0.0,0.0,0.0,0.0,0.0,0.0,0.0,0.0,0.0,0.0,0.0,0.0,0.0,0.0,0.0,0.0,0.0,0.0,0.0,0.0,0.0,0.0,0.0,0.0,0.0,0.0,0.0,0.0,0.0,0.0,0.0,0.0,0.0,0.0,0.0,0.0,0.0,0.0,0.0,0.0,0.0,0.0,0.0,0.0,0.0,0.0,0.0,0.0,0.0,0.0,0.0,-3.8113,-3.8725,-3.9428,-4.0273,-4.0448,-4.0223,-3.9635,-3.9596,0.0,0.0,0.0,0.0,0.0,0.0,0.0,0.0,0.0,0.0,0.0,0.0,0.0,0.0,0.0,0.0,0.0,0.0,0.0,0.0,0.0,0.0,0.0,0.0,0.0,0.0,0.0,-2.8741,0.0,0.0,0.0,0.0,0.0,0.0,0.0,0.0,0.0,0.0,0.0,0.0,0.0,0.0,-4.4844,-4.6107,-4.7179,-4.7933,0.0,0.0,-4.866,-4.8855,-4.8457,-4.7875,0.0,0.0,0.0,0.0,0.0,0.0,0.0,0.0,0.0,0.0,0.0,0.0,0.0,0.0,0.0,0.0,0.0,0.0,0.0,0.0,0.0,0.0,0.0,0.0,0.0,0.0,0.0,0.0,0.0,0.0,0.0,0.0,0.0,0.0,0.0,0.0,0.0,0.0,0.0,0.0,0.0,0.0,0.0,0.0,0.0,0.0,0.0,0.0,0.0,0.0,0.0,0.0,0.0,0.0,0.0,-3.6195,-3.7741,-3.8752,-3.9175,-3.914,-3.9175,-3.933,-3.8789,-3.8104,0.0,0.0,0.0,0.0,0.0,0.0,0.0,0.0,0.0,0.0,0.0,0.0,0.0,0.0,0.0,0.0,0.0,0.0,0.0,0.0,0.0,0.0,0.0,0.0,0.0,0.0,0.0,0.0,0.0,0.0,0.0,0.0,0.0,0.0,0.0,0.0,0.0,0.0,0.0,0.0,0.0,-4.5101,-4.6318,-4.7341,-4.8052,0.0,0.0,-4.866,-4.8855,-4.8457,-4.789,-4.7297,0.0,0.0,0.0,0.0,0.0,0.0,0.0,0.0,0.0,0.0,0.0,0.0,0.0,0.0,0.0,0.0,0.0,0.0,0.0,0.0,0.0,0.0,0.0,0.0,0.0,0.0,0.0,0.0,0.0,0.0,0.0,0.0,0.0,0.0,0.0,0.0,0.0,0.0,0.0,0.0,0.0,0.0,0.0,0.0,0.0,0.0,0.0,0.0,0.0,0.0,0.0,0.0,0.0,-3.4564,-3.5698,-3.6941,-3.7701,-3.7985,-3.8005,-3.8097,-3.8259,-3.8059,-3.7405,0.0,0.0,0.0,0.0,0.0,0.0,0.0,0.0,0.0,0.0,0.0,0.0,0.0,0.0,0.0,0.0,0.0,0.0,0.0,0.0,0.0,0.0,0.0,0.0,0.0,0.0,0.0,0.0,-3.1603,-3.2139,-3.338,0.0,0.0,0.0,0.0,0.0,0.0,0.0,0.0,0.0,0.0,-4.5301,-4.6985,-4.767,0.0,0.0,-4.8476,-4.866,-4.8855,-4.8898,-4.8683,-4.8046,-4.7821,0.0,0.0,0.0,0.0,0.0,0.0,0.0,0.0,0.0,0.0,0.0,0.0,0.0,0.0,0.0,0.0,0.0,0.0,0.0,0.0,0.0,0.0,0.0,0.0,0.0,0.0,0.0,0.0,0.0,0.0,0.0,0.0,0.0,0.0,0.0,0.0,0.0,0.0,0.0,0.0,0.0,0.0,0.0,0.0,0.0,0.0,0.0,0.0,0.0,0.0,0.0,0.0,-3.4146,-3.4978,-3.6127,-3.6871,-3.7087,-3.7129,-3.7243,-3.7428,-3.7485,-3.6809,0.0,0.0,0.0,0.0,0.0,0.0,0.0,0.0,0.0,0.0,0.0,0.0,0.0,0.0,0.0,0.0,0.0,0.0,0.0,0.0,0.0,0.0,0.0,0.0,0.0,0.0,0.0,0.0,-3.2534,-3.3254,-3.4387,0.0,0.0,0.0,0.0,0.0,0.0,0.0,0.0,0.0,0.0,-4.5427,-4.7419,-4.7868,-4.8053,-4.8267,-4.8476,-4.8641,-4.8839,-4.9144,-4.9148,-4.847,0.0,0.0,0.0,0.0,0.0,0.0,0.0,0.0,0.0,0.0,0.0,0.0,0.0,0.0,0.0,0.0,0.0,0.0,0.0,0.0,0.0,0.0,0.0,0.0,0.0,0.0,0.0,-2.7995,0.0,0.0,-2.7159,0.0,0.0,0.0,0.0,0.0,0.0,0.0,0.0,0.0,0.0,0.0,0.0,0.0,0.0,0.0,0.0,0.0,0.0,0.0,0.0,0.0,0.0,-3.3518,-3.3755,-3.5355,-3.6339,-3.6594,-3.6615,-3.6753,-3.6989,-3.7069,-3.6387,-3.4852,0.0,0.0,0.0,0.0,0.0,0.0,0.0,0.0,0.0,0.0,0.0,0.0,0.0,0.0,0.0,0.0,0.0,0.0,0.0,0.0,0.0,0.0,0.0,0.0,0.0,0.0,-3.2324,-3.3592,-3.4455,0.0,0.0,0.0,0.0,0.0,0.0,0.0,0.0,0.0,0.0,-4.4361,-4.5427,-4.7419,-4.7868,-4.8072,-4.8267,-4.8476,-4.8642,-4.8787,-4.9061,-4.9071,0.0,0.0,0.0,0.0,0.0,0.0,0.0,0.0,0.0,0.0,0.0,0.0,0.0,0.0,0.0,0.0,0.0,0.0,0.0,0.0,0.0,0.0,0.0,0.0,0.0,0.0,0.0,-2.8307,-2.7817,0.0,0.0,0.0,0.0,0.0,0.0,0.0,0.0,0.0,0.0,0.0,-3.0724,-3.0724,0.0,0.0,0.0,0.0,0.0,0.0,0.0,0.0,0.0,0.0,0.0,0.0,-3.2656,-3.3385,-3.4478,-3.5442,-3.6178,-3.6195,-3.6301,-3.6509,-3.655,-3.5881,-3.4444,0.0,0.0,0.0,0.0,0.0,0.0,0.0,0.0,0.0,0.0,0.0,0.0,0.0,0.0,0.0,0.0,0.0,0.0,0.0,0.0,0.0,0.0,0.0,0.0,0.0,-3.2699,0.0,0.0,0.0,0.0,0.0,0.0,0.0,0.0,0.0,0.0,0.0,-4.2364,-4.3728,-4.4769,-4.5982,-4.7491,-4.7868,-4.8072,0.0,0.0,0.0,0.0,0.0,0.0,0.0,0.0,0.0,0.0,0.0,0.0,0.0,0.0,-4.6508,-4.5039,-4.4293,-4.3798,-4.3522,0.0,0.0,0.0,0.0,0.0,0.0,0.0,0.0,0.0,0.0,0.0,0.0,0.0,0.0,-2.8512,0.0,-2.7781,0.0,0.0,0.0,0.0,0.0,0.0,0.0,0.0,-3.0338,-3.0763,-3.1471,-3.1605,-3.1812,0.0,-3.1496,-3.1099,0.0,0.0,0.0,0.0,0.0,0.0,0.0,0.0,-3.2552,-3.2977,-3.408,-3.502,-3.5717,-3.5773,-3.5883,-3.6045,-3.557,-3.4857,-3.398,-3.2541,-3.1822,0.0,0.0,0.0,0.0,0.0,0.0,0.0,0.0,0.0,0.0,0.0,0.0,0.0,0.0,0.0,0.0,0.0,0.0,0.0,0.0,0.0,0.0,0.0,-3.3541,0.0,0.0,0.0,0.0,0.0,0.0,0.0,0.0,0.0,-4.0793,-4.164,-4.274,-4.4132,-4.5159,-4.6251,-4.7527,0.0,0.0,0.0,0.0,0.0,0.0,0.0,-4.9228,-4.9337,-4.9566,-4.9485,-4.8761,-4.8419,-4.8154,-4.7984,0.0,0.0,-4.6451,-4.5531,-4.4948,-4.4938,-4.4278,-4.3723,-4.3733,-4.3751,-4.377,0.0,0.0,0.0,0.0,0.0,0.0,0.0,0.0,-2.9243,-2.8766,0.0,-2.794,0.0,0.0,0.0,0.0,0.0,-2.958,0.0,0.0,-3.0702,-3.1157,-3.1757,-3.2121,-3.2613,-3.3133,-3.2721,-3.2556,-3.2554,-3.1065,0.0,0.0,0.0,0.0,0.0,0.0,-3.3086,-3.2593,-3.4011,-3.4961,-3.5268,-3.5268,-3.5367,-3.5543,-3.4192,-3.3461,-3.343,-3.2072,-3.1387,-3.156,-3.1579,0.0,0.0,0.0,0.0,0.0,0.0,0.0,0.0,0.0,0.0,0.0,0.0,0.0,0.0,0.0,0.0,0.0,0.0,0.0,0.0,-3.3698,0.0,0.0,0.0,0.0,0.0,0.0,0.0,0.0,0.0,0.0,-4.1664,-4.2053,-4.296,-4.4828,0.0,0.0,0.0,0.0,-4.8072,-4.8267,-4.8419,-4.8532,-4.8587,-4.8767,-4.8995,-4.9241,0.0,0.0,-4.882,-4.89,-4.8834,-4.8217,-4.8182,-4.8087,-4.8105,-4.726,-4.6646,-4.6608,-4.5908,-4.5448,-4.5447,-4.5331,-4.5416,-3.0467,0.0,0.0,0.0,0.0,-2.9851,-2.962,-2.9369,-2.9126,-2.8619,-2.7899,-2.7704,0.0,0.0,0.0,0.0,0.0,0.0,-2.9711,-2.991,-3.0506,-3.101,-3.1478,-3.2145,-3.2654,-3.3051,-3.3014,-3.2764,-3.2333,-3.2088,-3.1701,-3.1162,0.0,0.0,0.0,0.0,-3.2305,-3.2852,-3.3323,-3.3924,-3.4715,-3.4715,-3.4875,-3.5095,-3.4172,-3.3462,-3.2939,-3.2021,-3.1374,-3.1038,-3.1024,0.0,0.0,0.0,0.0,0.0,0.0,0.0,0.0,0.0,0.0,0.0,0.0,0.0,0.0,0.0,0.0,0.0,0.0,0.0,-3.3783,-3.5255,-3.6237,0.0,0.0,0.0,0.0,0.0,0.0,0.0,0.0,0.0,-4.3056,-4.3486,-4.4044,0.0,0.0,-4.691,-4.7618,-4.7868,-4.8072,-4.8267,-4.8419,0.0,-4.8532,-4.8732,-4.8943,-4.8993,-4.9308,-4.955,-4.9629,-4.9752,-4.9851,-4.9759,-4.9823,-4.9864,-4.9798,-4.8222,-4.6944,-4.6771,-4.6146,-4.5569,-4.5568,-4.5594,-4.5667,-3.0283,-2.9561,-2.9555,-2.9402,-2.9194,-2.9194,-2.9053,-2.8766,-2.8702,-2.8292,-2.7699,-2.7699,-2.7611,-2.7536,-2.7687,0.0,0.0,0.0,-2.9351,-2.9678,-3.0219,-3.0912,-3.175,-3.2378,-3.3003,-3.353,-3.3427,-3.3112,-3.2599,-3.2512,-3.2206,-3.1573,0.0,0.0,-3.1451,-3.1896,-3.2303,-3.2688,-3.2985,-3.3464,-3.4159,-3.43,-3.4423,-3.4554,-3.3864,-3.3135,-3.2459,-3.1714,-3.1084,-3.0589,-3.0555,-3.0638,0.0,0.0,0.0,0.0,0.0,0.0,0.0,0.0,0.0,0.0,0.0,-3.123,-3.1493,0.0,0.0,0.0,-3.3233,-3.4083,-3.5284,-3.6502,0.0,0.0,0.0,0.0,0.0,0.0,0.0,-4.1102,-4.1711,-4.2528,-4.3739,-4.4388,-4.493,-4.5453,-4.6377,-4.7138,-4.7572,0.0,-4.8052,-4.8247,-4.8343,-4.8438,-4.8494,-4.8624,-4.8786,-4.8926,-4.9308,-4.9663,-4.9903,-5.0038,-5.0231,-5.0371,-5.0478,-5.0542,-5.0643,-4.8846,-4.7347,-4.7327,-4.6413,-4.5633,-4.5594,-4.5667,-4.5682,-3.0245,-2.95,-2.9449,-2.9119,-2.8638,-2.8638,-2.8527,-2.8337,-2.8153,-2.7974,-2.7888,-2.7802,-2.7862,-2.7973,-2.8346,0.0,-2.8503,-2.8544,-2.8953,-2.9648,-2.9896,-3.0843,-3.2316,-3.2698,-3.3398,-3.4332,-3.3889,-3.3492,-3.3115,-3.2523,-3.208,-3.1771,-3.2135,-3.209,-3.1712,-3.258,-3.2767,-3.2216,-3.2883,-3.3356,-3.3658,-3.3899,-3.4034,-3.4025,-3.3379,-3.2716,-3.2038,-3.1304,-3.0707,-3.0255,-3.0179,-3.0295,-3.0609,0.0,0.0,0.0,0.0,0.0,0.0,0.0,0.0,0.0,0.0,0.0,0.0,0.0,0.0,0.0,-3.4734,0.0,-3.6789,-3.7527,0.0,0.0,0.0,-3.9191,-3.9259,-4.0476,-4.1322,-4.1373,0.0,0.0,-4.3926,-4.4818,-4.5598,-4.6112,-4.6655,-4.7093,-4.7446,-4.7767,-4.803,-4.8149,-4.8247,-4.8343,-4.8438,-4.8494,-4.8642,-4.8942,-4.9324,-4.9604,-4.9778,-4.9952,-5.0101,-5.029,-5.0367,-5.0377,-5.0457,-4.9067,-4.801,-4.7933,-4.6682,-4.5594,-4.5594,-4.5657,-4.5679,-3.0364,-2.9514,-2.9505,-2.9317,-2.9087,-2.9074,-2.8948,-2.876,-2.869,-2.8585,-2.8392,-2.798,-2.7691,-2.7456,-2.7656,-2.7769,-2.7782,-2.8183,-2.8575,-2.9012,-3.0038,-3.0953,-3.1715,-3.2416,-3.3108,-3.375,-3.3799,-3.3388,-3.2701,-3.2623,-3.2178,-3.1453,-3.161,-3.1847,-3.2045,-3.2281,-3.2391,-3.2358,-3.2633,-3.2915,-3.3229,-3.3398,-3.3477,-3.3503,-3.3344,-3.2889,-3.218,-3.1482,-3.0927,-3.044,-2.9955,-2.9782,-3.0006,-3.0215,0.0,0.0,0.0,0.0,0.0,0.0,0.0,0.0,0.0,-3.1834,-3.1976,0.0,-3.3115,0.0,-3.5321,-3.6548,-3.7424,-3.8166,0.0,0.0,-4.0223,-4.0899,-4.1441,-4.183,-4.2252,-4.2801,-4.3189,-4.3749,-4.4626,-4.502,-4.5424,-4.5988,-4.6501,-4.6962,-4.7298,-4.7597,-4.7827,-4.803,-4.8168,-4.8226,-4.8285,-4.8457,-4.866,-4.8891,-4.916,-4.9449,-4.9673,-4.9824,-5.0031,-5.0243,-5.0314,-5.0122,-4.9656,-4.8672,-4.7818,-4.7194,-4.629,-4.5594,-4.5594,-4.5635,-4.5692,-3.0277,-2.9757,-2.9694,-2.9591,-2.9431,-2.9086,-2.8866,-2.8772,-2.8726,-2.8618,-2.8484,-2.8201,-2.8001,-2.7868,-2.7937,-2.7971,-2.8032,-2.8308,-2.8698,-2.9231,-3.0062,-3.081,-3.1546,-3.2087,-3.266,-3.3192,-3.3353,-3.3013,-3.2285,-3.2483,-3.2094,-3.1102,-3.1248,-3.1452,-3.1726,-3.1981,-3.2135,-3.2203,-3.2342,-3.2508,-3.2703,-3.2823,-3.2904,-3.292,-3.2904,-3.2565,-3.1867,-3.1462,-3.0933,-3.0212,-3.0069,-2.9902,-2.9592,-3.0067,-3.021,0.0,0.0,0.0,0.0,0.0,0.0,0.0,0.0,0.0,0.0,0.0,-3.3692,-3.4905,-3.6352,-3.7468,-3.8052,-3.9042,-3.99,-4.0364,-4.1071,-4.1721,-4.2162,-4.25,-4.2881,-4.3341,-4.3724,-4.4179,-4.4835,-4.5086,-4.5363,-4.5743,-4.6235,-4.6684,-4.7098,-4.7468,-4.7759,-4.7847,-4.801,-4.8148,-4.8187,-4.842,-4.8641,-4.882,-4.9094,-4.9371,-4.9521,-4.9759,-4.9946,-5.007,-4.9889,-4.9622,-4.9149,-4.814,-4.7232,-4.682,-4.6118,-4.5626,-4.5586,-4.5654,-4.5684,-3.0088,-3.0049,-2.9818,-2.974,-2.9704,-2.896,-2.8688,-2.876,-2.8616,-2.853,-2.8455,-2.8442,-2.85,-2.8543,-2.8556,-2.8543,-2.8556,-2.8584,-2.9036,-2.9718,-2.998,-3.0587,-3.1482,-3.1693,-3.2046,-3.2561,-3.2706,-3.2436,-3.1791,-3.2091,-3.171,-3.0746,-3.0895,-3.1028,-3.1087,-3.1582,-3.1883,-3.1925,-3.2094,-3.215,-3.2178,-3.2302,-3.2342,-3.2342,-3.2342,-3.2081,-3.1516,-3.1394,-3.09,-2.9987,-3.0359,-3.0254,-2.9492,-3.0108,-3.0273,0.0,-2.9868,0.0,0.0,0.0,0.0,0.0,0.0,0.0,0.0,-3.342,-3.4308,-3.6059,-3.7426,-3.8317,-3.8621,-3.9926,-4.0806,-4.0923,-4.1603,-4.2126,-4.2337,-4.2936,-4.3351,-4.35,-4.4136,-4.4626,-4.4776,-4.5032,-4.5257,-4.5555,-4.5912,-4.6332,-4.6801,-4.7272,-4.7593,-4.7636,-4.7827,-4.801,-4.8187,-4.8401,-4.8605,-4.875,-4.9029,-4.9273,-4.9384,-4.9625,-4.98,-4.9717,-4.9334,-4.8905,-4.8751,-4.7507,-4.6642,-4.6492,-4.5937,-4.5523,-4.5568,-4.5648,-4.569,-3.0011,-2.9818,-2.9599,-2.947,-2.9445,-2.913,-2.9222,-2.958,-2.9554,-2.9252,-2.8825,-2.8825,-2.8548,-2.8231,-2.8206,-2.8219,-2.8195,-2.8635,-2.8999,-2.9337,-2.9833,-3.038,-3.0874,-3.1061,-3.1384,-3.1786,-3.168,-3.1453,-3.1082,-3.0937,-3.0668,-3.0235,-3.0372,-3.0612,-3.0851,0.0,0.0,0.0,-3.1798,-3.1912,-3.2053,-3.2066,-3.2066,-3.2081,-3.2066,0.0,-3.1883,-3.1366,-3.1024,-3.0899,-3.047,0.0,0.0,0.0,0.0,0.0,0.0,0.0,0.0,0.0,0.0,0.0,-3.256,-3.2883,-3.2901,-3.3926,-3.5331,-3.7024,-3.7486,-3.7996,-3.884,-3.9802,-4.0701,-4.1472,-4.2284,-4.3037,-4.3623,-4.3824,-4.3966,-4.4136,-4.4271,-4.4468,-4.4748,-4.4923,-4.514,-4.5389,-4.5684,-4.5988,-4.6308,-4.6801,-4.7183,-4.7341,-4.7597,-4.7866,-4.8148,-4.8286,-4.842,-4.8624,-4.882,-4.9044,-4.922,-4.9377,-4.9309,-4.901,-4.8838,-4.8321,-4.7259,-4.6708,-4.6303,-4.5772,-4.5534,-4.5438,-4.5504,-4.5622,-4.5682,-2.99,0.0,-2.9326,-2.9236,0.0,-2.9131,-2.9221,-2.9456,-2.9468,-2.9333,-2.9136,-2.9136,-2.9063,-2.8938,-2.8938,-2.8938,-2.895,-2.9227,-2.939,-2.9505,-2.9897,-3.0203,-3.0394,-3.0609,-3.0861,-3.1147,-3.096,-3.068,-3.0351,-3.0287,-3.0033,-2.962,-2.9837,-3.0083,-3.0312,-3.0477,-3.0807,-3.1278,-3.1395,-3.1482,-3.1568,-3.1568,-3.1539,-3.1568,-3.1568,0.0,0.0,0.0,0.0,0.0,0.0,0.0,0.0,0.0,0.0,-3.0319,-3.0418,-3.0727,-3.1223,-3.1597,-3.1924,-3.2182,-3.2753,-3.3193,-3.3435,-3.4797,-3.6062,-3.7044,-3.7543,-3.8228,-3.9224,-4.0041,-4.0844,-4.1758,-4.2572,-4.3273,-4.3752,-4.3864,-4.3952,-4.4138,-4.4196,-4.4281,-4.4508,-4.4659,-4.4879,-4.515,-4.5424,-4.5709,-4.5988,-4.6471,-4.6893,-4.7205,-4.7529,-4.7759,-4.7927,-4.8169,-4.8307,-4.8458,-4.8696,-4.8757,-4.8555,-4.8674,-4.8593,-4.7994,-4.7645,-4.7163,-4.6566,-4.607,-4.5699,-4.536,-4.5309,-4.5351,-4.5409,-4.5505,-4.5603,-2.9843,-2.9226,-2.914,-2.9052,-2.904,-2.9025,-2.9025,-2.9013,0.0,0.0,0.0,-2.9341,-2.9482,-2.9675,-2.9675,-2.9663,-2.9663,-2.9663,-2.9675,-2.9663,-2.9856,-2.9921,-2.9921,-3.0177,-3.0381,-3.052,-3.0257,-2.997,-2.9658,-2.9645,-2.9402,-2.8981,-2.9243,-2.9495,-2.9699,-2.9976,-3.0357,-3.0836,-3.0955,-3.1028,-3.1014,-3.1014,-3.1014,-3.1014,-3.1014,-3.1014,-3.1014,-3.1014,-3.0822,-3.0392,-3.088,-3.0745,-2.982,-3.0362,-3.0558,-3.0196,-3.0258,-3.0624,-3.1362,-3.1408,-3.1683,-3.2341,-3.2913,-3.3558,-3.4235,-3.5501,-3.6411,-3.6791,-3.7534,-3.8405,-3.9424,-4.0206,-4.0994,-4.1814,-4.261,-4.3174,-4.3462,-4.3492,-4.3641,-4.3952,-4.401,-4.4097,-4.4253,-4.4435,-4.4603,-4.4879,-4.5133,-4.5424,-4.5735,-4.6211,-4.6725,-4.7088,-4.7374,-4.7572,-4.7699,-4.7949,-4.8153,-4.7992,-4.8292,-4.8285,-4.772,-4.769,-4.7559,-4.6865,-4.6364,-4.6132,-4.5937,-4.5468,-4.5076,-4.5072,-4.517,-4.5246,-4.5267,-4.5351,-4.5467,-2.9893,-2.9742,-2.9117,-2.8843,-2.8831,-2.8657,-2.8602,-2.8618,-2.8934,-2.9091,-2.9131,-2.9131,-2.9182,-2.9221,-2.917,-2.9209,-2.9182,-2.9182,-2.9209,-2.9209,-2.9221,-2.9248,-2.9248,-2.9702,-2.9908,-2.9909,-2.9391,-2.9077,-2.8967,-2.8537,-2.825,-2.8216,-2.8554,-2.8876,-2.918,-2.9355,-2.9574,-2.982,-3.0357,-3.0672,-3.0672,-3.0672,-3.0672,-3.0657,-3.0672,-3.0672,-3.0672,-3.0672,-3.0628,-3.0556,-3.0629,-3.0659,-3.0631,-3.0705,-3.0881,-3.1097,-3.1111,-3.1241,-3.1459,-3.1503,-3.1702,-3.2214,-3.3006,-3.391,-3.4956,-3.5413,-3.5963,-3.6792,-3.7249,-3.788,-3.8758,-3.978,-4.07,-4.1578,-4.2429,-4.3007,-4.3143,-4.3174,-4.3312,-4.3628,-4.3674,-4.3805,-4.4051,-4.4321,-4.4474,-4.4586,-4.4852,-4.515,-4.5494,-4.6013,-4.6566,-4.6911,-4.7048,-4.7205,-4.7446,-4.7657,-4.7593,-4.7065,-4.7258,-4.7224,-4.6517,-4.6609,-4.6472,-4.5832,-4.5692,-4.5514,-4.5076,-4.4915,-4.4889,-4.4974,-4.5014,-4.5068,-4.5114,-4.5173,-4.5298,-2.9586,-2.915,-2.8554,-2.8299,-2.8311,-2.8191,-2.8163,-2.8203,-2.8363,-2.8657,-2.8922,-2.8961,-2.9,-2.9104,-2.9104,-2.9104,-2.9104,-2.9104,-2.9104,-2.9104,-2.9104,-2.9104,-2.9143,-2.9339,-2.9417,-2.9381,-2.8661,-2.8339,-2.8395,-2.7786,-2.751,-2.7623,-2.8,-2.8249,-2.8411,-2.8643,-2.8803,-2.8912,-2.9651,-3.0066,-3.0052,-3.0066,-3.0066,-3.0066,-3.0066,-3.0066,-3.0066,-3.0066,-3.0097,-3.016,-3.016,-3.0221,-3.0401,-3.0401,-3.0522,-3.0732,-3.0762,-3.0836,-3.0999,-3.1427,-3.19,-3.2503,-3.3277,-3.415,-3.4968,-3.5534,-3.6107,-3.6631,-3.6892,-3.7573,-3.8871,-3.9562,-4.0432,-4.166,-4.2204,-4.2523,-4.268,-4.2805,-4.2945,-4.3176,-4.3281,-4.3462,-4.3789,-4.3935,-4.4093,-4.4236,-4.4564,-4.4879,-4.5213,-4.5624,-4.602,-4.6471,-4.6684,-4.6911,-4.7183,-4.7363,-4.7232,-4.6735,-4.6808,-4.6488,-4.5679,-4.554,-4.5375,-4.4817,-4.4778,-4.4757,-4.4463,-4.4568,-4.4693,-4.4757,-4.4846,-4.4895,-4.495,-4.5003,-4.5151,-2.9407,-2.8679,-2.8146,-2.7865,-2.7719,-2.7748,-2.7748,-2.776,-2.776,-2.8018,-2.8395,-2.8526,-2.8697,-2.8816,-2.8816,-2.8828,-2.8828,-2.8816,-2.8816,-2.8816,-2.8828,-2.8816,-2.8816,-2.8895,-2.8934,-2.8851,-2.8137,-2.7804,-2.7875,-2.7211,-2.6918,-2.7087,-2.7356,-2.751,-2.7577,-2.7809,-2.7993,-2.8091,-2.8707,-2.918,-2.9366,-2.9383,-2.9383,-2.9352,-2.9383,-2.9383,-2.9383,-2.9383,-2.9432,-2.956,-2.956,-2.9668,-2.9913,-2.9913,-2.996,-3.0113,-3.0129,-3.0307,-3.0663,-3.1234,-3.1936,-3.2771,-3.341,-3.4112,-3.4765,-3.5444,-3.599,-3.6226,-3.6445,-3.7281,-3.8747,-3.9298,-4.0055,-4.1513,-4.1851,-4.2013,-4.2254,-4.2381,-4.2556,-4.2744,-4.2914,-4.3129,-4.3372,-4.3509,-4.3687,-4.3993,-4.4265,-4.4603,-4.4934,-4.515,-4.5468,-4.5837,-4.6235,-4.6548,-4.6801,-4.6811,-4.6603,-4.6173,-4.6019,-4.5453,-4.4638,-4.4451,-4.444,-4.3985,-4.3992,-4.4128,-4.417,-4.4317,-4.4463,-4.4519,-4.4613,-4.4706,-4.4764,-4.4858,-4.5045,-2.9494,-2.8963,-2.8218,-2.7651,-2.729,-2.7278,-2.7267,-2.7278,-2.7278,-2.7307,-2.7429,-2.7788,-2.8002,-2.8002,-2.8002,-2.8042,-2.8042,-2.8002,-2.8042,-2.8042,-2.8002,-2.8002,-2.8082,-2.8391,-2.855,-2.8457,-2.786,-2.7508,-2.7496,-2.6685,-2.6358,-2.6461,-2.653,-2.6633,-2.6782,-2.685,-2.6994,-2.7297,-2.7397,-2.7842,-2.8619,-2.8683,-2.8683,-2.8683,-2.8683,-2.8683,-2.8683,-2.8683,-2.8734,-2.8867,-2.8885,-2.9058,-2.9341,-2.9387,-2.9449,-2.9634,-2.9665,-2.9981,-3.0679,-3.0853,-3.1518,-3.2734,-3.3115,-3.3632,-3.4375,-3.4683,-3.5063,-3.5522,-3.5973,-3.6919,-3.8359,-3.8753,-3.9556,-4.1053,-4.1357,-4.1538,-4.185,-4.1963,-4.2093,-4.2413,-4.2539,-4.2728,-4.2945,-4.3207,-4.3509,-4.3743,-4.4035,-4.4265,-4.4406,-4.4676,-4.4896,-4.5177,-4.5632,-4.6112,-4.6328,-4.5911,-4.5534,-4.495,-4.4414,-4.3955,-4.35,-4.3378,-4.3395,-4.3606,-4.3647,-4.3761,-4.3892,-4.4051,-4.4151,-4.4244,-4.4331,-4.4482,-4.4573,-4.4706,-4.4895,-2.9045,-2.8784,-2.7915,-2.7303,-2.6862,-2.6828,-2.6828,-2.6869,-2.6816,-2.6828,-2.688,-2.7056,-2.7249,-2.7482,-2.7615,-2.7655,-2.7667,-2.7841,-2.7881,-2.7881,-2.7881,-2.7881,-2.7921,-2.8082,-2.8111,-2.8103,-2.7559,-2.716,-2.6866,-2.6093,-2.5699,-2.5769,-2.5756,-2.5804,-2.5873,-2.5978,-2.6186,-2.6427,-2.6564,-2.6824,-2.7263,-2.7709,-2.7967,-2.7967,-2.7967,-2.7967,-2.7967,-2.7954,-2.8072,-2.8287,-2.832,-2.8481,-2.8862,-2.8894,-2.8926,-2.9017,-2.9444,-2.9799,-3.0146,-3.1025,-3.1822,-3.241,-3.3078,-3.3591,-3.3908,-3.4176,-3.4515,-3.485,-3.5442,-3.639,-3.7801,-3.8295,-3.9049,-4.0356,-4.0851,-4.107,-4.1221,-4.1439,-4.1637,-4.1883,-4.2093,-4.2302,-4.2571,-4.2883,-4.316,-4.3386,-4.3625,-4.3818,-4.3977,-4.4224,-4.4423,-4.462,-4.4988,-4.5477,-4.5843,-4.553,-4.4947,-4.4422,-4.3796,-4.3221,-4.2865,-4.2767,-4.2937,-4.3196,-4.3322,-4.3426,-4.3529,-4.3712,-4.3873,-4.3952,-4.4091,-4.4262,-4.436,-4.4477,-4.4613,-2.8554,-2.8299,-2.7314,-2.6672,-2.6229,-2.6218,-2.6218,-2.6218,-2.6218,-2.6218,-2.6218,-2.6218,-2.6385,-2.6682,-2.7062,-2.7226,-2.7278,-2.7464,-2.7569,-2.7557,-2.7557,-2.7557,-2.7557,-2.7586,-2.7638,-2.7557,-2.7154,-2.6636,-2.6108,-2.5383,-2.4993,-2.4993,-2.5004,-2.5004,-2.4993,-2.5147,-2.5324,-2.5535,-2.5734,-2.5896,-2.6139,-2.6633,-2.7007,-2.7188,-2.7175,-2.7188,-2.7175,-2.7188,-2.7343,-2.7643,-2.7709,-2.7861,-2.8183,-2.8249,-2.8362,-2.855,-2.9106,-2.9598,-2.9944,-3.1103,-3.191,-3.2194,-3.2884,-3.3297,-3.3437,-3.373,-3.3971,-3.421,-3.475,-3.5703,-3.706,-3.7673,-3.8447,-3.9634,-4.0182,-4.0509,-4.0646,-4.0919,-4.1156,-4.1357,-4.1604,-4.1882,-4.219,-4.2508,-4.2728,-4.2898,-4.3129,-4.3328,-4.3535,-4.3759,-4.3935,-4.4093,-4.4395,-4.4869,-4.5381,-4.4831,-4.4338,-4.395,-4.3296,-4.2536,-4.2417,-4.2427,-4.2552,-4.2824,-4.2975,-4.3105,-4.3214,-4.339,-4.3579,-4.3662,-4.3809,-4.3983,-4.4045,-4.4185,-4.4277,-2.815,-2.761,-2.6483,-2.5754,-2.5295,-2.5285,-2.5285,-2.5316,-2.5285,-2.5285,-2.5285,-2.5274,-2.5285,-2.5411,-2.6218,-2.6603,-2.6633,-2.6685,-2.6685,-2.6685,-2.6685,-2.6685,-2.6674,-2.685,-2.6933,-2.694,-2.6628,-2.5952,-2.5076,-2.4501,-2.4273,-2.4236,-2.4225,-2.4261,-2.4261,-2.4261,-2.4419,-2.4719,-2.4826,-2.4969,-2.5312,-2.5382,-2.5756,-2.6311,-2.6461,-2.6449,-2.6461,-2.6449,-2.6564,-2.6735,-2.6939,-2.7108,-2.7263,-2.7469,-2.7798,-2.8242,-2.8618,-2.934,-3.037,-3.0913,-3.1419,-3.2167,-3.2412,-3.2632,-3.2966,-3.3192,-3.3417,-3.3605,-3.3957,-3.4758,-3.5969,-3.6767,-3.7609,-3.8672,-3.9325,-3.9809,-4.0181,-4.0405,-4.0612,-4.0833,-4.1122,-4.1472,-4.1866,-4.2045,-4.219,-4.2413,-4.2713,-4.2899,-4.2976,-4.3221,-4.3432,-4.3641,-4.3906,-4.4355,-4.4743,-4.4113,-4.3506,-4.311,-4.2428,-4.166,-4.1815,-4.198,-4.221,-4.2432,-4.2552,-4.2709,-4.2882,-4.3069,-4.325,-4.3391,-4.3545,-4.3695,-4.3728,-4.3892,-4.4005,-2.7778,-2.7116,-2.6457,-2.5797,-2.5171,-2.4858,-2.4754,-2.4765,-2.4754,-2.4754,-2.4754,-2.4765,-2.4754,-2.4765,-2.5105,-2.5485,-2.5874,-2.6052,-2.6146,-2.6146,-2.6146,-2.6146,-2.6146,-2.624,-2.6271,-2.6238,-2.6113,-2.5554,-2.462,-2.412,-2.372,-2.3442,-2.3457,-2.3446,-2.3446,-2.3556,-2.374,-2.3984,-2.4129,-2.4311,-2.4575,-2.4611,-2.4754,-2.5004,-2.5453,-2.5687,-2.5674,-2.5687,-2.5804,-2.599,-2.6164,-2.6371,-2.6602,-2.7043,-2.7379,-2.7682,-2.8617,-2.9427,-2.9939,-3.0598,-3.1182,-3.1626,-3.1813,-3.1996,-3.2286,-3.2538,-3.2789,-3.3002,-3.3248,-3.3795,-3.4522,-3.5521,-3.6674,-3.7775,-3.8409,-3.8936,-3.9525,-3.9859,-4.0091,-4.0405,-4.0749,-4.107,-4.1205,-4.1423,-4.1606,-4.172,-4.2029,-4.227,-4.2413,-4.2602,-4.2852,-4.3099,-4.3325,-4.34,-4.3206,-4.3068,-4.2621,-4.2146,-4.1602,-4.1354,-4.1323,-4.1458,-4.164,-4.2002,-4.2145,-4.2269,-4.2456,-4.2652,-4.2863,-4.3069,-4.3232,-4.3356,-4.3374,-4.3529,-4.3649,-2.716,-2.6537,-2.6138,-2.5558,-2.4927,-2.4446,-2.4294,-2.4284,-2.4294,-2.4294,-2.4294,-2.4251,-2.4294,-2.4284,-2.4284,-2.4509,-2.4978,-2.5295,-2.5454,-2.5464,-2.5464,-2.5454,-2.5454,-2.5464,-2.5464,-2.539,-2.5303,-2.4832,-2.421,-2.3588,-2.3165,-2.2902,-2.2789,-2.274,-2.2815,-2.2964,-2.3113,-2.3298,-2.3446,-2.3604,-2.3787,-2.3824,-2.3813,-2.3897,-2.4311,-2.4707,-2.4921,-2.4957,-2.504,-2.5218,-2.5394,-2.5714,-2.6168,-2.6595,-2.7025,-2.7518,-2.8486,-2.9252,-2.9504,-3.0201,-3.0697,-3.096,-3.1147,-3.131,-3.1596,-3.1923,-3.22,-3.2381,-3.2596,-3.286,-3.3297,-3.4085,-3.5249,-3.6532,-3.7225,-3.7769,-3.8391,-3.8701,-3.9109,-3.9595,-3.9883,-4.0213,-4.0566,-4.0802,-4.0972,-4.1122,-4.1439,-4.167,-4.1818,-4.2093,-4.2334,-4.2602,-4.279,-4.2486,-4.2134,-4.1843,-4.1779,-4.1391,-4.1083,-4.0882,-4.0836,-4.0954,-4.1163,-4.1525,-4.1744,-4.1874,-4.2023,-4.2249,-4.2452,-4.267,-4.2862,-4.2976,-4.3068,-4.316,-4.3232,-2.6245,-2.5822,-2.537,-2.4967,-2.4446,-2.3961,-2.3774,-2.3764,-2.3754,-2.3711,-2.3701,-2.3754,-2.3711,-2.3754,-2.3711,-2.3787,-2.3874,-2.4241,-2.4456,-2.4541,-2.4541,-2.4541,-2.4551,-2.4584,-2.4551,-2.4573,-2.4095,-2.3846,-2.3753,-2.3018,-2.2642,-2.2621,-2.2293,-2.2201,-2.2375,-2.2365,-2.2515,-2.2628,-2.2703,-2.2815,-2.2953,-2.3001,-2.3001,-2.3001,-2.3075,-2.3409,-2.4116,-2.4152,-2.4261,-2.449,-2.467,-2.5134,-2.5912,-2.6176,-2.666,-2.7671,-2.8205,-2.8667,-2.9268,-2.9575,-2.996,-3.0266,-3.0368,-3.0583,-3.0973,-3.1334,-3.1542,-3.1666,-3.1909,-3.22,-3.2381,-3.2723,-3.3528,-3.488,-3.5875,-3.6387,-3.6722,-3.7044,-3.76,-3.8482,-3.8832,-3.9167,-3.9862,-4.025,-4.0389,-4.0681,-4.0919,-4.1122,-4.1256,-4.1571,-4.1882,-4.2061,-4.2142,-4.1898,-4.1274,-4.071,-4.0727,-4.0688,-4.0466,-4.0288,-4.0419,-4.0524,-4.0741,-4.1094,-4.1318,-4.1436,-4.1679,-4.1895,-4.2019,-4.2228,-4.2412,-4.2571,-4.265,-4.271,-4.2825,-2.6011,-2.5689,-2.5086,-2.4526,-2.3915,-2.3435,-2.3108,-2.2847,-2.2838,-2.2838,-2.2828,-2.2828,-2.2828,-2.2828,-2.2838,-2.2838,-2.2828,-2.3003,-2.3387,-2.3907,-2.4003,-2.4003,-2.4003,-2.3993,-2.3993,-2.3983,-2.3872,-2.3649,-2.3355,-2.3061,-2.2696,-2.2168,-2.1954,-2.1759,-2.1619,-2.1693,-2.1807,-2.1883,-2.2035,-2.2101,-2.2176,-2.2176,-2.2176,-2.2176,-2.2176,-2.2365,-2.2729,-2.3161,-2.3446,-2.3689,-2.4178,-2.4811,-2.5622,-2.6132,-2.6574,-2.7074,-2.7636,-2.8112,-2.8518,-2.891,-2.9184,-2.947,-2.9625,-2.9934,-3.0343,-3.0596,-3.0823,-3.0986,-3.131,-3.1629,-3.1813,-3.2032,-3.2763,-3.4155,-3.4775,-3.5347,-3.5884,-3.6441,-3.7125,-3.7783,-3.813,-3.8626,-3.9277,-3.9631,-3.9879,-4.0021,-4.0301,-4.0493,-4.0597,-4.0919,-4.1221,-4.1357,-4.1413,-4.1293,-4.0496,-3.9959,-3.9868,-3.9799,-3.9617,-3.9738,-3.9918,-4.0096,-4.0345,-4.059,-4.0806,-4.1065,-4.13,-4.1458,-4.1587,-4.1762,-4.1977,-4.2082,-4.2145,-4.2251,-4.2394,-2.5557,-2.5363,-2.4766,-2.4317,-2.3843,-2.3303,-2.286,-2.2605,-2.2454,-2.2353,-2.2309,-2.2264,-2.222,-2.2167,-2.2132,-2.2132,-2.2132,-2.2141,-2.2432,-2.3003,-2.3222,-2.3266,-2.3266,-2.3276,-2.3266,-2.3276,-2.3276,-2.3138,-2.2873,-2.2739,-2.2394,-2.1963,-2.1787,-2.153,-2.1223,-2.133,-2.1347,-2.1235,-2.13,-2.1377,-2.1377,-2.1415,-2.1454,-2.1454,-2.155,-2.1737,-2.1986,-2.2391,-2.281,-2.3351,-2.3963,-2.467,-2.5386,-2.582,-2.624,-2.6668,-2.714,-2.7592,-2.7846,-2.8115,-2.8395,-2.8593,-2.8831,-2.9157,-2.9521,-2.9793,-2.9985,-3.0216,-3.0583,-3.0936,-3.1123,-3.136,-3.1954,-3.2878,-3.3487,-3.41,-3.4839,-3.5453,-3.6092,-3.6743,-3.7324,-3.801,-3.8715,-3.9068,-3.9322,-3.9466,-3.9666,-3.99,-4.0021,-4.0266,-4.0509,-4.0715,-4.0873,-4.0452,-3.9629,-3.925,-3.9024,-3.8875,-3.8732,-3.9034,-3.9345,-3.954,-3.9773,-4.0096,-4.0345,-4.0614,-4.0843,-4.0907,-4.1041,-4.1272,-4.1498,-4.1591,-4.1679,-4.187,-4.2019,-2.4833,-2.4786,-2.4428,-2.4201,-2.4002,-2.327,-2.2895,-2.2781,-2.2481,-2.2178,-2.2017,-2.1954,-2.1865,-2.1696,-2.1651,-2.1597,-2.1651,-2.1562,-2.1553,-2.1776,-2.2033,-2.2255,-2.2441,-2.2432,-2.2432,-2.2441,-2.2397,-2.2378,-2.2347,-2.2072,-2.1878,-2.1897,-2.1623,-2.1361,-2.1136,-2.1149,-2.0964,-2.0732,-2.0644,-2.0644,-2.0644,-2.0819,-2.0897,-2.0956,-2.1162,-2.143,-2.1749,-2.1949,-2.2436,-2.3332,-2.4003,-2.4534,-2.4995,-2.5329,-2.5776,-2.6273,-2.6663,-2.6869,-2.7103,-2.7348,-2.7539,-2.773,-2.7995,-2.8327,-2.8724,-2.8949,-2.9157,-2.9392,-2.9793,-3.0152,-3.033,-3.052,-3.09,-3.1323,-3.2236,-3.2941,-3.3339,-3.4115,-3.4959,-3.5738,-3.6501,-3.7298,-3.8227,-3.8427,-3.8664,-3.8885,-3.9017,-3.9235,-3.9451,-3.9666,-3.99,-4.0045,-4.0174,-3.9677,-3.8859,-3.8447,-3.8216,-3.7925,-3.787,-3.8298,-3.8761,-3.9034,-3.9249,-3.9582,-3.9867,-4.0104,-4.032,-4.0419,-4.0541,-4.0782,-4.0954,-4.1117,-4.1255,-4.1391,-4.152,-2.4035,-2.3967,-2.3727,-2.3421,-2.3102,-2.285,-2.2427,-2.1996,-2.1861,-2.1626,-2.1338,-2.1275,-2.1221,-2.1177,-2.1006,-2.097,-2.0925,-2.0789,-2.0654,-2.0699,-2.0789,-2.1284,-2.1776,-2.1865,-2.1865,-2.1865,-2.1811,-2.1865,-2.1856,-2.1692,-2.1586,-2.1376,-2.1241,-2.1014,-2.0713,-2.0638,-2.055,-2.0475,-2.0367,-2.0316,-2.0356,-2.0556,-2.0686,-2.0715,-2.1024,-2.1308,-2.1605,-2.2053,-2.2669,-2.3382,-2.3752,-2.4168,-2.4619,-2.4903,-2.5219,-2.5537,-2.5748,-2.5957,-2.6249,-2.658,-2.6775,-2.6846,-2.7226,-2.7632,-2.8011,-2.8131,-2.8355,-2.8685,-2.9143,-2.9365,-2.947,-2.9767,-3.0152,-3.0672,-3.1498,-3.2381,-3.3111,-3.3642,-3.4311,-3.5513,-3.6029,-3.6694,-3.7372,-3.7725,-3.7901,-3.815,-3.8352,-3.8553,-3.8797,-3.9002,-3.9169,-3.917,-3.9138,-3.8704,-3.8196,-3.7768,-3.735,-3.7018,-3.7072,-3.7504,-3.8055,-3.8595,-3.8788,-3.9034,-3.9276,-3.9523,-3.9747,-3.9893,-4.0096,-4.0229,-4.0395,-4.0549,-4.0669,-4.0789,-4.0931,-2.3587,-2.3546,-2.3288,-2.3006,-2.2737,-2.249,-2.2118,-2.17,-2.1398,-2.1061,-2.0781,-2.0607,-2.051,-2.0428,-2.03,-2.0255,-2.0209,-2.0073,-2.0036,-1.9982,-2.0027,-2.0428,-2.097,-2.1105,-2.1105,-2.1105,-2.1105,-2.1105,-2.1105,-2.1105,-2.0962,-2.0811,-2.0748,-2.0587,-2.0273,-2.0247,-2.02,-2.0123,-2.0074,-2.0048,-2.0048,-2.0255,-2.0379,-2.0448,-2.0722,-2.0997,-2.1339,-2.1854,-2.2437,-2.3013,-2.3432,-2.3793,-2.4092,-2.4433,-2.4658,-2.4775,-2.4978,-2.5189,-2.5454,-2.579,-2.5988,-2.6155,-2.6528,-2.6876,-2.7203,-2.7325,-2.7603,-2.7926,-2.8327,-2.8514,-2.8673,-2.9094,-2.966,-3.0185,-3.0868,-3.1736,-3.2697,-3.346,-3.4194,-3.5055,-3.5648,-3.6117,-3.678,-3.695,-3.7197,-3.7481,-3.7711,-3.7915,-3.8104,-3.8263,-3.8457,-3.8473,-3.8279,-3.7877,-3.746,-3.6997,-3.6597,-3.6221,-3.6321,-3.6753,-3.7385,-3.7985,-3.8242,-3.8439,-3.8706,-3.8925,-3.9158,-3.9345,-3.9461,-3.9601,-3.9816,-3.9969,-4.0104,-4.0204,-4.0328,-2.3197,-2.3197,-2.2887,-2.2778,-2.2659,-2.2134,-2.1807,-2.1637,-2.112,-2.0622,-2.025,-1.9983,-1.9775,-1.9496,-1.9525,-1.9487,-1.9487,-1.9396,-1.9396,-1.9396,-1.9396,-1.9617,-1.992,-2.0192,-2.0246,-2.0246,-2.0201,-2.0246,-2.03,-2.03,-2.0255,-2.024,-2.0249,-2.0157,-1.9971,-1.9963,-1.9869,-1.9808,-1.9754,-1.9736,-1.9778,-1.9949,-2.0077,-2.0137,-2.0339,-2.0639,-2.1007,-2.144,-2.1831,-2.2341,-2.2993,-2.328,-2.3416,-2.3807,-2.4024,-2.4067,-2.4251,-2.4509,-2.4733,-2.4946,-2.5158,-2.5369,-2.5779,-2.6155,-2.6362,-2.6569,-2.6828,-2.7103,-2.7447,-2.7689,-2.7891,-2.8462,-2.9074,-2.964,-3.0146,-3.0936,-3.1928,-3.3212,-3.418,-3.446,-3.513,-3.5669,-3.6044,-3.6229,-3.6362,-3.6691,-3.6925,-3.712,-3.7366,-3.7529,-3.7758,-3.7933,-3.7607,-3.7127,-3.6676,-3.6232,-3.5867,-3.5534,-3.5701,-3.6054,-3.6723,-3.7266,-3.7592,-3.787,-3.8071,-3.8298,-3.8583,-3.8733,-3.8827,-3.8963,-3.9169,-3.9355,-3.954,-3.9618,-3.9722,-2.208,-2.203,-2.1979,-2.1979,-2.1912,-2.1786,-2.1445,-2.1032,-2.0868,-2.0273,-1.9677,-1.9469,-1.9284,-1.899,-1.8859,-1.8735,-1.8735,-1.855,-1.8411,-1.8419,-1.8419,-1.8458,-1.8727,-1.9142,-1.9517,-1.9617,-1.9525,-1.9571,-1.9671,-1.9671,-1.9762,-1.9716,-1.9662,-1.9729,-1.9637,-1.9632,-1.9666,-1.9622,-1.9495,-1.9423,-1.9423,-1.9651,-1.9791,-1.9808,-2.0121,-2.0446,-2.0721,-2.0881,-2.1051,-2.1408,-2.1978,-2.2397,-2.2662,-2.2925,-2.3101,-2.3232,-2.3493,-2.3744,-2.3831,-2.4186,-2.4454,-2.4529,-2.4946,-2.5285,-2.5443,-2.5695,-2.5988,-2.631,-2.664,-2.6887,-2.7255,-2.7782,-2.8343,-2.8916,-2.9677,-3.0479,-3.1348,-3.2466,-3.3403,-3.4001,-3.4446,-3.4853,-3.5263,-3.5332,-3.5535,-3.5911,-3.6137,-3.6336,-3.6559,-3.6794,-3.7003,-3.7236,-3.6783,-3.6284,-3.587,-3.5421,-3.5035,-3.4861,-3.5049,-3.5282,-3.5928,-3.6477,-3.6814,-3.7117,-3.7401,-3.7666,-3.7931,-3.8059,-3.8157,-3.8327,-3.8511,-3.8706,-3.8898,-3.898,-3.9158,-2.1318,-2.1318,-2.1181,-2.1121,-2.1121,-2.1003,-2.0798,-2.0463,-2.0298,-1.9946,-1.9486,-1.9307,-1.9018,-1.8715,-1.8457,-1.8309,-1.8109,-1.7846,-1.7753,-1.7753,-1.7753,-1.7753,-1.7714,-1.8032,-1.8365,-1.8789,-1.8735,-1.8781,-1.8881,-1.8928,-1.8881,-1.8881,-1.8936,-1.8974,-1.9058,-1.9066,-1.9096,-1.9163,-1.9117,-1.9077,-1.9085,-1.9183,-1.9364,-1.947,-1.979,-2.0073,-2.0155,-2.0164,-2.0292,-2.051,-2.0871,-2.1374,-2.1874,-2.2132,-2.2309,-2.2495,-2.2671,-2.2979,-2.3188,-2.3406,-2.3634,-2.3851,-2.4186,-2.4476,-2.469,-2.4893,-2.5189,-2.5527,-2.5821,-2.6071,-2.6561,-2.7224,-2.7759,-2.8368,-2.9188,-3.0036,-3.0767,-3.1853,-3.2849,-3.3365,-3.3615,-3.3979,-3.4272,-3.4397,-3.4688,-3.5005,-3.5467,-3.5656,-3.579,-3.5977,-3.6217,-3.6235,-3.5816,-3.5405,-3.5034,-3.4625,-3.4215,-3.4176,-3.4332,-3.4587,-3.5004,-3.5544,-3.6008,-3.6352,-3.6738,-3.6983,-3.7224,-3.7358,-3.749,-3.7666,-3.7841,-3.8059,-3.823,-3.8355,-3.8539,-2.0719,-2.0668,-2.0411,-2.0308,-2.0264,-2.0086,-1.9968,-1.987,-1.9592,-1.9391,-1.93,-1.9037,-1.8637,-1.8431,-1.8104,-1.783,-1.7554,-1.734,-1.7192,-1.7239,-1.7192,-1.7192,-1.7192,-1.72,-1.734,-1.7846,-1.79,-1.7947,-1.7994,-1.7986,-1.8079,-1.7994,-1.7994,-1.8133,-1.8265,-1.8404,-1.8458,-1.8589,-1.8657,-1.868,-1.8688,-1.8696,-1.8826,-1.8972,-1.9171,-1.9342,-1.9387,-1.9442,-1.9533,-1.97,-1.9799,-2.0255,-2.0843,-2.1428,-2.1642,-2.1874,-2.1963,-2.2185,-2.2441,-2.2627,-2.2838,-2.3285,-2.345,-2.3711,-2.3927,-2.4176,-2.4466,-2.4722,-2.4978,-2.5359,-2.5847,-2.6512,-2.7277,-2.793,-2.8744,-2.9397,-3.0112,-3.1226,-3.1833,-3.2382,-3.2655,-3.3031,-3.333,-3.3543,-3.3797,-3.4134,-3.4564,-3.4895,-3.4977,-3.5195,-3.5386,-3.5426,-3.5095,-3.4582,-3.4205,-3.3683,-3.3297,-3.3444,-3.3632,-3.3874,-3.4147,-3.4606,-3.5139,-3.5688,-3.6038,-3.6305,-3.6523,-3.6662,-3.6815,-3.6997,-3.7178,-3.7417,-3.7578,-3.7725,-3.7943,-1.9783,-1.9583,-1.9532,-1.948,-1.9487,-1.9428,-1.9257,-1.9034,-1.8969,-1.8656,-1.8295,-1.8216,-1.8024,-1.769,-1.7336,-1.7081,-1.6836,-1.6657,-1.6683,-1.6629,-1.6629,-1.6629,-1.6629,-1.6588,-1.6683,-1.6871,-1.7012,-1.72,-1.7426,-1.7419,-1.7419,-1.7426,-1.7426,-1.752,-1.7567,-1.7714,-1.7807,-1.79,-1.804,-1.8125,-1.8133,-1.8179,-1.8172,-1.8311,-1.8365,-1.8496,-1.8681,-1.8681,-1.8781,-1.8958,-1.9188,-1.9417,-1.9737,-2.0374,-2.0781,-2.1015,-2.1248,-2.1472,-2.1651,-2.1785,-2.2008,-2.2264,-2.252,-2.2794,-2.3057,-2.3416,-2.3711,-2.4013,-2.4389,-2.4868,-2.5526,-2.5988,-2.6669,-2.7464,-2.8025,-2.8528,-2.9168,-2.9749,-3.0431,-3.1026,-3.1516,-3.2045,-3.2382,-3.2643,-3.2859,-3.3202,-3.367,-3.3924,-3.4008,-3.4259,-3.4564,-3.4546,-3.4391,-3.3893,-3.3346,-3.2808,-3.2403,-3.2704,-3.2917,-3.3094,-3.3374,-3.3736,-3.4235,-3.4691,-3.5187,-3.5544,-3.5769,-3.5943,-3.6085,-3.6227,-3.6476,-3.6739,-3.6937,-3.7103,-3.7252,-1.8952,-1.8848,-1.8848,-1.8743,-1.8653,-1.8593,-1.8482,-1.8206,-1.8146,-1.8025,-1.7877,-1.7777,-1.762,-1.7259,-1.6958,-1.6543,-1.6126,-1.5885,-1.5852,-1.5838,-1.5838,-1.5832,-1.5879,-1.5879,-1.5832,-1.5832,-1.5981,-1.6407,-1.6864,-1.6958,-1.6904,-1.6958,-1.6958,-1.6958,-1.6958,-1.7059,-1.7106,-1.7145,-1.7239,-1.7333,-1.734,-1.7441,-1.7535,-1.7527,-1.766,-1.7846,-1.8032,-1.8087,-1.8226,-1.8411,-1.855,-1.8643,-1.8819,-1.9188,-1.9783,-2.0192,-2.0473,-2.0708,-2.0843,-2.106,-2.1284,-2.1499,-2.1731,-2.1954,-2.222,-2.2574,-2.2935,-2.3325,-2.3795,-2.4277,-2.472,-2.5416,-2.6159,-2.6798,-2.7313,-2.7778,-2.8204,-2.8538,-2.9059,-2.9669,-3.034,-3.097,-3.1472,-3.1737,-3.1913,-3.2251,-3.2742,-3.2902,-3.2988,-3.333,-3.367,-3.365,-3.3548,-3.3158,-3.2615,-3.2093,-3.1706,-3.1946,-3.2164,-3.2345,-3.2596,-3.2917,-3.3199,-3.352,-3.4056,-3.4629,-3.5004,-3.5184,-3.5314,-3.5444,-3.572,-3.5991,-3.629,-3.6507,-3.6631,-1.8108,-1.8055,-1.8048,-1.795,-1.7747,-1.7747,-1.7641,-1.7424,-1.7417,-1.7417,-1.7424,-1.7404,-1.7285,-1.6996,-1.669,-1.624,-1.5579,-1.5392,-1.5364,-1.5287,-1.5335,-1.5207,-1.5137,-1.5131,-1.5178,-1.5267,-1.5274,-1.5506,-1.6069,-1.6211,-1.6305,-1.6258,-1.6258,-1.6305,-1.6258,-1.6298,-1.6346,-1.6393,-1.644,-1.644,-1.6494,-1.669,-1.6831,-1.6871,-1.7059,-1.7286,-1.7434,-1.7434,-1.7527,-1.7714,-1.7807,-1.7854,-1.7893,-1.8125,-1.8635,-1.9333,-1.9563,-1.9791,-2.0065,-2.0238,-2.0464,-2.0736,-2.0979,-2.1203,-2.1517,-2.1839,-2.2178,-2.2691,-2.3159,-2.3751,-2.4297,-2.502,-2.5651,-2.6118,-2.6598,-2.703,-2.7326,-2.762,-2.7857,-2.8502,-2.9198,-2.984,-3.0385,-3.0713,-3.0836,-3.1294,-3.1769,-3.1945,-3.212,-3.2469,-3.2766,-3.2737,-3.2626,-3.236,-3.195,-3.1474,-3.1198,-3.1259,-3.1357,-3.1505,-3.1763,-3.2055,-3.2331,-3.2569,-3.3009,-3.3555,-3.3962,-3.4399,-3.4587,-3.4787,-3.5004,-3.5252,-3.5497,-3.5705,-3.5847,-1.7166,-1.6889,-1.6942,-1.6889,-1.6895,-1.6836,-1.6842,-1.6783,-1.6783,-1.6783,-1.673,-1.6789,-1.6764,-1.6615,-1.6399,-1.6094,-1.5865,-1.5607,-1.5413,-1.5213,-1.5243,-1.5143,-1.5092,-1.5131,-1.4984,-1.4929,-1.4952,-1.5131,-1.5315,-1.5315,-1.5369,-1.541,-1.5458,-1.5315,-1.5506,-1.5642,-1.5534,-1.5581,-1.5778,-1.5879,-1.5927,-1.615,-1.6244,-1.6339,-1.6487,-1.6629,-1.673,-1.6723,-1.6777,-1.6817,-1.7019,-1.712,-1.716,-1.7333,-1.7574,-1.804,-1.8504,-1.905,-1.9288,-1.9417,-1.96,-1.992,-2.0119,-2.0337,-2.0807,-2.1221,-2.1699,-2.2336,-2.2675,-2.3204,-2.3956,-2.4535,-2.5111,-2.5439,-2.5809,-2.6187,-2.6486,-2.6678,-2.6907,-2.7241,-2.793,-2.8642,-2.929,-2.9577,-2.9863,-3.0306,-3.0713,-3.0937,-3.1205,-3.1548,-3.1945,-3.1993,-3.1798,-3.1501,-3.127,-3.0788,-3.0571,-3.0547,-3.0545,-3.0659,-3.0947,-3.1196,-3.1431,-3.175,-3.2114,-3.2525,-3.3023,-3.3409,-3.377,-3.4079,-3.4254,-3.4476,-3.471,-3.489,-3.5118,-1.5939,-1.6258,-1.6258,-1.6152,-1.6039,-1.6033,-1.5879,-1.5779,-1.5725,-1.5725,-1.5725,-1.5725,-1.5725,-1.5725,-1.5456,-1.5283,-1.5152,-1.5026,-1.4889,-1.4843,-1.4757,-1.4704,-1.4552,-1.4465,-1.4436,-1.44,-1.4298,-1.4124,-1.4316,-1.4808,-1.5083,-1.5083,-1.5083,-1.5178,-1.4987,-1.5172,-1.5213,-1.5261,-1.5356,-1.541,-1.5404,-1.5499,-1.5547,-1.5547,-1.5689,-1.5825,-1.5913,-1.5913,-1.6015,-1.6157,-1.64,-1.6534,-1.6629,-1.677,-1.7005,-1.7059,-1.7333,-1.7846,-1.845,-1.8681,-1.8912,-1.9142,-1.9379,-1.9745,-2.019,-2.0617,-2.1094,-2.1611,-2.2167,-2.2838,-2.3492,-2.3925,-2.4305,-2.466,-2.4903,-2.5206,-2.5518,-2.5771,-2.5965,-2.6294,-2.662,-2.7326,-2.7987,-2.8466,-2.8839,-2.929,-2.9749,-3.0023,-3.025,-3.0566,-3.097,-3.1403,-3.1037,-3.0681,-3.0445,-3.009,-2.9803,-2.9696,-2.9664,-2.9806,-3.0101,-3.0355,-3.0558,-3.0759,-3.106,-3.1492,-3.2005,-3.2596,-3.3129,-3.3339,-3.3479,-3.3707,-3.3934,-3.4153,-3.437,-1.4654,-1.5244,-1.5405,-1.5351,-1.5185,-1.5185,-1.503,-1.4821,-1.4815,-1.4821,-1.4821,-1.4821,-1.4821,-1.4793,-1.4652,-1.4562,-1.4534,-1.429,-1.4172,-1.4133,-1.4105,-1.4066,-1.3999,-1.3864,-1.3802,-1.3752,-1.3678,-1.3599,-1.38,-1.4121,-1.4497,-1.47,-1.455,-1.4598,-1.4652,-1.4598,-1.4598,-1.4598,-1.4598,-1.4646,-1.4646,-1.4742,-1.4783,-1.4831,-1.4879,-1.5029,-1.5207,-1.5248,-1.535,-1.5642,-1.5784,-1.592,-1.592,-1.6021,-1.6204,-1.6251,-1.6386,-1.6716,-1.7419,-1.7839,-1.8125,-1.8404,-1.8743,-1.919,-1.9605,-2.0005,-2.0493,-2.1135,-2.1712,-2.231,-2.2783,-2.3169,-2.3498,-2.375,-2.3976,-2.4273,-2.4529,-2.4775,-2.503,-2.5411,-2.5703,-2.5955,-2.662,-2.7241,-2.7762,-2.8258,-2.8678,-2.9106,-2.9382,-2.9658,-3.0023,-3.0476,-3.0368,-3.0024,-2.9824,-2.9564,-2.921,-2.8915,-2.8894,-2.8986,-2.93,-2.947,-2.9651,-2.9819,-3.005,-3.0381,-3.0846,-3.1663,-3.2453,-3.2561,-3.2704,-3.2952,-3.3164,-3.3374,-3.3667,-1.3418,-1.3527,-1.4062,-1.4277,-1.4331,-1.4277,-1.4272,-1.4277,-1.4223,-1.4223,-1.4223,-1.4223,-1.4223,-1.4266,-1.4196,-1.4169,-1.418,-1.4175,-1.4013,-1.3888,-1.3834,-1.3696,-1.3588,-1.3502,-1.3443,-1.3437,-1.3335,-1.3335,-1.3346,-1.3336,-1.3516,-1.3574,-1.3767,-1.3696,-1.3684,-1.3781,-1.3781,-1.3732,-1.3732,-1.3732,-1.3775,-1.3865,-1.4004,-1.4052,-1.4244,-1.449,-1.4742,-1.4688,-1.4783,-1.5035,-1.5124,-1.5166,-1.5166,-1.5315,-1.5452,-1.5606,-1.5708,-1.6007,-1.6517,-1.7015,-1.7355,-1.7768,-1.821,-1.8684,-1.9091,-1.9517,-2.007,-2.072,-2.1263,-2.1711,-2.2105,-2.2409,-2.2677,-2.2878,-2.3079,-2.3329,-2.3578,-2.3777,-2.4075,-2.448,-2.4775,-2.502,-2.5265,-2.5887,-2.6764,-2.7315,-2.7835,-2.8258,-2.8549,-2.8828,-2.9106,-2.9428,-2.9577,-2.9444,-2.9358,-2.9072,-2.8715,-2.8467,-2.8304,-2.8388,-2.8555,-2.869,-2.8724,-2.8988,-2.9211,-2.9445,-2.9793,-3.0582,-3.127,-3.1653,-3.1909,-3.22,-3.2453,-3.2668,-3.2988,-1.2495,-1.2495,-1.2599,-1.298,-1.3635,-1.364,-1.3635,-1.3635,-1.3635,-1.3635,-1.3635,-1.3635,-1.3635,-1.3635,-1.3635,-1.3635,-1.3635,-1.364,-1.3567,-1.3536,-1.3485,-1.3395,-1.3297,-1.3173,-1.3158,-1.308,-1.2993,-1.29,-1.2869,-1.2756,-1.2806,-1.2952,-1.2986,-1.3083,-1.3055,-1.3105,-1.3088,-1.3077,-1.3072,-1.3061,-1.3098,-1.3292,-1.3383,-1.3431,-1.3673,-1.3823,-1.3973,-1.3973,-1.4022,-1.4178,-1.4328,-1.4394,-1.4503,-1.4695,-1.495,-1.5154,-1.527,-1.5583,-1.5914,-1.6354,-1.6815,-1.7438,-1.7856,-1.826,-1.8645,-1.9146,-1.9649,-2.0219,-2.0641,-2.1028,-2.1312,-2.1564,-2.1818,-2.1971,-2.2173,-2.2476,-2.2677,-2.2828,-2.3129,-2.3529,-2.3777,-2.3976,-2.4273,-2.4569,-2.5499,-2.6332,-2.6897,-2.7421,-2.7704,-2.794,-2.8222,-2.8513,-2.8653,-2.8696,-2.8587,-2.8433,-2.8209,-2.8021,-2.7778,-2.7888,-2.794,-2.7743,-2.7794,-2.8075,-2.8355,-2.8581,-2.8937,-2.9574,-3.0152,-3.0684,-3.1147,-3.1519,-3.174,-3.1996,-3.2286,-1.1673,-1.1568,-1.1404,-1.1896,-1.2767,-1.2772,-1.2767,-1.2827,-1.2772,-1.2772,-1.2767,-1.2827,-1.2827,-1.2772,-1.2772,-1.2772,-1.2713,-1.2767,-1.2767,-1.2753,-1.2698,-1.2772,-1.2768,-1.2636,-1.2481,-1.2549,-1.2418,-1.2288,-1.2255,-1.2211,-1.2163,-1.2206,-1.2244,-1.2293,-1.2754,-1.2727,-1.2722,-1.2722,-1.2727,-1.2727,-1.2787,-1.2892,-1.2946,-1.3007,-1.3166,-1.327,-1.338,-1.3441,-1.3474,-1.3616,-1.3753,-1.3872,-1.4056,-1.4264,-1.4587,-1.4838,-1.4985,-1.522,-1.5526,-1.6025,-1.6477,-1.7086,-1.738,-1.7839,-1.8332,-1.8758,-1.9157,-1.9555,-1.992,-2.0256,-2.0514,-2.0704,-2.096,-2.1121,-2.1326,-2.1581,-2.1776,-2.1979,-2.2274,-2.2577,-2.2828,-2.307,-2.3429,-2.3777,-2.4569,-2.5401,-2.5994,-2.6418,-2.6696,-2.6945,-2.7241,-2.7478,-2.7762,-2.776,-2.7803,-2.757,-2.7459,-2.7588,-2.7382,-2.7388,-2.7346,-2.7155,-2.7167,-2.7577,-2.7778,-2.7754,-2.8075,-2.8621,-2.9223,-2.987,-3.033,-3.0861,-3.1048,-3.1296,-3.1629,-1.0966,-1.0747,-1.0747,-1.1076,-1.1623,-1.1623,-1.1678,-1.1732,-1.1728,-1.1732,-1.1732,-1.1732,-1.1678,-1.1678,-1.1732,-1.1787,-1.1728,-1.1728,-1.1728,-1.1787,-1.1787,-1.1732,-1.1728,-1.1697,-1.1824,-1.166,-1.176,-1.1774,-1.1715,-1.167,-1.1554,-1.1451,-1.1551,-1.1662,-1.2515,-1.2566,-1.2566,-1.2561,-1.248,-1.2459,-1.2439,-1.2424,-1.247,-1.2516,-1.2562,-1.2699,-1.2903,-1.2953,-1.3049,-1.3263,-1.3476,-1.3577,-1.369,-1.3948,-1.414,-1.4202,-1.4265,-1.4434,-1.47,-1.5639,-1.6255,-1.672,-1.6978,-1.7346,-1.7853,-1.8228,-1.8518,-1.886,-1.9138,-1.9428,-1.9635,-1.9783,-2.0094,-2.0308,-2.0506,-2.0719,-2.0968,-2.1165,-2.1412,-2.1674,-2.192,-2.2224,-2.2577,-2.3029,-2.3728,-2.448,-2.503,-2.5421,-2.5693,-2.5984,-2.6284,-2.6524,-2.6764,-2.6931,-2.6925,-2.6755,-2.6687,-2.6883,-2.6977,-2.6913,-2.6877,-2.6759,-2.6875,-2.7128,-2.7164,-2.7166,-2.7332,-2.758,-2.8183,-2.8831,-2.9689,-3.019,-3.0381,-3.0634,-3.0923,-1.0202,-1.0091,-1.0091,-1.0257,-1.0472,-1.0857,-1.1021,-1.1021,-1.1021,-1.1021,-1.1021,-1.1021,-1.1021,-1.1021,-1.0966,-1.1021,-1.1021,-1.1021,-1.1021,-1.1017,-1.1021,-1.1021,-1.1021,-1.1131,-1.124,-1.135,-1.1459,-1.1514,-1.1605,-1.1368,-1.1422,-1.1436,-1.1192,-1.1385,-1.1472,-1.145,-1.1446,-1.1446,-1.1441,-1.1446,-1.1511,-1.1671,-1.178,-1.1841,-1.1949,-1.2166,-1.2435,-1.2496,-1.26,-1.2807,-1.3019,-1.3008,-1.3106,-1.3302,-1.351,-1.3647,-1.38,-1.4148,-1.4558,-1.5188,-1.5732,-1.6194,-1.6626,-1.6905,-1.7428,-1.7553,-1.783,-1.8126,-1.8325,-1.8586,-1.8788,-1.9042,-1.925,-1.9413,-1.962,-1.9939,-2.0145,-2.0344,-2.0593,-2.0814,-2.107,-2.1369,-2.1725,-2.208,-2.2728,-2.3229,-2.3728,-2.4332,-2.4667,-2.5069,-2.5372,-2.5557,-2.58,-2.6032,-2.6088,-2.5899,-2.6087,-2.6415,-2.6408,-2.6346,-2.6281,-2.6277,-2.6432,-2.6603,-2.6584,-2.6596,-2.6858,-2.7095,-2.7224,-2.7782,-2.8747,-2.9372,-2.9509,-2.9806,-3.0216,-0.9261,-0.9206,-0.9151,-0.9206,-0.9316,-1.0033,-1.0363,-1.0363,-1.0363,-1.0421,-1.0417,-1.0417,-1.0363,-1.0417,-1.0417,-1.0363,-1.0366,-1.0417,-1.0363,-1.0363,-1.0363,-1.0363,-1.0472,-1.0582,-1.0582,-1.0747,-1.0857,-1.0911,-1.0857,-1.0907,-1.0899,-1.084,-1.0962,-1.0716,-1.0728,-1.0903,-1.127,-1.1336,-1.1345,-1.1336,-1.1327,-1.1371,-1.1468,-1.1525,-1.1636,-1.179,-1.1934,-1.203,-1.2078,-1.2231,-1.2336,-1.2393,-1.2498,-1.2733,-1.3004,-1.3265,-1.3481,-1.3816,-1.4218,-1.4358,-1.4887,-1.5387,-1.5966,-1.6458,-1.6749,-1.6876,-1.7147,-1.7371,-1.7536,-1.7747,-1.795,-1.8258,-1.8363,-1.852,-1.8788,-1.9108,-1.9309,-1.9509,-1.9665,-1.9879,-2.0256,-2.0557,-2.0865,-2.1173,-2.1623,-2.203,-2.2426,-2.2979,-2.3578,-2.4026,-2.4381,-2.4578,-2.4775,-2.5011,-2.5109,-2.51,-2.5334,-2.5849,-2.5825,-2.5652,-2.5836,-2.5868,-2.5982,-2.6061,-2.5969,-2.6028,-2.6442,-2.6692,-2.6858,-2.7268,-2.8041,-2.8462,-2.8622,-2.9062,-2.9528,-0.8318,-0.7989,-0.7992,-0.8045,-0.8211,-0.9261,-0.9702,-0.9706,-0.9702,-0.9702,-0.9702,-0.9651,-0.9651,-0.9706,-0.9702,-0.9702,-0.9761,-0.9761,-0.9761,-0.9761,-0.9761,-0.9761,-0.9816,-0.9871,-0.9981,-0.9871,-0.9981,-1.0202,-0.9926,-1.0091,-1.0091,-0.9981,-1.0091,-1.0042,-1.0288,-1.0653,-1.1088,-1.1016,-1.1071,-1.1008,-1.1004,-1.1213,-1.1138,-1.1188,-1.13,-1.1413,-1.1521,-1.1584,-1.1656,-1.1778,-1.1851,-1.1973,-1.215,-1.254,-1.2767,-1.2925,-1.3073,-1.3354,-1.3576,-1.3635,-1.39,-1.4426,-1.4942,-1.5565,-1.5998,-1.6158,-1.6371,-1.6577,-1.6677,-1.6955,-1.7166,-1.7325,-1.7483,-1.7694,-1.7957,-1.8167,-1.837,-1.8579,-1.8781,-1.9042,-1.9465,-1.9776,-2.0138,-2.0447,-2.0601,-2.0814,-2.1216,-2.1666,-2.2266,-2.297,-2.3329,-2.3578,-2.3777,-2.3985,-2.4075,-2.4125,-2.4372,-2.4824,-2.4971,-2.4888,-2.516,-2.5352,-2.548,-2.5441,-2.5328,-2.5493,-2.6055,-2.6351,-2.6489,-2.7009,-2.7432,-2.7895,-2.8115,-2.8549,-2.8931,-0.81,-0.7992,-0.7992,-0.7992,-0.8045,-0.8377,-0.8543,-0.854,-0.8543,-0.8543,-0.8543,-0.8488,-0.8654,-0.8543,-0.8761,-0.8871,-0.8985,-0.904,-0.9158,-0.9158,-0.9158,-0.9154,-0.921,-0.9323,-0.9434,-0.9541,-0.9651,-0.9651,-0.9761,-0.9761,-0.9761,-0.9816,-0.9706,-0.9706,-0.9871,-1.0143,-1.0308,-1.0417,-1.0472,-1.0527,-1.0472,-1.0472,-1.0472,-1.0527,-1.0692,-1.0802,-1.0911,-1.1131,-1.124,-1.1514,-1.1623,-1.1678,-1.1732,-1.1896,-1.2005,-1.2005,-1.2219,-1.2495,-1.2767,-1.2989,-1.3207,-1.3418,-1.3851,-1.4331,-1.4869,-1.5244,-1.5458,-1.5719,-1.5879,-1.6099,-1.6371,-1.653,-1.669,-1.6955,-1.7166,-1.7378,-1.7529,-1.774,-1.7943,-1.8318,-1.8736,-1.8997,-1.9309,-1.9517,-1.962,-1.9783,-2.0042,-2.0447,-2.1003,-2.1709,-2.2274,-2.2568,-2.2719,-2.2929,-2.3088,-2.3129,-2.3379,-2.3687,-2.3886,-2.4084,-2.4347,-2.4566,-2.48,-2.4929,-2.4926,-2.527,-2.5827,-2.6013,-2.6038,-2.6184,-2.6598,-2.7184,-2.7702,-2.8045,-2.85,-0.7329,-0.7324,-0.7326,-0.7326,-0.7326,-0.7326,-0.7326,-0.7379,-0.7768,-0.7992,-0.7992,-0.8048,-0.7992,-0.8045,-0.8263,-0.8322,-0.8377,-0.8488,-0.8546,-0.8546,-0.8602,-0.8546,-0.8657,-0.8768,-0.8768,-0.8933,-0.8989,-0.8933,-0.9151,-0.9261,-0.9265,-0.9261,-0.9372,-0.943,-0.9434,-0.9489,-0.9485,-0.9596,-0.9647,-0.9761,-0.9761,-0.9761,-0.9816,-0.9816,-1.0036,-1.0202,-1.0308,-1.0582,-1.0747,-1.0857,-1.0857,-1.0966,-1.1076,-1.124,-1.1568,-1.1623,-1.1787,-1.1951,-1.211,-1.2278,-1.2441,-1.2609,-1.2772,-1.3147,-1.363,-1.4116,-1.4654,-1.503,-1.5137,-1.5298,-1.5565,-1.5838,-1.5992,-1.6205,-1.6365,-1.653,-1.6743,-1.6955,-1.7272,-1.7648,-1.7905,-1.816,-1.837,-1.8527,-1.8691,-1.8795,-1.8952,-1.9257,-1.9923,-2.0696,-2.1259,-2.1666,-2.1768,-2.1869,-2.1971,-2.2131,-2.2384,-2.2636,-2.2887,-2.3129,-2.3429,-2.371,-2.3903,-2.4291,-2.4646,-2.4967,-2.5292,-2.5413,-2.5493,-2.5714,-2.608,-2.6683,-2.7194,-2.7525,-2.8026,-0.6216,-0.6272,-0.6216,-0.6272,-0.6216,-0.6272,-0.6272,-0.6328,-0.7268,-0.7765,-0.7768,-0.7826,-0.7715,-0.7601,-0.7712,-0.7878,-0.7934,-0.7989,-0.81,-0.7986,-0.8156,-0.8156,-0.8103,-0.8048,-0.8269,-0.8103,-0.8103,-0.838,-0.8211,-0.8432,-0.8595,-0.8484,-0.8712,-0.8826,-0.8826,-0.8826,-0.8826,-0.8878,-0.9154,-0.943,-0.9596,-0.9706,-0.9761,-0.9706,-0.9761,-0.9816,-0.9816,-0.9816,-0.9816,-0.9812,-0.9868,-1.0088,-1.0363,-1.0692,-1.1076,-1.1185,-1.124,-1.1345,-1.1455,-1.1564,-1.1673,-1.1787,-1.1841,-1.2169,-1.2713,-1.3364,-1.3954,-1.4283,-1.4385,-1.4546,-1.4767,-1.4928,-1.5083,-1.5298,-1.5512,-1.5672,-1.5832,-1.6099,-1.6471,-1.6796,-1.7008,-1.7265,-1.7424,-1.7641,-1.774,-1.7852,-1.8069,-1.8265,-1.8684,-1.9517,-2.0086,-2.055,-2.0704,-2.0806,-2.096,-2.1165,-2.1369,-2.1623,-2.1878,-2.208,-2.2325,-2.2677,-2.3029,-2.3425,-2.3867,-2.4258,-2.4545,-2.4695,-2.4929,-2.5439,-2.5823,-2.6318,-2.6675,-2.695,-2.7592,-0.5652,-0.5594,-0.5594,-0.5594,-0.5596,-0.5594,-0.5596,-0.5652,-0.5873,-0.632,-0.6659,-0.6715,-0.6771,-0.6826,-0.6993,-0.7157,-0.7379,-0.7493,-0.7771,-0.7823,-0.7878,-0.7771,-0.7937,-0.7771,-0.7881,-0.7992,-0.7992,-0.7881,-0.7881,-0.7989,-0.8097,-0.81,-0.8269,-0.8325,-0.8325,-0.8325,-0.8325,-0.838,-0.8491,-0.8823,-0.9099,-0.9103,-0.9103,-0.9213,-0.9265,-0.9485,-0.9541,-0.9651,-0.9761,-0.9816,-0.9816,-0.9871,-0.9923,-1.0088,-1.0143,-1.0198,-1.0363,-1.0582,-1.0798,-1.0962,-1.1072,-1.1404,-1.1568,-1.1678,-1.206,-1.2713,-1.3147,-1.3423,-1.364,-1.3802,-1.3964,-1.4072,-1.4175,-1.4439,-1.4702,-1.4815,-1.4922,-1.5298,-1.5666,-1.5885,-1.6105,-1.6318,-1.653,-1.6636,-1.6789,-1.7008,-1.7279,-1.749,-1.7589,-1.8108,-1.8736,-1.9198,-1.9576,-1.9732,-1.9939,-2.0189,-2.0439,-2.0712,-2.096,-2.1113,-2.1267,-2.1725,-2.2173,-2.2627,-2.3061,-2.3379,-2.3678,-2.384,-2.4227,-2.4815,-2.5109,-2.5401,-2.5752,-2.5982,-2.691,-0.4981,-0.4981,-0.4979,-0.5037,-0.4981,-0.4981,-0.4981,-0.4981,-0.4981,-0.5206,-0.5543,-0.588,-0.6047,-0.6105,-0.6381,-0.655,-0.6771,-0.694,-0.6996,-0.716,-0.7268,-0.7215,-0.7271,-0.7326,-0.716,-0.7215,-0.7218,-0.7218,-0.7326,-0.7546,-0.7657,-0.7657,-0.7768,-0.7937,-0.7937,-0.7989,-0.7937,-0.7992,-0.7937,-0.8159,-0.8546,-0.8602,-0.8712,-0.8823,-0.8989,-0.9154,-0.9213,-0.932,-0.9375,-0.9489,-0.9489,-0.9596,-0.9651,-0.9816,-0.9816,-0.9871,-0.9926,-0.9926,-1.0198,-1.0363,-1.0468,-1.0802,-1.0857,-1.0747,-1.1185,-1.1787,-1.2169,-1.2441,-1.2659,-1.2822,-1.3256,-1.3418,-1.3586,-1.3797,-1.3905,-1.4013,-1.4175,-1.4444,-1.4708,-1.497,-1.5137,-1.5351,-1.5512,-1.5678,-1.5832,-1.6099,-1.6424,-1.6583,-1.669,-1.6802,-1.7371,-1.7845,-1.8265,-1.8639,-1.8848,-1.9198,-1.9554,-1.9768,-1.999,-2.0292,-2.0498,-2.0909,-2.1318,-2.1717,-2.2072,-2.2384,-2.2627,-2.2929,-2.3379,-2.3926,-2.4125,-2.4322,-2.4667,-2.5069,-2.5732,-0.4255,-0.4257,-0.4257,-0.4257,-0.4257,-0.4257,-0.4257,-0.4257,-0.4257,-0.4257,-0.4369,-0.5039,-0.5431,-0.571,-0.588,-0.6049,-0.6105,-0.6102,-0.6105,-0.6272,-0.6325,-0.6437,-0.6437,-0.6383,-0.6495,-0.6495,-0.6495,-0.6495,-0.655,-0.6826,-0.7102,-0.7157,-0.7435,-0.7768,-0.7768,-0.7768,-0.7601,-0.7546,-0.7546,-0.7712,-0.7934,-0.8211,-0.8374,-0.8543,-0.8657,-0.8774,-0.8771,-0.8771,-0.8771,-0.8881,-0.9047,-0.9213,-0.932,-0.9434,-0.9541,-0.9541,-0.9544,-0.9655,-0.9761,-0.9816,-0.9871,-0.9871,-0.9765,-1.0044,-1.0488,-1.0818,-1.1202,-1.1417,-1.1691,-1.2123,-1.2505,-1.2723,-1.2891,-1.3064,-1.3113,-1.3276,-1.3439,-1.3601,-1.3818,-1.4083,-1.4245,-1.4461,-1.4622,-1.473,-1.4945,-1.5261,-1.5416,-1.5512,-1.5672,-1.5838,-1.6205,-1.663,-1.7001,-1.7318,-1.7799,-1.816,-1.8565,-1.8781,-1.8997,-1.9354,-1.9717,-1.9975,-2.0285,-2.0755,-2.1113,-2.142,-2.1725,-2.203,-2.2526,-2.2979,-2.3179,-2.337,-2.3827,-2.4223,-2.4421,-0.303,-0.3029,-0.3029,-0.3029,-0.3085,-0.3086,-0.303,-0.3029,-0.3085,-0.303,-0.3253,-0.3474,-0.3976,-0.476,-0.4815,-0.4985,-0.5268,-0.5266,-0.5431,-0.5541,-0.571,-0.5822,-0.588,-0.588,-0.6216,-0.6161,-0.6105,-0.6274,-0.5993,-0.6216,-0.6442,-0.6495,-0.6492,-0.6659,-0.6662,-0.6659,-0.6771,-0.6771,-0.6826,-0.6884,-0.7215,-0.7546,-0.7986,-0.8097,-0.8156,-0.8156,-0.8156,-0.8156,-0.8156,-0.8266,-0.851,-0.8804,-0.8929,-0.905,-0.9106,-0.9123,-0.9116,-0.9224,-0.9286,-0.9398,-0.9461,-0.9669,-0.9672,-0.9772,-1.005,-1.0101,-1.0374,-1.054,-1.0918,-1.1494,-1.1818,-1.1877,-1.2042,-1.2179,-1.2297,-1.2517,-1.2686,-1.2904,-1.3123,-1.3287,-1.345,-1.3668,-1.3837,-1.4,-1.4168,-1.438,-1.4548,-1.4706,-1.4896,-1.5007,-1.5075,-1.5463,-1.5857,-1.6477,-1.712,-1.7279,-1.7582,-1.774,-1.795,-1.8363,-1.8677,-1.8938,-1.9302,-1.9724,-2.0086,-2.0439,-2.0755,-2.1062,-2.1522,-2.1912,-2.2173,-2.2476,-2.2979,-2.3329,-2.3529]},{"header":{"parameterUnit":"m.s-1","parameterCategory":1,"la1":31.0,"la2":29.5877,"lo1":-88.7671,"lo2":-86.6584,"dy":0.0162,"dx":0.0185,"nx":115,"ny":88,"refTime":"2024-06-10T12:00:00:Z","depth":0,"parameterNumber":3,"parameterNumberName":"V-component_of_WINDS"},"data":[0.0,0.0,0.0,0.0,0.0,0.0,0.0,0.0,0.0,0.0,0.0,0.0,0.0,0.0,0.0,0.0,0.0,0.0,0.0,0.0,0.0,0.0,0.0,0.0,0.0,0.0,0.0,0.0,0.0,0.0,0.0,0.0,0.0,0.0,0.0,0.0,0.0,0.0,0.0,0.0,0.0,0.0,0.0,0.0,0.0,0.0,0.0,0.0,0.0,0.0,0.0,0.0,0.0,0.0,0.0,0.0,0.0,0.0,0.0,0.0,0.0,0.0,0.0,0.0,0.0,0.0,0.0,0.0,0.0,0.0,0.0,0.0,0.0,0.0,0.0,0.0,0.0,0.0,0.0,0.0,0.0,0.0,0.0,0.0,0.0,0.0,0.0,0.0,0.0,0.0,0.0,0.0,0.0,0.0,0.0,0.0,0.0,0.0,0.0,0.0,0.0,0.0,0.0,0.0,0.0,0.0,0.0,0.0,0.0,0.0,0.0,0.0,0.0,0.0,0.0,0.0,0.0,0.0,0.0,0.0,0.0,0.0,0.0,0.0,0.0,0.0,0.0,0.0,0.0,0.0,0.0,0.0,0.0,0.0,0.0,0.0,0.0,0.0,0.0,0.0,0.0,0.0,0.0,0.0,0.0,0.0,0.0,0.0,0.0,0.0,0.0,0.0,0.0,0.0,0.0,0.0,0.0,0.0,0.0,0.0,0.0,0.0,0.0,0.0,0.0,0.0,0.0,0.0,0.0,0.0,0.0,0.0,0.0,0.0,0.0,0.0,0.0,0.0,0.0,0.0,0.0,0.0,0.0,0.0,0.0,0.0,0.0,0.0,0.0,0.0,0.0,0.0,0.0,0.0,0.0,0.0,0.0,0.0,0.0,0.0,0.0,0.0,0.0,0.0,0.0,0.0,0.0,0.0,0.0,0.0,0.0,0.0,0.0,0.0,0.0,0.0,0.0,0.0,0.0,0.0,0.0,0.0,0.0,0.0,0.0,0.0,0.0,0.0,0.0,0.0,0.0,0.0,0.0,0.0,0.0,0.0,0.0,0.0,0.0,0.0,0.0,0.0,0.0,0.0,0.0,0.0,0.0,0.0,0.0,0.0,0.0,0.0,0.0,0.0,0.0,0.0,0.0,0.0,0.0,0.0,0.0,0.0,0.0,0.0,0.0,0.0,0.0,0.0,0.0,0.0,0.0,0.0,0.0,0.0,0.0,0.0,0.0,0.0,0.0,0.0,0.0,0.0,0.0,0.0,0.0,0.0,0.0,0.0,0.0,0.0,0.0,0.0,0.0,0.0,0.0,0.0,0.0,0.0,0.0,0.0,0.0,0.0,0.0,0.0,0.0,0.0,0.0,0.0,0.0,0.0,0.0,0.0,0.0,0.0,0.0,0.0,0.0,0.0,0.0,0.0,0.0,0.0,0.0,0.0,0.0,0.0,0.0,0.0,0.0,0.0,0.0,0.0,0.0,0.0,0.0,0.0,0.0,0.0,0.0,0.0,0.0,0.0,0.0,0.0,0.0,0.0,0.0,0.0,0.0,0.0,0.0,0.0,0.0,0.0,0.0,0.0,0.0,0.0,0.0,0.0,0.0,0.0,0.0,0.0,0.0,0.0,0.0,0.0,0.0,0.0,0.0,0.0,0.0,0.0,0.0,0.0,0.0,0.0,0.0,0.0,0.0,0.0,0.0,0.0,0.0,0.0,0.0,0.0,0.0,0.0,0.0,0.0,0.0,0.0,0.0,0.0,0.0,0.0,0.0,0.0,0.0,0.0,0.0,0.0,0.0,0.0,0.0,0.0,0.0,0.0,0.0,0.0,0.0,0.0,0.0,0.0,0.0,0.0,0.0,0.0,0.0,0.0,0.0,0.0,0.0,0.0,0.0,0.0,0.0,0.0,0.0,0.0,0.0,0.0,0.0,0.0,0.0,0.0,0.0,0.0,0.0,0.0,0.0,0.0,0.0,0.0,0.0,0.0,0.0,0.0,0.0,0.0,0.0,0.0,0.0,0.0,0.0,0.0,0.0,0.0,0.0,0.0,0.0,0.0,0.0,0.0,0.0,0.0,0.0,0.0,0.0,0.0,0.0,0.0,0.0,0.0,0.0,0.0,0.0,0.0,0.0,0.0,0.0,0.0,0.0,0.0,0.0,0.0,0.0,0.0,0.0,0.0,0.0,0.0,0.0,0.0,0.0,0.0,0.0,0.0,0.0,0.0,0.0,0.0,0.0,0.0,0.0,0.0,0.0,0.0,0.0,0.0,0.0,0.0,0.0,0.0,0.0,0.0,0.0,0.0,0.0,0.0,0.0,0.0,0.0,0.0,0.0,0.0,0.0,0.0,0.0,0.0,0.0,0.0,0.0,0.0,0.0,0.0,0.0,0.0,0.0,0.0,0.0,0.0,0.0,0.0,0.0,0.0,0.0,0.0,0.0,0.0,0.0,0.0,0.0,0.0,0.0,0.0,0.0,0.0,0.0,0.0,0.0,0.0,0.0,0.0,0.0,0.0,0.0,0.0,0.0,0.0,0.0,0.0,0.0,0.0,0.0,0.0,0.0,0.0,0.0,0.0,0.0,0.0,0.0,0.0,0.0,0.0,0.0,0.0,0.0,0.0,0.0,0.0,0.0,0.0,0.0,0.0,0.0,0.0,0.0,0.0,0.0,0.0,0.0,0.0,0.0,0.0,0.0,0.0,0.0,0.0,0.0,0.0,0.0,0.0,0.0,0.0,0.0,0.0,0.0,0.0,0.0,0.0,0.0,0.0,0.0,0.0,0.0,0.0,0.0,0.0,0.0,0.0,0.0,0.0,0.0,0.0,0.0,0.0,0.0,0.0,0.0,0.0,0.0,0.0,0.0,0.0,0.0,0.0,0.0,0.0,0.0,0.0,0.0,0.0,0.0,0.0,0.0,0.0,0.0,0.0,0.0,0.0,0.0,0.0,0.0,0.0,0.0,0.0,0.0,0.0,0.0,0.0,0.0,0.0,0.0,0.0,0.0,0.0,0.0,0.0,0.0,0.0,0.0,0.0,0.0,0.0,0.0,0.0,0.0,0.0,0.0,0.0,0.0,0.0,0.0,0.0,0.0,0.0,0.0,0.0,0.0,0.0,0.0,0.0,0.0,0.0,0.0,0.0,0.0,0.0,0.0,0.0,0.0,0.0,0.0,0.0,0.0,0.0,0.0,0.0,0.0,0.0,0.0,0.0,0.0,0.0,0.0,0.0,0.0,0.0,0.0,0.0,0.0,0.0,0.0,0.0,0.0,0.0,0.0,0.0,0.0,0.0,0.0,0.0,0.0,0.0,0.0,0.0,0.0,0.0,0.0,0.0,0.0,0.0,0.0,0.0,0.0,0.0,0.0,0.0,0.0,0.0,0.0,0.0,0.0,0.0,0.0,0.0,0.0,0.0,0.0,0.0,0.0,0.0,0.0,0.0,0.0,0.0,0.0,0.0,0.0,0.0,0.0,0.0,0.0,0.0,0.0,0.0,0.0,0.0,0.0,0.0,0.0,0.0,0.0,0.0,0.0,0.0,0.0,0.0,0.0,0.0,0.0,0.0,0.0,0.0,0.0,0.0,0.0,0.0,0.0,0.0,0.0,0.0,0.0,0.0,0.0,0.0,0.0,0.0,0.0,0.0,0.0,0.0,0.0,0.0,0.0,0.0,0.0,0.0,0.0,0.0,0.0,0.0,0.0,0.0,0.0,0.0,0.0,0.0,0.0,0.0,0.0,0.0,0.0,0.0,0.0,0.0,0.0,0.0,0.0,0.0,0.0,0.0,0.0,0.0,0.0,0.0,0.0,0.0,0.0,0.0,0.0,0.0,0.0,0.0,0.0,0.0,0.0,0.0,0.0,0.0,0.0,0.0,0.0,0.0,0.0,0.0,0.0,0.0,0.0,0.0,0.0,0.0,0.0,0.0,0.0,0.0,0.0,0.0,0.0,0.0,0.0,0.0,0.0,0.0,0.0,0.0,0.0,0.0,0.0,0.0,0.0,0.0,0.0,0.0,0.0,0.0,0.0,0.0,0.0,0.0,0.0,0.0,0.0,0.0,0.0,0.0,0.0,0.0,0.0,0.0,0.0,0.0,0.0,0.0,0.0,0.0,0.0,0.0,0.0,0.0,0.0,0.0,0.0,0.0,0.0,0.0,0.0,0.0,0.0,0.0,0.0,0.0,0.0,0.0,0.0,0.0,0.0,0.0,0.0,0.0,0.0,0.0,0.0,0.0,0.0,0.0,0.0,0.0,0.0,0.0,0.0,0.0,3.2176,0.0,0.0,0.0,0.0,0.0,0.0,0.0,0.0,0.0,0.0,0.0,0.0,0.0,0.0,0.0,0.0,0.0,0.0,0.0,0.0,0.0,0.0,0.0,0.0,0.0,0.0,0.0,0.0,0.0,0.0,0.0,0.0,0.0,0.0,0.0,0.0,0.0,0.0,0.0,0.0,0.0,0.0,0.0,0.0,0.0,0.0,0.0,0.0,0.0,0.0,0.0,0.0,0.0,0.0,0.0,0.0,0.0,0.0,0.0,0.0,0.0,0.0,0.0,0.0,0.0,0.0,0.0,0.0,0.0,0.0,0.0,0.0,0.0,0.0,0.0,0.0,0.0,0.0,0.0,0.0,0.0,0.0,0.0,0.0,0.0,0.0,0.0,0.0,0.0,0.0,0.0,0.0,0.0,0.0,0.0,0.0,0.0,0.0,0.0,0.0,0.0,0.0,0.0,0.0,0.0,0.0,0.0,0.0,0.0,0.0,3.304,3.2967,3.2579,3.2145,3.1708,0.0,0.0,0.0,0.0,0.0,0.0,0.0,0.0,0.0,0.0,0.0,0.0,0.0,0.0,0.0,0.0,0.0,0.0,0.0,0.0,0.0,0.0,0.0,0.0,0.0,0.0,0.0,0.0,0.0,0.0,0.0,0.0,0.0,0.0,0.0,0.0,0.0,0.0,0.0,0.0,0.0,0.0,0.0,0.0,0.0,0.0,0.0,0.0,0.0,0.0,0.0,0.0,0.0,0.0,0.0,0.0,0.0,0.0,0.0,0.0,0.0,0.0,0.0,0.0,0.0,0.0,0.0,0.0,0.0,0.0,0.0,0.0,0.0,0.0,0.0,0.0,0.0,0.0,0.0,0.0,0.0,0.0,0.0,0.0,0.0,0.0,0.0,0.0,0.0,0.0,0.0,0.0,0.0,0.0,0.0,0.0,0.0,0.0,0.0,0.0,0.0,0.0,0.0,0.0,0.0,0.0,0.0,0.0,0.0,0.0,0.0,0.0,3.2218,3.154,3.0896,0.0,0.0,0.0,0.0,0.0,0.0,0.0,0.0,0.0,0.0,0.0,0.0,0.0,0.0,0.0,0.0,0.0,0.0,0.0,0.0,0.0,0.0,0.0,0.0,0.0,0.0,0.0,0.0,0.0,0.0,0.0,0.0,0.0,0.0,0.0,0.0,0.0,0.0,0.0,0.0,0.0,0.0,0.0,0.0,0.0,0.0,0.0,0.0,0.0,0.0,0.0,0.0,0.0,0.0,0.0,0.0,0.0,0.0,0.0,0.0,0.0,0.0,0.0,0.0,0.0,0.0,0.0,0.0,0.0,0.0,0.0,0.0,0.0,0.0,0.0,0.0,0.0,0.0,0.0,0.0,0.0,0.0,0.0,0.0,0.0,0.0,0.0,0.0,0.0,0.0,0.0,0.0,0.0,0.0,0.0,0.0,0.0,0.0,0.0,0.0,0.0,0.0,0.0,0.0,0.0,0.0,0.0,0.0,0.0,0.0,3.2106,3.2436,3.1728,0.0,2.9534,0.0,0.0,0.0,0.0,0.0,0.0,0.0,0.0,0.0,0.0,0.0,0.0,0.0,0.0,0.0,0.0,0.0,0.0,0.0,0.0,0.0,0.0,0.0,0.0,0.0,0.0,0.0,0.0,0.0,0.0,0.0,0.0,0.0,0.0,0.0,0.0,0.0,0.0,0.0,0.0,0.0,0.0,0.0,0.0,0.0,0.0,0.0,0.0,0.0,0.0,0.0,0.0,0.0,0.0,0.0,0.0,0.0,0.0,0.0,0.0,0.0,0.0,0.0,0.0,0.0,0.0,0.0,0.0,0.0,0.0,0.0,0.0,0.0,0.0,0.0,0.0,0.0,0.0,0.0,0.0,0.0,0.0,0.0,0.0,0.0,0.0,0.0,0.0,0.0,0.0,0.0,0.0,0.0,0.0,0.0,0.0,0.0,0.0,0.0,0.0,0.0,0.0,0.0,0.0,0.0,0.0,0.0,0.0,0.0,0.0,3.0508,3.0918,2.9882,2.8881,0.0,0.0,0.0,0.0,0.0,0.0,0.0,0.0,0.0,0.0,0.0,0.0,0.0,0.0,0.0,0.0,0.0,0.0,0.0,0.0,0.0,0.0,0.0,0.0,0.0,0.0,0.0,0.0,0.0,0.0,0.0,0.0,0.0,0.0,0.0,0.0,0.0,0.0,0.0,0.0,0.0,0.0,0.0,0.0,0.0,0.0,0.0,0.0,0.0,0.0,0.0,0.0,0.0,0.0,0.0,0.0,0.0,0.0,0.0,0.0,0.0,0.0,0.0,0.0,0.0,0.0,0.0,0.0,0.0,0.0,0.0,0.0,0.0,0.0,0.0,0.0,0.0,0.0,0.0,0.0,0.0,0.0,0.0,0.0,0.0,0.0,0.0,0.0,0.0,0.0,0.0,0.0,0.0,0.0,0.0,0.0,0.0,0.0,0.0,0.0,0.0,0.0,0.0,0.0,0.0,0.0,0.0,0.0,0.0,0.0,2.9146,2.8912,2.8941,2.8127,2.7216,2.6153,0.0,0.0,0.0,0.0,0.0,0.0,0.0,0.0,0.0,0.0,0.0,0.0,0.0,0.0,0.0,0.0,0.0,0.0,0.0,0.0,0.0,0.0,0.0,0.0,0.0,0.0,0.0,0.0,0.0,0.0,0.0,0.0,0.0,0.0,0.0,0.0,0.0,0.0,0.0,0.0,0.0,0.0,0.0,0.0,0.0,0.0,0.0,0.0,0.0,0.0,0.0,0.0,0.0,0.0,0.0,0.0,0.0,0.0,0.0,0.0,0.0,0.0,0.0,0.0,0.0,0.0,0.0,0.0,0.0,0.0,0.0,0.0,0.0,0.0,0.0,0.0,0.0,0.0,0.0,0.0,0.0,0.0,0.0,0.0,0.0,0.0,0.0,0.0,0.0,0.0,0.0,0.0,0.0,0.0,0.0,0.0,0.0,0.0,0.0,0.0,0.0,0.0,0.0,0.0,0.0,0.0,0.0,0.0,0.0,2.8056,2.7422,2.6776,2.6804,2.6043,0.0,0.0,0.0,0.0,0.0,0.0,0.0,0.0,0.0,0.0,0.0,0.0,0.0,0.0,0.0,0.0,0.0,0.0,0.0,0.0,0.0,0.0,0.0,0.0,0.0,0.0,0.0,0.0,0.0,0.0,0.0,0.0,0.0,0.0,0.0,0.0,0.0,0.0,0.0,0.0,0.0,0.0,0.0,0.0,0.0,0.0,0.0,0.0,0.0,0.0,0.0,0.0,0.0,0.0,0.0,0.0,0.0,0.0,0.0,0.0,0.0,0.0,0.0,0.0,0.0,0.0,0.0,0.0,0.0,0.0,0.0,0.0,0.0,0.0,0.0,0.0,0.0,0.0,0.0,0.0,0.0,0.0,0.0,0.0,0.0,0.0,0.0,0.0,0.0,0.0,0.0,0.0,0.0,0.0,0.0,0.0,0.0,0.0,0.0,0.0,0.0,0.0,0.0,0.0,0.0,0.0,0.0,0.0,0.0,2.6816,2.6601,2.6007,2.5027,2.4882,2.4056,0.0,0.0,0.0,0.0,0.0,0.0,0.0,0.0,0.0,0.0,0.0,0.0,0.0,0.0,0.0,0.0,0.0,0.0,0.0,0.0,0.0,0.0,0.0,0.0,0.0,0.0,0.0,0.0,0.0,0.0,0.0,0.0,0.0,0.0,0.0,0.0,0.0,0.0,0.0,0.0,0.0,0.0,0.0,0.0,0.0,0.0,0.0,0.0,0.0,0.0,0.0,0.0,0.0,0.0,0.0,0.0,0.0,0.0,0.0,0.0,0.0,0.0,0.0,0.0,0.0,0.0,0.0,0.0,0.0,0.0,0.0,0.0,0.0,0.0,0.0,0.0,0.0,0.0,0.0,0.0,0.0,0.0,0.0,0.0,0.0,0.0,0.0,0.0,0.0,0.0,0.0,0.0,0.0,0.0,0.0,0.0,0.0,0.0,0.0,0.0,0.0,0.0,0.0,0.0,0.0,0.0,0.0,0.0,0.0,2.4865,0.0,2.4367,0.0,2.2959,2.2183,0.0,0.0,0.0,0.0,0.0,0.0,0.0,0.0,0.0,0.0,0.0,0.0,0.0,0.0,0.0,0.0,0.0,0.0,0.0,0.0,0.0,0.0,0.0,0.0,0.0,0.0,0.0,0.0,0.0,0.0,0.0,0.0,0.0,0.0,0.0,0.0,0.0,0.0,0.0,0.0,0.0,0.0,0.0,0.0,0.0,0.0,0.0,0.0,0.0,0.0,0.0,0.0,0.0,0.0,0.0,0.0,0.0,0.0,0.0,0.0,0.0,0.0,0.0,0.0,0.0,0.0,0.0,0.0,0.0,0.0,0.0,0.0,0.0,0.0,0.0,0.0,0.0,0.0,0.0,0.0,0.0,0.0,0.0,0.0,0.0,0.0,0.0,0.0,0.0,0.0,0.0,0.0,0.0,0.0,0.0,0.0,0.0,0.0,0.0,0.0,0.0,0.0,0.0,0.0,0.0,0.0,0.0,0.0,2.3275,2.2727,2.2935,2.2461,2.1265,2.1102,2.0408,0.0,0.0,0.0,0.0,0.0,0.0,0.0,0.0,0.0,0.0,0.0,0.0,0.0,0.0,0.0,0.0,0.0,0.0,0.0,0.0,0.0,0.0,0.0,0.0,0.0,0.0,0.0,0.0,0.0,0.0,0.0,0.0,0.0,0.0,0.0,0.0,0.0,0.0,0.0,0.0,0.0,0.0,0.0,0.0,0.0,0.0,0.0,0.0,0.0,0.0,0.0,0.0,0.0,0.0,0.0,0.0,0.0,0.0,0.0,0.0,0.0,0.0,0.0,0.0,0.0,0.0,0.0,0.0,0.0,0.0,0.0,0.0,0.0,0.0,0.0,0.0,0.0,0.0,0.0,0.0,0.0,0.0,0.0,0.0,0.0,0.0,0.0,0.0,0.0,0.0,0.0,0.0,0.0,0.0,0.0,0.0,0.0,0.0,0.0,0.0,0.0,0.0,0.0,0.0,0.0,0.0,0.0,0.0,0.0,2.1254,2.12,2.066,1.9589,1.9384,1.8713,0.0,0.0,0.0,0.0,0.0,0.0,0.0,0.0,0.0,0.0,0.0,0.0,0.0,0.0,0.0,0.0,0.0,0.0,0.0,0.0,0.0,0.0,0.0,0.0,0.0,0.0,0.0,0.0,0.0,0.0,0.0,0.0,0.0,0.0,0.0,0.0,0.0,0.0,0.0,0.0,0.0,0.0,0.0,0.0,0.0,0.0,0.0,0.0,0.0,0.0,0.0,0.0,0.0,0.0,0.0,0.0,0.0,0.0,0.0,0.0,0.0,0.0,0.0,0.0,0.0,0.0,0.0,0.0,0.0,0.0,0.0,0.0,0.0,0.0,0.0,0.0,0.0,0.0,0.0,0.0,0.0,0.0,0.0,0.0,0.0,0.0,0.0,0.0,0.0,0.0,0.0,0.0,0.0,0.0,0.0,0.0,0.0,0.0,0.0,0.0,0.0,0.0,0.0,0.0,0.0,0.0,0.0,0.0,0.0,1.9516,1.955,1.913,1.8233,1.7965,1.7335,1.6378,0.0,0.0,0.0,0.0,0.0,0.0,0.0,0.0,0.0,0.0,0.0,0.0,0.0,0.0,0.0,0.0,0.0,0.0,0.0,0.0,0.0,0.0,0.0,0.0,0.0,0.0,0.0,0.0,0.0,0.0,0.0,0.0,0.0,0.0,0.0,0.0,0.0,0.0,0.0,0.0,0.0,0.0,0.0,0.0,0.0,0.0,0.0,0.0,0.0,0.0,0.0,0.0,0.0,0.0,0.0,0.0,0.0,0.0,0.0,0.0,0.0,0.0,0.0,0.0,0.0,0.0,0.0,0.0,0.0,0.0,0.0,0.0,0.0,0.0,0.0,0.0,0.0,0.0,0.0,0.0,0.0,0.0,0.0,0.0,0.0,0.0,0.0,0.0,0.0,0.0,0.0,0.0,0.0,0.0,0.0,0.0,0.0,0.0,0.0,0.0,0.0,0.0,0.0,0.0,0.0,0.0,0.0,0.0,1.7638,1.8064,1.7903,1.7137,1.6855,1.6264,0.0,0.0,0.0,0.0,0.0,0.0,0.0,0.0,0.0,0.0,0.0,0.0,0.0,0.0,0.0,0.0,0.0,0.0,0.0,0.0,0.0,0.0,0.0,0.0,0.0,0.0,0.0,0.0,0.0,0.0,0.0,0.0,0.0,0.0,0.0,0.0,0.0,0.0,0.0,0.0,0.0,0.0,0.0,0.0,0.0,0.0,0.0,0.0,0.0,0.0,0.0,0.0,0.0,0.0,0.0,0.0,0.0,0.0,0.0,0.0,0.0,0.0,0.0,0.0,0.0,0.0,0.0,0.0,0.0,0.0,0.0,0.0,0.0,0.0,0.0,0.0,0.0,0.0,0.0,0.0,0.0,0.0,0.0,0.0,0.0,0.0,0.0,0.0,0.0,0.0,0.0,0.0,0.0,0.0,0.0,0.0,0.0,0.0,0.0,0.0,0.0,0.0,0.0,0.0,0.0,0.0,0.0,0.0,0.0,1.6897,1.6817,1.6668,1.6401,1.6095,1.5727,0.0,0.0,0.0,0.0,0.0,0.0,0.0,0.0,0.0,0.0,0.0,0.0,0.0,0.0,0.0,0.0,0.0,0.0,0.0,0.0,0.0,0.0,0.0,0.0,0.0,0.0,0.0,0.0,0.0,0.0,0.0,0.0,0.0,0.0,0.0,0.0,0.0,0.0,0.0,0.0,0.0,0.0,0.0,0.0,0.0,0.0,0.0,0.0,0.0,0.0,0.0,0.0,0.0,0.0,0.0,0.0,0.0,0.0,0.0,0.0,0.0,0.0,0.0,0.0,0.0,0.0,0.0,0.0,0.0,0.0,0.0,0.0,0.0,0.0,0.0,0.0,0.0,0.0,0.0,0.0,0.0,0.0,0.0,0.0,0.0,0.0,0.0,0.0,0.0,0.0,0.0,0.0,0.0,0.0,0.0,0.0,0.0,0.0,0.0,0.0,0.0,0.0,0.0,0.0,0.0,0.0,0.0,0.0,1.6818,1.6298,1.6021,1.5846,1.5671,1.5488,1.5265,0.0,0.0,0.0,0.0,0.0,0.0,0.0,0.0,0.0,0.0,0.0,0.0,0.0,0.0,0.0,0.0,0.0,0.0,0.0,0.0,0.0,0.0,0.0,0.0,0.0,0.0,0.0,0.0,0.0,0.0,0.0,0.0,0.0,0.0,0.0,0.0,0.0,0.0,0.0,0.0,0.0,0.0,0.0,0.0,0.0,0.0,0.0,0.0,0.0,0.0,0.0,0.0,0.0,0.0,0.0,0.0,0.0,0.0,0.0,0.0,0.0,0.0,0.0,0.0,0.0,0.0,0.0,0.0,0.0,0.0,0.0,0.0,0.0,0.0,0.0,0.0,0.0,0.0,0.0,0.0,0.0,0.0,0.0,0.0,0.0,0.0,0.0,0.0,0.0,0.0,0.0,0.0,0.0,0.0,0.0,0.0,0.0,0.0,0.0,0.0,0.0,0.0,0.0,0.0,0.0,0.0,0.0,0.0,1.6541,1.5784,1.5547,1.5356,1.5112,1.5002,1.4836,0.0,0.0,0.0,0.0,0.0,0.0,0.0,0.0,0.0,0.0,0.0,0.0,0.0,0.0,0.0,0.0,0.0,0.0,0.0,0.0,0.0,0.0,0.0,0.0,0.0,0.0,0.0,0.0,0.0,0.0,0.0,0.0,0.0,0.0,0.0,0.0,0.0,0.0,0.0,0.0,0.0,0.0,0.0,0.0,0.0,0.0,0.0,0.0,0.0,0.0,0.0,0.0,0.0,0.0,0.0,0.0,0.0,0.0,0.0,0.0,0.0,0.0,0.0,0.0,0.0,0.0,0.0,0.0,0.0,0.0,0.0,0.0,0.0,0.0,0.0,0.0,0.0,0.0,0.0,0.0,0.0,0.0,0.0,0.0,0.0,0.0,0.0,0.0,0.0,0.0,0.0,0.0,0.0,0.0,0.0,0.0,0.0,0.0,0.0,0.0,0.0,0.0,0.0,0.0,0.0,0.0,0.0,0.0,1.6103,1.5588,1.5309,1.5131,1.5131,1.4615,1.4379,0.0,0.0,0.0,0.0,0.0,0.0,0.0,0.0,0.0,0.0,0.0,0.0,0.0,0.0,0.0,0.0,0.0,0.0,0.0,0.0,0.0,0.0,0.0,0.0,0.0,0.0,0.0,0.0,0.0,0.0,0.0,0.0,0.0,0.0,0.0,0.0,0.0,0.0,0.0,0.0,0.0,0.0,0.0,0.0,0.0,0.0,0.0,0.0,1.743,0.0,0.0,0.0,0.0,0.0,0.0,0.0,0.0,0.0,0.0,0.0,0.0,0.0,0.0,0.0,0.0,0.0,0.0,0.0,0.0,0.0,0.0,0.0,0.0,0.0,0.0,0.0,0.0,0.0,0.0,0.0,0.0,0.0,0.0,0.0,0.0,0.0,0.0,0.0,0.0,0.0,0.0,0.0,0.0,0.0,0.0,0.0,0.0,0.0,0.0,0.0,0.0,0.0,0.0,0.0,0.0,0.0,0.0,0.0,1.5913,1.5315,1.5029,1.4838,1.4717,1.4201,1.3954,0.0,0.0,0.0,0.0,0.0,0.0,0.0,0.0,0.0,0.0,0.0,0.0,0.0,0.0,0.0,0.0,0.0,0.0,0.0,0.0,0.0,0.0,0.0,0.0,0.0,0.0,0.0,0.0,0.0,0.0,0.0,0.0,0.0,0.0,0.0,0.0,0.0,0.0,0.0,0.0,0.0,0.0,0.0,0.0,0.0,0.0,0.0,0.0,0.0,0.0,0.0,0.0,0.0,0.0,0.0,0.0,0.0,0.0,0.0,0.0,0.0,0.0,0.0,0.0,0.0,0.0,0.0,0.0,0.0,0.0,0.0,0.0,0.0,0.0,0.0,0.0,0.0,0.0,0.0,0.0,0.0,0.0,0.0,0.0,0.0,0.0,0.0,0.0,0.0,0.0,0.0,0.0,0.0,0.0,0.0,0.0,0.0,0.0,0.0,0.0,0.0,0.0,0.0,0.0,0.0,0.0,0.0,1.6171,1.5778,1.5131,1.4838,1.4573,1.4232,1.3721,1.3625,1.3962,0.0,0.0,0.0,0.0,0.0,0.0,0.0,0.0,0.0,0.0,0.0,0.0,0.0,0.0,0.0,0.0,0.0,0.0,0.0,0.0,0.0,0.0,0.0,0.0,0.0,0.0,0.0,0.0,0.0,0.0,0.0,0.0,0.0,0.0,0.0,0.0,0.0,0.0,2.3167,2.3186,0.0,0.0,0.0,0.0,0.0,0.0,0.0,0.0,1.6646,0.0,0.0,0.0,0.0,0.0,0.0,0.0,0.0,0.0,0.0,0.0,0.0,0.0,0.0,0.0,0.0,0.0,0.0,0.0,0.0,0.0,0.0,0.0,0.0,0.0,0.0,0.0,0.0,0.0,0.0,0.0,0.0,0.0,0.0,0.0,0.0,0.0,0.0,0.0,0.0,0.0,0.0,0.0,0.0,0.0,0.0,0.0,0.0,0.0,0.0,0.0,0.0,0.0,0.0,0.0,0.0,1.6286,1.5983,1.5585,1.5124,1.4838,1.4487,1.3972,1.3493,1.3186,1.2992,0.0,0.0,0.0,0.0,0.0,0.0,0.0,0.0,0.0,0.0,0.0,0.0,0.0,0.0,0.0,0.0,0.0,0.0,0.0,0.0,0.0,0.0,0.0,0.0,0.0,0.0,0.0,0.0,0.0,0.0,0.0,0.0,0.0,0.0,0.0,0.0,0.0,0.0,0.0,2.2534,2.2318,0.0,0.0,0.0,0.0,0.0,0.0,0.0,0.0,1.5687,0.0,0.0,0.0,0.0,0.0,0.0,0.0,0.0,0.0,0.0,0.0,0.0,0.0,0.0,0.0,0.0,0.0,0.0,0.0,0.0,0.0,0.0,0.0,0.0,0.0,0.0,0.0,0.0,0.0,0.0,0.0,0.0,0.0,0.0,0.0,0.0,0.0,0.0,0.0,0.0,0.0,0.0,0.0,0.0,0.0,0.0,0.0,0.0,0.0,0.0,0.0,0.0,0.0,0.0,0.0,1.6279,1.5889,1.5584,1.5302,1.4885,1.451,1.4098,1.3652,1.3123,0.0,0.0,0.0,0.0,0.0,0.0,0.0,0.0,0.0,0.0,0.0,0.0,0.0,0.0,0.0,0.0,0.0,0.0,0.0,0.0,0.0,0.0,0.0,0.0,0.0,0.0,0.0,0.0,0.0,0.0,0.0,0.0,0.0,0.0,0.0,0.0,0.0,0.0,0.0,0.0,2.2008,2.1939,2.0864,0.0,0.0,0.0,0.0,0.0,0.0,1.5724,1.5244,0.0,0.0,0.0,0.0,0.0,0.0,0.0,0.0,0.0,0.0,0.0,0.0,0.0,0.0,0.0,0.0,0.0,0.0,0.0,0.0,0.0,0.0,0.0,0.0,0.0,0.0,0.0,0.0,0.0,0.0,0.0,0.0,0.0,0.0,0.0,0.0,0.0,0.0,0.0,0.0,0.0,0.0,0.0,0.0,0.0,0.0,0.0,0.0,0.0,0.0,0.0,0.0,0.0,0.0,0.0,1.636,1.6017,1.5722,1.5442,1.5082,1.4666,1.4303,1.371,1.3129,0.0,0.0,0.0,0.0,0.0,0.0,0.0,0.0,0.0,0.0,0.0,0.0,0.0,0.0,0.0,0.0,0.0,0.0,0.0,0.0,0.0,0.0,0.0,0.0,0.0,0.0,0.0,0.0,0.0,0.0,0.0,0.0,0.0,0.0,0.0,0.0,0.0,0.0,0.0,0.0,0.0,2.1422,2.041,2.0004,0.0,0.0,0.0,0.0,1.6113,1.5444,0.0,0.0,0.0,0.0,0.0,0.0,0.0,0.0,0.0,0.0,0.0,0.0,0.0,0.0,0.0,0.0,0.0,0.0,0.0,0.0,0.0,0.0,0.0,0.0,0.0,0.0,0.0,0.0,0.0,0.0,0.0,0.0,0.0,0.0,0.0,0.0,0.0,0.0,0.0,0.0,0.0,0.0,0.0,0.0,0.0,0.0,0.0,0.0,0.0,0.0,0.0,0.0,0.0,0.0,0.0,0.0,1.6478,1.6345,1.5944,1.5371,1.5305,1.4976,1.423,1.3525,1.2993,0.0,0.0,0.0,0.0,0.0,0.0,0.0,0.0,0.0,0.0,0.0,0.0,0.0,0.0,0.0,0.0,0.0,0.0,0.0,0.0,0.0,0.0,0.0,0.0,0.0,0.0,0.0,0.0,0.0,0.0,0.0,0.0,0.0,0.0,0.0,0.0,0.0,0.0,0.0,0.0,0.0,2.0402,1.9331,1.9036,1.8715,0.0,0.0,1.6626,1.6284,1.543,0.0,0.0,0.0,0.0,0.0,0.0,0.0,0.0,0.0,0.0,0.0,0.0,0.0,0.0,0.0,0.0,0.0,0.0,0.0,0.0,0.0,0.0,0.0,0.0,0.0,0.0,0.0,0.0,0.0,0.0,0.0,0.0,0.0,0.0,0.0,0.0,0.0,0.0,0.0,0.0,0.0,0.0,0.0,0.0,0.0,0.0,0.0,0.0,0.0,0.0,0.0,0.0,0.0,0.0,0.0,1.6467,1.6657,1.6404,1.6082,1.5711,1.5416,1.5042,1.4557,1.3956,1.3392,0.0,0.0,0.0,0.0,0.0,0.0,0.0,0.0,0.0,0.0,0.0,0.0,0.0,0.0,0.0,0.0,0.0,0.0,0.0,0.0,0.0,0.0,0.0,0.0,0.0,0.0,0.0,0.0,0.0,0.0,0.0,0.0,0.0,0.0,0.0,0.0,0.0,0.0,0.0,0.0,0.0,0.0,1.9395,1.9008,0.0,0.0,0.0,1.6518,1.6158,0.0,0.0,0.0,0.0,0.0,0.0,0.0,0.0,0.0,0.0,0.0,0.0,0.0,0.0,0.0,0.0,0.0,0.0,0.0,0.0,0.0,0.0,0.0,0.0,0.0,0.0,0.0,0.0,0.0,0.0,0.0,0.0,0.0,0.0,0.0,0.0,0.0,0.0,0.0,0.0,0.0,0.0,0.0,0.0,0.0,0.0,0.0,0.0,0.0,0.0,0.0,0.0,0.0,0.0,0.0,0.0,0.0,1.687,1.6688,1.6483,1.6118,1.5729,1.539,1.5066,1.4559,0.0,0.0,0.0,0.0,0.0,0.0,0.0,0.0,0.0,0.0,0.0,0.0,0.0,0.0,0.0,0.0,0.0,0.0,0.0,0.0,0.0,0.0,0.0,0.0,0.0,0.0,0.0,1.8354,0.0,0.0,0.0,0.0,0.0,0.0,0.0,0.0,0.0,0.0,0.0,0.0,0.0,0.0,2.0142,1.9393,1.8942,1.852,0.0,0.0,1.6518,1.5992,1.4988,1.4011,0.0,0.0,0.0,0.0,0.0,0.0,0.0,0.0,0.0,0.0,0.0,0.0,0.0,0.0,0.0,0.0,0.0,0.0,0.0,0.0,0.0,0.0,0.0,0.0,0.0,0.0,0.0,0.0,0.0,0.0,0.0,0.0,0.0,0.0,0.0,0.0,0.0,0.0,0.0,0.0,0.0,0.0,0.0,0.0,0.0,0.0,0.0,0.0,0.0,0.0,0.0,0.0,0.0,0.0,0.0,1.7119,1.7549,1.7355,1.6528,1.6513,1.6277,1.5741,1.5036,1.4532,0.0,0.0,0.0,0.0,0.0,0.0,0.0,0.0,0.0,0.0,0.0,0.0,0.0,0.0,0.0,0.0,0.0,0.0,0.0,0.0,0.0,0.0,0.0,0.0,0.0,0.0,0.0,0.0,0.0,0.0,0.0,0.0,0.0,0.0,0.0,0.0,0.0,0.0,0.0,0.0,0.0,1.961,1.8831,1.8588,1.8265,0.0,0.0,1.6518,1.5992,1.4988,1.3959,1.2895,0.0,0.0,0.0,0.0,0.0,0.0,0.0,0.0,0.0,0.0,0.0,0.0,0.0,0.0,0.0,0.0,0.0,0.0,0.0,0.0,0.0,0.0,0.0,0.0,0.0,0.0,0.0,0.0,0.0,0.0,0.0,0.0,0.0,0.0,0.0,0.0,0.0,0.0,0.0,0.0,0.0,0.0,0.0,0.0,0.0,0.0,0.0,0.0,0.0,0.0,0.0,0.0,0.0,1.7945,1.7653,1.7868,1.768,1.7061,1.6921,1.6664,1.6338,1.5959,1.5446,0.0,0.0,0.0,0.0,0.0,0.0,0.0,0.0,0.0,0.0,0.0,0.0,0.0,0.0,0.0,0.0,0.0,0.0,0.0,0.0,0.0,0.0,0.0,0.0,0.0,0.0,0.0,0.0,1.8848,1.8978,1.9565,0.0,0.0,0.0,0.0,0.0,0.0,0.0,0.0,0.0,0.0,1.9639,1.9162,1.8658,0.0,0.0,1.7107,1.6518,1.5992,1.495,1.3959,1.3043,1.2367,0.0,0.0,0.0,0.0,0.0,0.0,0.0,0.0,0.0,0.0,0.0,0.0,0.0,0.0,0.0,0.0,0.0,0.0,0.0,0.0,0.0,0.0,0.0,0.0,0.0,0.0,0.0,0.0,0.0,0.0,0.0,0.0,0.0,0.0,0.0,0.0,0.0,0.0,0.0,0.0,0.0,0.0,0.0,0.0,0.0,0.0,0.0,0.0,0.0,0.0,0.0,0.0,1.8443,1.8208,1.8408,1.8233,1.7789,1.761,1.7367,1.7106,1.6886,1.6389,0.0,0.0,0.0,0.0,0.0,0.0,0.0,0.0,0.0,0.0,0.0,0.0,0.0,0.0,0.0,0.0,0.0,0.0,0.0,0.0,0.0,0.0,0.0,0.0,0.0,0.0,0.0,0.0,1.9116,1.9393,1.9853,0.0,0.0,0.0,0.0,0.0,0.0,0.0,0.0,0.0,0.0,1.9693,1.9339,1.8795,1.8206,1.7687,1.7107,1.6571,1.6105,1.5083,1.4035,1.3271,0.0,0.0,0.0,0.0,0.0,0.0,0.0,0.0,0.0,0.0,0.0,0.0,0.0,0.0,0.0,0.0,0.0,0.0,0.0,0.0,0.0,0.0,0.0,0.0,0.0,0.0,0.0,2.4389,0.0,0.0,2.3505,0.0,0.0,0.0,0.0,0.0,0.0,0.0,0.0,0.0,0.0,0.0,0.0,0.0,0.0,0.0,0.0,0.0,0.0,0.0,0.0,0.0,0.0,1.9012,1.8711,1.9246,1.9271,1.8696,1.8656,1.8425,1.7991,1.7781,1.7307,1.6577,0.0,0.0,0.0,0.0,0.0,0.0,0.0,0.0,0.0,0.0,0.0,0.0,0.0,0.0,0.0,0.0,0.0,0.0,0.0,0.0,0.0,0.0,0.0,0.0,0.0,0.0,1.8662,1.9394,1.9893,0.0,0.0,0.0,0.0,0.0,0.0,0.0,0.0,0.0,0.0,2.0451,1.9693,1.9339,1.8795,1.8213,1.7687,1.7107,1.663,1.6324,1.5351,1.4303,0.0,0.0,0.0,0.0,0.0,0.0,0.0,0.0,0.0,0.0,0.0,0.0,0.0,0.0,0.0,0.0,0.0,0.0,0.0,0.0,0.0,0.0,0.0,0.0,0.0,0.0,0.0,2.5099,2.4827,0.0,0.0,0.0,0.0,0.0,0.0,0.0,0.0,0.0,0.0,0.0,2.6068,2.6068,0.0,0.0,0.0,0.0,0.0,0.0,0.0,0.0,0.0,0.0,0.0,0.0,1.9332,1.9323,1.9656,1.9696,1.949,1.9499,1.9301,1.8904,1.8825,1.8332,1.7409,0.0,0.0,0.0,0.0,0.0,0.0,0.0,0.0,0.0,0.0,0.0,0.0,0.0,0.0,0.0,0.0,0.0,0.0,0.0,0.0,0.0,0.0,0.0,0.0,0.0,1.8831,0.0,0.0,0.0,0.0,0.0,0.0,0.0,0.0,0.0,0.0,0.0,2.1527,2.1328,2.0639,1.9934,1.9369,1.8795,1.8213,0.0,0.0,0.0,0.0,0.0,0.0,0.0,0.0,0.0,0.0,0.0,0.0,0.0,0.0,0.9939,0.9985,0.9921,0.981,0.9698,0.0,0.0,0.0,0.0,0.0,0.0,0.0,0.0,0.0,0.0,0.0,0.0,0.0,0.0,2.6126,0.0,2.5737,0.0,0.0,0.0,0.0,0.0,0.0,0.0,0.0,2.6606,2.6801,2.7177,2.7052,2.705,0.0,2.6487,2.5865,0.0,0.0,0.0,0.0,0.0,0.0,0.0,0.0,2.0144,2.0011,2.0376,2.0474,2.0362,2.0342,2.0147,1.9775,1.9464,1.8975,1.8258,1.7303,1.6698,0.0,0.0,0.0,0.0,0.0,0.0,0.0,0.0,0.0,0.0,0.0,0.0,0.0,0.0,0.0,0.0,0.0,0.0,0.0,0.0,0.0,0.0,0.0,1.9365,0.0,0.0,0.0,0.0,0.0,0.0,0.0,0.0,0.0,2.2612,2.2199,2.1777,2.1525,2.0818,2.0051,1.9383,0.0,0.0,0.0,0.0,0.0,0.0,0.0,1.4874,1.4439,1.363,1.2798,1.2157,1.1067,1.0181,0.9653,0.0,0.0,0.945,0.9367,0.9196,0.9245,0.9059,0.8846,0.86,0.8504,0.8409,0.0,0.0,0.0,0.0,0.0,0.0,0.0,0.0,2.769,2.7597,0.0,2.7159,0.0,0.0,0.0,0.0,0.0,2.6751,0.0,0.0,2.7403,2.7626,2.8097,2.78,2.7916,2.8361,2.7639,2.7197,2.6895,2.5044,0.0,0.0,0.0,0.0,0.0,0.0,2.1384,2.0814,2.1459,2.1634,2.1244,2.1244,2.1041,2.0624,1.984,1.927,1.901,1.8238,1.7623,1.727,1.7235,0.0,0.0,0.0,0.0,0.0,0.0,0.0,0.0,0.0,0.0,0.0,0.0,0.0,0.0,0.0,0.0,0.0,0.0,0.0,0.0,1.9407,0.0,0.0,0.0,0.0,0.0,0.0,0.0,0.0,0.0,0.0,2.3095,2.2419,2.1948,2.1925,0.0,0.0,0.0,0.0,1.8213,1.7687,1.7384,1.7067,1.6789,1.6258,1.5624,1.4761,0.0,0.0,1.2003,1.1065,1.0269,0.9482,0.9148,0.9021,0.9242,0.9186,0.9067,0.906,0.8872,0.868,0.8474,0.835,0.8212,2.9294,0.0,0.0,0.0,0.0,2.8327,2.8541,2.8798,2.8684,2.8557,2.8391,2.8254,0.0,0.0,0.0,0.0,0.0,0.0,2.8134,2.8322,2.8572,2.8603,2.8468,2.869,2.8763,2.8605,2.8259,2.786,2.7432,2.6569,2.5499,2.4292,0.0,0.0,0.0,0.0,2.1996,2.1847,2.2056,2.2136,2.2063,2.2063,2.1845,2.1454,2.0941,2.0455,2.0037,1.9479,1.8851,1.8192,1.8138,0.0,0.0,0.0,0.0,0.0,0.0,0.0,0.0,0.0,0.0,0.0,0.0,0.0,0.0,0.0,0.0,0.0,0.0,0.0,1.9455,2.0303,2.0869,0.0,0.0,0.0,0.0,0.0,0.0,0.0,0.0,0.0,2.3928,2.3427,2.2745,0.0,0.0,2.0397,1.942,1.8795,1.8213,1.7687,1.7384,0.0,1.7067,1.6424,1.5785,1.5565,1.4606,1.3393,1.2144,1.1372,1.0653,0.9841,0.9403,0.9186,0.9005,0.872,0.8542,0.851,0.8345,0.824,0.8137,0.7988,0.7796,3.1086,3.0016,2.9555,2.921,2.9004,2.9004,2.9117,2.9401,2.9463,2.9425,2.9316,2.9316,2.8969,2.839,2.8298,0.0,0.0,0.0,2.9096,2.9292,2.9438,2.9592,2.9672,2.9799,2.9781,2.96,2.9186,2.8594,2.7903,2.7463,2.6549,2.5284,0.0,0.0,2.3167,2.3121,2.2989,2.2782,2.2936,2.2999,2.2879,2.2703,2.2515,2.2279,2.1834,2.1415,2.0878,2.0448,1.9802,1.8975,1.8954,1.8821,0.0,0.0,0.0,0.0,0.0,0.0,0.0,0.0,0.0,0.0,0.0,1.8213,1.8458,0.0,0.0,0.0,1.9235,1.9678,2.0371,2.1074,0.0,0.0,0.0,0.0,0.0,0.0,0.0,2.373,2.4082,2.4307,2.4307,2.3975,2.3327,2.2292,2.1441,2.0557,1.9583,0.0,1.8265,1.7799,1.7536,1.7331,1.7232,1.6743,1.6264,1.5838,1.4606,1.3423,1.25,1.1782,1.1021,1.0363,0.9926,0.9596,0.9158,0.8778,0.8508,0.8398,0.8184,0.7995,0.7988,0.7796,0.7593,3.2791,3.2335,3.1237,3.0418,2.9851,2.9851,2.993,3.0057,3.0256,3.0395,3.0501,3.0473,3.0339,3.0129,2.9806,0.0,2.971,2.9752,2.9982,3.0368,3.029,3.0642,3.1344,3.103,3.094,3.1048,3.0314,2.9437,2.8471,2.7962,2.7218,2.6248,2.5676,2.5071,2.4443,2.4495,2.4246,2.3676,2.4055,2.4068,2.3677,2.3298,2.3065,2.3113,2.2674,2.2224,2.1763,2.1314,2.0663,1.9789,1.9692,1.944,1.8942,0.0,0.0,0.0,0.0,0.0,0.0,0.0,0.0,0.0,0.0,0.0,0.0,0.0,0.0,0.0,2.0307,0.0,2.124,2.1721,0.0,0.0,0.0,2.2627,2.2666,2.3369,2.3857,2.3887,0.0,0.0,2.4411,2.4207,2.3737,2.2677,2.1632,2.066,1.9835,1.8997,1.8377,1.8062,1.7799,1.7536,1.7331,1.7173,1.669,1.5725,1.4552,1.364,1.2989,1.2223,1.1509,1.0747,1.0476,1.0135,0.9523,0.9094,0.879,0.856,0.8231,0.7988,0.7988,0.7743,0.749,3.3871,3.358,3.3276,3.2632,3.1812,3.1798,3.1939,3.2082,3.2145,3.2238,3.2304,3.1835,3.123,3.0628,3.0447,3.0371,3.0385,3.0892,3.1116,3.1111,3.1862,3.2123,3.1924,3.2134,3.2042,3.168,3.1312,3.0461,2.9123,2.8799,2.7972,2.6627,2.6289,2.5847,2.5319,2.5334,2.5193,2.4885,2.4815,2.4635,2.4309,2.4043,2.3934,2.3897,2.3784,2.3513,2.306,2.256,2.1857,2.1019,2.0587,2.0183,1.9813,1.9528,0.0,0.0,0.0,0.0,0.0,0.0,0.0,0.0,0.0,1.9033,1.9213,0.0,1.9897,0.0,2.1118,2.169,2.1935,2.2369,0.0,0.0,2.3223,2.3613,2.3926,2.415,2.4394,2.4773,2.4998,2.5005,2.48,2.4571,2.4026,2.2929,2.1869,2.0909,2.0138,1.9472,1.89,1.8377,1.8069,1.7911,1.7753,1.7219,1.6577,1.5945,1.503,1.4121,1.331,1.2654,1.1896,1.0966,1.0637,1.0311,0.9652,0.9186,0.8863,0.8694,0.8318,0.7988,0.7988,0.7637,0.7288,3.4677,3.4534,3.4614,3.4342,3.3782,3.302,3.2771,3.288,3.2972,3.3066,3.313,3.2729,3.2283,3.1777,3.1716,3.1686,3.1684,3.2066,3.2295,3.2394,3.2879,3.3039,3.2881,3.301,3.2803,3.2264,3.2069,3.1123,2.9583,2.9248,2.8394,2.6977,2.6748,2.6508,2.6211,2.5898,2.5676,2.5558,2.5382,2.517,2.4981,2.479,2.4683,2.4694,2.4683,2.4484,2.4014,2.3708,2.3046,2.195,2.1847,2.1378,2.0529,2.0424,2.0281,0.0,0.0,0.0,0.0,0.0,0.0,0.0,0.0,0.0,0.0,0.0,2.09,2.139,2.2168,2.2625,2.2639,2.3228,2.362,2.3717,2.4133,2.4453,2.4588,2.4785,2.4945,2.5086,2.5244,2.5314,2.5109,2.4735,2.4183,2.337,2.2426,2.1522,2.0601,1.9783,1.9175,1.8848,1.8429,1.8122,1.8016,1.7265,1.6571,1.6099,1.5244,1.439,1.3792,1.2985,1.2164,1.1559,1.1117,1.0604,1.0,0.9467,0.9127,0.8889,0.8496,0.8148,0.8038,0.764,0.7338,3.5228,3.5261,3.5457,3.5522,3.54,3.3982,3.3367,3.3304,3.3505,3.3553,3.3464,3.3449,3.3296,3.3053,3.3068,3.3053,3.3068,3.3173,3.3402,3.3739,3.3664,3.3748,3.3908,3.3764,3.3403,3.2846,3.2563,3.1529,2.9971,2.9535,2.8677,2.7442,2.7214,2.7092,2.7024,2.6383,2.605,2.5968,2.5758,2.5688,2.5653,2.5465,2.5382,2.5382,2.5382,2.5177,2.479,2.4693,2.4088,2.2906,2.319,2.2747,2.1378,2.1526,2.1395,0.0,2.0576,0.0,0.0,0.0,0.0,0.0,0.0,0.0,0.0,2.2015,2.2227,2.2752,2.3329,2.3596,2.3436,2.4109,2.4579,2.465,2.4997,2.5187,2.5063,2.5354,2.5535,2.5241,2.5546,2.5635,2.5333,2.4833,2.4381,2.3777,2.3079,2.2224,2.1267,2.0248,1.9532,1.9428,1.89,1.8429,1.8016,1.7378,1.6736,1.6371,1.5517,1.4654,1.4277,1.3413,1.259,1.2281,1.1617,1.0954,1.0474,0.9936,0.9489,0.9142,0.8721,0.8386,0.8137,0.7793,0.7543,3.5294,3.5457,3.5589,3.5671,3.564,3.5495,3.5292,3.5019,3.5066,3.4784,3.4276,3.4276,3.3947,3.3422,3.3392,3.3407,3.3453,3.3976,3.418,3.4122,3.4623,3.4718,3.4515,3.4346,3.4025,3.3569,3.2806,3.1798,3.0678,2.9876,2.8913,2.7888,2.7709,2.7503,2.7235,0.0,0.0,0.0,2.6154,2.6015,2.584,2.5793,2.5793,2.5805,2.5793,0.0,2.5646,2.523,2.4844,2.4468,2.4129,0.0,0.0,0.0,0.0,0.0,0.0,0.0,0.0,0.0,0.0,0.0,2.3602,2.3455,2.2612,2.3154,2.3831,2.439,2.4577,2.4616,2.4566,2.4871,2.5125,2.5289,2.5532,2.5795,2.6147,2.6267,2.6222,2.5933,2.6013,2.5868,2.5382,2.503,2.4637,2.4134,2.3529,2.2929,2.2274,2.1267,2.0454,2.0034,1.9472,1.8855,1.8122,1.7694,1.7206,1.6683,1.6099,1.5405,1.4696,1.4159,1.3385,1.2447,1.2007,1.1489,1.0531,1.0035,0.9684,0.926,0.8954,0.8627,0.8382,0.7942,0.7593,3.5872,0.0,3.5814,3.5863,0.0,3.5973,3.5925,3.5733,3.5748,3.5505,3.511,3.511,3.4866,3.4487,3.4487,3.4487,3.4502,3.4831,3.4949,3.4852,3.5083,3.5129,3.4964,3.475,3.4501,3.4216,3.3273,3.233,3.1429,3.0287,2.9321,2.8541,2.8314,2.8052,2.7776,2.7623,2.7255,2.6714,2.6636,2.6533,2.643,2.643,2.6465,2.643,2.643,0.0,0.0,0.0,0.0,0.0,0.0,0.0,0.0,0.0,0.0,2.3848,2.3658,2.3578,2.3635,2.3918,2.4166,2.4472,2.5076,2.5013,2.3959,2.4706,2.5251,2.5341,2.5442,2.5543,2.5594,2.5879,2.6146,2.6347,2.6667,2.6909,2.6877,2.688,2.6736,2.639,2.6294,2.6149,2.5761,2.546,2.5069,2.4578,2.4026,2.3479,2.2929,2.1979,2.1062,2.0403,1.9687,1.9175,1.8698,1.801,1.7523,1.716,1.6471,1.5725,1.5135,1.4476,1.3705,1.286,1.2267,1.1541,1.1018,1.0477,1.0079,0.9797,0.9476,0.9175,0.8981,0.8485,0.7939,3.6526,3.6172,3.6066,3.6037,3.6022,3.6084,3.6084,3.6068,0.0,0.0,0.0,3.5752,3.5686,3.5602,3.5602,3.5587,3.5587,3.5587,3.5602,3.5587,3.5424,3.5344,3.5344,3.51,3.4949,3.4802,3.3678,3.2778,3.2084,3.0698,2.9789,2.9299,2.8926,2.867,2.843,2.8137,2.7756,2.7281,2.7146,2.7092,2.7079,2.7079,2.7079,2.7079,2.7079,2.7079,2.7079,2.7079,2.6793,2.6245,2.6608,2.6375,2.5413,2.5589,2.5415,2.4781,2.4612,2.4688,2.4891,2.4927,2.5146,2.5668,2.6298,2.6396,2.574,2.6329,2.6576,2.6182,2.6281,2.6395,2.653,2.6801,2.7133,2.7415,2.7804,2.7904,2.7489,2.7441,2.7204,2.6736,2.664,2.6496,2.6197,2.5849,2.5557,2.5069,2.4569,2.4026,2.3429,2.2476,2.1479,2.0719,2.0109,1.9583,1.9272,1.8586,1.7884,1.7646,1.6805,1.6039,1.5505,1.4694,1.3975,1.3494,1.2532,1.1877,1.1613,1.1073,1.0614,1.0458,1.0117,0.9772,0.9673,0.9175,0.8581,3.6914,3.681,3.636,3.6179,3.6164,3.6352,3.6445,3.6383,3.6132,3.6005,3.5973,3.5973,3.5957,3.5925,3.5941,3.591,3.5957,3.5957,3.591,3.591,3.5925,3.5878,3.5878,3.5554,3.5407,3.5252,3.3662,3.2794,3.2526,3.0939,3.0031,2.9929,2.9634,2.932,2.899,2.8785,2.856,2.836,2.7756,2.7436,2.7436,2.7436,2.7436,2.7423,2.7436,2.7436,2.7436,2.7436,2.7397,2.7272,2.7338,2.7245,2.6982,2.6987,2.6845,2.6384,2.6337,2.6273,2.6164,2.6143,2.6483,2.7211,2.7634,2.7767,2.7619,2.7543,2.7533,2.7474,2.725,2.7144,2.7392,2.7532,2.7711,2.7913,2.815,2.8196,2.7951,2.7904,2.7726,2.7262,2.7225,2.6976,2.6534,2.6042,2.5742,2.5548,2.5118,2.4578,2.3935,2.2878,2.1776,2.107,2.0763,2.0403,1.9835,1.9376,1.8747,1.7949,1.7376,1.6665,1.5903,1.5257,1.4597,1.3958,1.3264,1.2676,1.2131,1.1668,1.1296,1.0953,1.0703,1.056,1.0364,1.0015,0.9525,3.7783,3.7479,3.6878,3.6631,3.6647,3.6739,3.6785,3.6754,3.6631,3.6352,3.6116,3.6085,3.6053,3.602,3.602,3.602,3.602,3.602,3.602,3.602,3.602,3.602,3.5988,3.5829,3.5765,3.5642,3.4082,3.3254,3.3026,3.1406,3.0553,3.0477,3.0158,2.9898,2.9744,2.9467,2.931,2.923,2.8509,2.8099,2.8085,2.8099,2.8099,2.8099,2.8099,2.8099,2.8099,2.8099,2.8066,2.7941,2.7941,2.7875,2.7736,2.7736,2.7603,2.731,2.7276,2.7222,2.7007,2.7199,2.7608,2.8254,2.8673,2.8974,2.9276,2.8711,2.8273,2.8171,2.7926,2.7929,2.8307,2.8284,2.8442,2.8968,2.9006,2.8885,2.8653,2.8466,2.829,2.7972,2.7773,2.7489,2.6965,2.6726,2.6428,2.6187,2.5664,2.5069,2.4421,2.3687,2.282,2.1979,2.1522,2.107,2.0454,1.9983,1.9383,1.8527,1.7909,1.715,1.6288,1.5681,1.5072,1.4454,1.3797,1.3258,1.2802,1.236,1.1975,1.1731,1.1389,1.1194,1.1051,1.0752,1.0113,3.8759,3.8232,3.7606,3.7231,3.7121,3.7075,3.7075,3.709,3.709,3.6846,3.6507,3.643,3.632,3.6226,3.6226,3.6241,3.6241,3.6226,3.6226,3.6226,3.6241,3.6226,3.6226,3.6163,3.6132,3.5948,3.4515,3.3728,3.3441,3.1931,3.1102,3.0955,3.0717,3.0553,3.0493,3.0282,3.0085,2.9993,2.9404,2.899,2.8858,2.8812,2.8812,2.8844,2.8812,2.8812,2.8812,2.8812,2.8734,2.8546,2.8546,2.8463,2.8262,2.8262,2.8183,2.802,2.7973,2.7954,2.7913,2.8185,2.863,2.9249,2.9559,2.9915,3.0355,2.9741,2.9079,2.8816,2.8538,2.8543,2.9066,2.9013,2.9236,2.9954,2.9852,2.9623,2.9312,2.9128,2.8907,2.8628,2.8337,2.8008,2.7631,2.7452,2.7167,2.663,2.6139,2.5557,2.4971,2.4578,2.3985,2.3229,2.2426,2.1768,2.1267,2.0719,2.0022,1.9185,1.8476,1.7676,1.6801,1.6124,1.5574,1.5038,1.44,1.3913,1.3715,1.3232,1.2802,1.2608,1.2268,1.1927,1.1785,1.134,1.0659,3.9768,3.9141,3.8573,3.7971,3.7389,3.7373,3.7358,3.7373,3.7373,3.7328,3.7238,3.7044,3.6908,3.6908,3.6908,3.6877,3.6877,3.6908,3.6877,3.6877,3.6908,3.6908,3.6847,3.6585,3.646,3.626,3.479,3.4045,3.3879,3.2372,3.1552,3.1466,3.1408,3.1321,3.1219,3.1161,3.0984,3.0718,3.0628,3.0251,2.9571,2.9509,2.9509,2.9509,2.9509,2.9509,2.9509,2.9509,2.9432,2.9247,2.9202,2.9058,2.8771,2.8753,2.8688,2.8554,2.8522,2.87,2.8986,2.9087,2.952,3.0392,3.0411,3.0482,3.0884,3.0685,3.0279,2.974,2.9131,2.9105,2.9768,2.9737,2.9875,3.0516,3.0532,3.0318,2.992,2.9794,2.9611,2.9082,2.8896,2.8617,2.829,2.7925,2.7452,2.7003,2.6524,2.6139,2.5897,2.547,2.5079,2.4529,2.3628,2.2677,2.2097,2.147,2.0751,1.9954,1.9082,1.8263,1.7465,1.6815,1.6333,1.5818,1.5296,1.4908,1.458,1.4154,1.3709,1.3474,1.3184,1.2807,1.2414,1.1927,1.1194,4.0626,4.0261,3.9226,3.8366,3.7746,3.7698,3.7698,3.7669,3.7682,3.7698,3.7685,3.7583,3.7419,3.7224,3.715,3.7119,3.7135,3.703,3.6999,3.6999,3.6999,3.6999,3.6969,3.6847,3.68,3.6708,3.5673,3.4919,3.4232,3.2877,3.2092,3.2035,3.202,3.2007,3.1951,3.1866,3.1695,3.1495,3.1379,3.1131,3.0748,3.0372,3.0189,3.0189,3.0189,3.0189,3.0189,3.0174,3.0038,2.9808,2.9777,2.9623,2.9306,2.9275,2.9243,2.9208,2.9444,2.9669,2.9819,3.029,3.073,3.1162,3.1253,3.1393,3.1482,3.1248,3.0874,3.0495,2.9805,2.9732,3.0474,3.0325,3.044,3.1177,3.1205,3.0949,3.0781,3.0454,3.0182,2.9806,2.9542,2.9277,2.885,2.8384,2.7961,2.7573,2.7194,2.6918,2.662,2.6245,2.5907,2.5567,2.4873,2.3926,2.3044,2.2268,2.1499,2.0597,1.9901,1.913,1.8085,1.766,1.7293,1.6636,1.6251,1.5913,1.5629,1.5051,1.4573,1.4334,1.3902,1.348,1.3087,1.2754,1.2268,4.1449,4.1079,3.9836,3.8808,3.8164,3.8148,3.8148,3.8148,3.8148,3.8148,3.8148,3.8148,3.8033,3.7754,3.7506,3.7387,3.7373,3.7285,3.7257,3.7241,3.7241,3.7241,3.7241,3.7195,3.7181,3.7071,3.6446,3.5589,3.4569,3.3305,3.2645,3.2645,3.266,3.266,3.2645,3.2551,3.2413,3.2247,3.2064,3.1908,3.1709,3.1321,3.0999,3.0866,3.0851,3.0866,3.0851,3.0866,3.0703,3.0433,3.0372,3.0206,2.996,2.9898,2.9953,3.0151,3.0404,3.0717,3.1007,3.1513,3.184,3.1914,3.2104,3.2155,3.2009,3.173,3.1471,3.1211,3.0609,3.0494,3.0823,3.0848,3.1134,3.181,3.1748,3.1649,3.1472,3.1116,3.0802,3.0532,3.0227,2.9874,2.9405,2.8943,2.8617,2.8326,2.8008,2.7736,2.7336,2.7013,2.6726,2.6428,2.5955,2.5128,2.3939,2.2966,2.2166,2.1318,2.0651,1.9835,1.8775,1.8558,1.8172,1.752,1.72,1.6871,1.648,1.5954,1.5432,1.5194,1.4765,1.4238,1.4046,1.3667,1.3431,4.2429,4.1615,4.0393,3.9469,3.8766,3.875,3.875,3.8706,3.875,3.875,3.875,3.8733,3.875,3.8667,3.8148,3.7905,3.786,3.7847,3.7847,3.7847,3.7847,3.7847,3.7831,3.773,3.7671,3.7594,3.6904,3.5802,3.4435,3.3645,3.3256,3.3282,3.3266,3.324,3.324,3.324,3.3076,3.2803,3.2722,3.2614,3.2398,3.2342,3.202,3.1566,3.1466,3.1451,3.1466,3.1451,3.1379,3.1234,3.1058,3.0911,3.0748,3.0642,3.0872,3.1366,3.1368,3.1739,3.2568,3.2647,3.2678,3.2877,3.2911,3.2775,3.2467,3.2264,3.2059,3.189,3.1458,3.1159,3.0993,3.1263,3.1628,3.1878,3.2345,3.2308,3.2033,3.1781,3.1516,3.1261,3.0847,3.0408,2.9931,2.9646,2.9405,2.9082,2.8675,2.8395,2.8243,2.7867,2.7536,2.7204,2.6774,2.6062,2.4993,2.3827,2.289,2.2084,2.127,2.0488,1.9945,1.9409,1.8904,1.845,1.8172,1.78,1.7326,1.6857,1.6386,1.6008,1.5527,1.5099,1.5003,1.458,1.4298,4.2673,4.2055,4.1132,4.0395,3.9798,3.9302,3.9044,3.9061,3.9044,3.9044,3.9044,3.9061,3.9044,3.9061,3.8843,3.8595,3.8359,3.8262,3.8221,3.8221,3.8221,3.8221,3.8221,3.818,3.8135,3.8087,3.7817,3.6922,3.5573,3.485,3.4272,3.387,3.3813,3.3797,3.3797,3.372,3.3591,3.3393,3.3288,3.3156,3.2985,3.2958,3.285,3.266,3.2287,3.2076,3.2061,3.2076,3.2007,3.1881,3.1739,3.1567,3.1424,3.1664,3.1916,3.2197,3.2704,3.3188,3.3543,3.3686,3.3733,3.3693,3.3597,3.3423,3.3143,3.2895,3.2646,3.2431,3.2178,3.186,3.1565,3.1565,3.188,3.2549,3.2588,3.2599,3.2654,3.2494,3.2176,3.1781,3.1339,3.0949,3.0769,3.0442,3.0159,3.0034,2.9634,2.9324,2.9082,2.8803,2.843,2.8055,2.7668,2.7185,2.6347,2.474,2.3504,2.2824,2.2062,2.1356,2.0772,2.0501,2.0085,1.9363,1.9096,1.8819,1.8295,1.7885,1.7372,1.6857,1.6379,1.6103,1.6055,1.5629,1.535,4.3046,4.2469,4.1728,4.11,4.0479,3.9698,3.9355,3.9339,3.9355,3.9355,3.9355,3.9382,3.9355,3.9339,3.9339,3.9222,3.8925,3.8766,3.8639,3.8655,3.8655,3.8639,3.8639,3.8655,3.8655,3.8634,3.8411,3.7785,3.6839,3.5892,3.5165,3.4683,3.443,3.4275,3.4226,3.4126,3.4025,3.3899,3.3797,3.371,3.3581,3.3555,3.3539,3.3503,3.3156,3.2861,3.2699,3.2672,3.2633,3.2496,3.2358,3.2254,3.2315,3.2623,3.3003,3.3382,3.3948,3.4401,3.4545,3.4666,3.462,3.4385,3.4216,3.4094,3.3882,3.3493,3.3199,3.3023,3.281,3.2574,3.2296,3.2064,3.2159,3.275,3.2645,3.2615,3.2789,3.2546,3.2239,3.192,3.1654,3.1488,3.148,3.1238,3.1015,3.0847,3.0454,3.0136,2.9897,2.9542,2.9231,2.8803,2.8524,2.7921,2.7101,2.5767,2.4548,2.3777,2.2773,2.2082,2.1713,2.149,2.1087,2.0365,1.9911,1.9637,1.9317,1.8866,1.8404,1.7893,1.7426,1.7091,1.6911,1.6676,1.6433,4.3679,4.2975,4.2222,4.1552,4.0886,4.0175,3.9763,3.9746,3.9729,3.9755,3.9738,3.9729,3.9755,3.9729,3.9755,3.9687,3.9635,3.9365,3.9232,3.9179,3.9179,3.9179,3.9195,3.9152,3.9195,3.9135,3.856,3.8254,3.8013,3.6837,3.6059,3.5679,3.5078,3.4766,3.4538,3.4521,3.4423,3.4349,3.43,3.4226,3.4109,3.4101,3.4101,3.4101,3.405,3.3822,3.3346,3.3319,3.324,3.3096,3.2962,3.3053,3.3465,3.3655,3.4046,3.4865,3.5064,3.5243,3.5584,3.5482,3.5234,3.4971,3.4935,3.4721,3.4399,3.4045,3.3825,3.3736,3.3479,3.3199,3.3023,3.2795,3.2591,3.2243,3.2515,3.2619,3.2418,3.199,3.176,3.1863,3.1868,3.1859,3.1993,3.1945,3.1769,3.1427,3.1116,3.0847,3.0668,3.0273,2.9874,2.9588,2.9303,2.8796,2.7839,2.6818,2.5821,2.4812,2.3659,2.2794,2.252,2.229,2.1891,2.1221,2.0826,2.0546,2.0048,1.9592,1.9371,1.8912,1.8496,1.8125,1.7939,1.7746,1.7466,4.4158,4.394,4.3341,4.2695,4.2055,4.1316,4.0739,4.028,4.0263,4.0263,4.0246,4.0246,4.0246,4.0246,4.0263,4.0263,4.0246,4.0146,3.9901,3.9592,3.9556,3.9556,3.9556,3.954,3.954,3.9523,3.9339,3.8972,3.8488,3.8003,3.7311,3.6352,3.6002,3.5595,3.5108,3.497,3.4899,3.4851,3.4756,3.4691,3.4643,3.4643,3.4643,3.4643,3.4643,3.4521,3.4259,3.4016,3.3797,3.3674,3.3974,3.4386,3.4785,3.5234,3.5587,3.5847,3.618,3.6307,3.6337,3.6101,3.5879,3.5671,3.5542,3.5282,3.4983,3.4735,3.4534,3.4414,3.4094,3.377,3.3597,3.3388,3.3195,3.2983,3.2785,3.2746,3.2738,3.2382,3.2344,3.2628,3.2494,3.2483,3.2739,3.2742,3.2438,3.2264,3.1913,3.1637,3.1504,3.1116,3.0781,3.0532,3.0158,2.959,2.8554,2.772,2.6955,2.5784,2.4576,2.3701,2.3396,2.3091,2.2652,2.2211,2.1811,2.132,2.0817,2.0501,2.0283,1.992,1.9463,1.9234,1.9096,1.8812,1.8488,4.4603,4.4601,4.3997,4.3532,4.3013,4.204,4.1347,4.0886,4.0612,4.0534,4.0558,4.0583,4.0607,4.0614,4.0655,4.0655,4.0655,4.0673,4.0468,4.0146,4.002,3.9995,3.9995,4.0011,3.9995,4.0011,4.0011,3.9775,3.9319,3.8991,3.84,3.7566,3.7172,3.6643,3.594,3.5763,3.5616,3.5341,3.5188,3.5142,3.5142,3.5118,3.5095,3.5095,3.5081,3.5127,3.5271,3.5062,3.4791,3.4619,3.5029,3.5562,3.6087,3.6449,3.6702,3.6875,3.7014,3.7118,3.6952,3.6723,3.6507,3.6352,3.6164,3.5926,3.5653,3.5427,3.5264,3.5067,3.4721,3.4433,3.4264,3.4074,3.3894,3.3603,3.3051,3.2786,3.2774,3.263,3.2712,3.3011,3.3094,3.3261,3.3432,3.3441,3.3142,3.297,3.2698,3.2382,3.2264,3.1957,3.1649,3.1383,3.108,3.0276,2.919,2.8517,2.8029,2.6781,2.5454,2.4807,2.4348,2.3993,2.3604,2.3091,2.2652,2.2167,2.1659,2.1579,2.1365,2.0916,2.0464,2.0229,2.0048,1.9691,1.9371,4.5032,4.4947,4.4297,4.3998,4.3751,4.2526,4.1841,4.1525,4.0977,4.0741,4.0762,4.0752,4.0799,4.0912,4.0935,4.0942,4.0935,4.0982,4.0965,4.0847,4.0686,4.0566,4.0485,4.0468,4.0468,4.0485,4.051,4.0476,4.0314,3.9819,3.9368,3.9,3.8414,3.7755,3.7074,3.6909,3.6587,3.609,3.5847,3.5757,3.5757,3.561,3.5565,3.5576,3.5658,3.5931,3.6377,3.653,3.6256,3.5756,3.6179,3.6718,3.7232,3.7289,3.7504,3.7873,3.7815,3.7669,3.7476,3.7298,3.7133,3.6966,3.6815,3.6585,3.6274,3.607,3.5926,3.5735,3.5427,3.5148,3.4968,3.4802,3.4544,3.4108,3.3382,3.2798,3.2336,3.2658,3.3102,3.3472,3.3741,3.4028,3.4194,3.4147,3.3907,3.3654,3.3471,3.3215,3.2957,3.2698,3.2382,3.214,3.1884,3.0999,2.9952,2.9302,2.8733,2.7681,2.6517,2.5893,2.5232,2.4807,2.4466,2.396,2.3484,2.3038,2.2696,2.252,2.2299,2.1856,2.149,2.1177,2.0907,2.0637,2.0419,4.5441,4.5433,4.5338,4.4991,4.4497,4.4012,4.3197,4.2254,4.1994,4.1544,4.1209,4.1088,4.1094,4.1117,4.1226,4.1267,4.129,4.1358,4.1426,4.1403,4.1358,4.1105,4.0847,4.0799,4.0799,4.0799,4.0806,4.0799,4.0782,4.0582,4.0173,3.9576,3.9428,3.8906,3.8248,3.811,3.8047,3.771,3.7124,3.684,3.6818,3.6706,3.6656,3.6707,3.716,3.7471,3.7706,3.8101,3.8102,3.7692,3.7645,3.8028,3.8552,3.8532,3.8466,3.849,3.8444,3.8303,3.8103,3.7873,3.7711,3.7637,3.7387,3.7088,3.6753,3.6662,3.6538,3.6305,3.5988,3.5782,3.5671,3.5397,3.507,3.4668,3.4,3.3459,3.3401,3.3422,3.3717,3.4444,3.4641,3.4821,3.4927,3.4949,3.4729,3.4426,3.423,3.4034,3.3725,3.3458,3.3232,3.2867,3.2479,3.1623,3.0793,3.0109,2.9378,2.8469,2.762,2.6999,2.6216,2.5485,2.5189,2.4807,2.4423,2.3983,2.3647,2.344,2.3091,2.2818,2.2564,2.2246,2.2024,2.1802,2.1535,4.5675,4.5718,4.5829,4.5643,4.5232,4.4984,4.4362,4.3523,4.2801,4.2357,4.1908,4.1558,4.1475,4.1538,4.1622,4.1644,4.1666,4.1732,4.1771,4.1776,4.1754,4.1538,4.1267,4.1198,4.1198,4.1198,4.1198,4.1198,4.1198,4.1198,4.092,4.0624,4.0502,4.008,3.9363,3.9311,3.9115,3.8759,3.8256,3.8005,3.8005,3.7895,3.7828,3.7858,3.8265,3.8471,3.8796,3.9426,3.9457,3.8875,3.8806,3.9113,3.9411,3.9292,3.9175,3.9077,3.8925,3.8788,3.8639,3.8415,3.8258,3.8144,3.7886,3.7592,3.7356,3.7266,3.7134,3.6892,3.6585,3.6414,3.629,3.5928,3.5741,3.5735,3.5198,3.471,3.4455,3.4725,3.5102,3.5516,3.5726,3.5725,3.583,3.5683,3.5453,3.5182,3.4936,3.4743,3.4535,3.4301,3.4024,3.374,3.3129,3.2279,3.1502,3.0838,3.0034,2.9135,2.8633,2.8011,2.7162,2.6351,2.5977,2.5684,2.5316,2.4978,2.4647,2.4348,2.4122,2.3854,2.357,2.3309,2.3038,2.2862,2.2643,4.5897,4.5897,4.603,4.6062,4.5947,4.5508,4.5211,4.4859,4.3786,4.3115,4.2816,4.2251,4.2047,4.2048,4.1991,4.203,4.203,4.2072,4.2072,4.2072,4.2072,4.1948,4.1762,4.1631,4.1626,4.1626,4.1648,4.1626,4.1622,4.1622,4.1644,4.1499,4.1516,4.1214,4.0609,4.0482,4.0071,3.9621,3.9299,3.9155,3.9133,3.9047,3.8981,3.8994,3.9175,3.9437,3.9928,4.0429,4.0418,3.9287,3.9724,3.9919,3.9952,3.972,3.959,3.9563,3.9382,3.9222,3.9104,3.8969,3.8832,3.8694,3.8399,3.8144,3.8001,3.7857,3.7698,3.7476,3.7177,3.6996,3.6845,3.643,3.647,3.6767,3.6733,3.6301,3.593,3.6324,3.6733,3.6632,3.6939,3.6855,3.6598,3.6387,3.6282,3.5977,3.5736,3.5535,3.5304,3.5073,3.4827,3.4607,3.3862,3.2992,3.2235,3.1496,3.0633,2.9817,2.9495,2.8937,2.8051,2.7325,2.6876,2.6517,2.6227,2.5893,2.5538,2.5274,2.5094,2.4882,2.4594,2.4294,2.3993,2.3864,2.3691,4.6423,4.6447,4.6471,4.6471,4.6459,4.6324,4.5988,4.5491,4.5136,4.4356,4.3554,4.322,4.281,4.2279,4.2358,4.2328,4.2328,4.2409,4.247,4.2488,4.2488,4.245,4.231,4.2124,4.1973,4.1948,4.1991,4.197,4.1945,4.1945,4.1902,4.1923,4.1927,4.1831,4.1637,4.1509,4.158,4.1255,4.0644,4.0267,4.0267,4.0178,4.0131,4.0166,4.0578,4.0896,4.0999,4.1202,4.1094,4.0798,4.0583,4.051,4.0362,4.0213,4.0113,4.0037,3.9884,3.9713,3.9661,3.9468,3.9325,3.9255,3.8969,3.875,3.8623,3.8455,3.8258,3.8014,3.7783,3.7608,3.7342,3.6952,3.7188,3.7684,3.7984,3.8147,3.8197,3.7846,3.7755,3.7928,3.7922,3.7787,3.7404,3.7313,3.712,3.6783,3.6533,3.6336,3.6084,3.5843,3.5656,3.5413,3.4527,3.3688,3.3013,3.2174,3.1201,3.0572,3.0267,2.9934,2.9094,2.8371,2.7931,2.7528,2.7174,2.6805,2.6498,2.6279,2.6102,2.5852,2.5611,2.5316,2.502,2.4893,2.4647,4.6778,4.6778,4.6883,4.6888,4.6888,4.6898,4.6712,4.6369,4.5994,4.5465,4.4814,4.4402,4.3739,4.3041,4.3088,4.3003,4.2663,4.2689,4.2728,4.2728,4.2728,4.2728,4.2765,4.2611,4.249,4.2325,4.2328,4.2308,4.2284,4.2264,4.2284,4.2284,4.2282,4.2243,4.2184,4.2202,4.2145,4.205,4.1706,4.1381,4.1398,4.1374,4.129,4.1283,4.1607,4.1732,4.167,4.1688,4.1604,4.1475,4.1295,4.1059,4.0817,4.0655,4.0558,4.0478,4.0379,4.0205,4.0062,3.9935,3.9824,3.9694,3.9468,3.9265,3.9131,3.898,3.8788,3.8567,3.8371,3.8201,3.7934,3.7991,3.8207,3.8778,3.9266,3.9679,4.0006,3.9423,3.8803,3.8979,3.8841,3.8575,3.8315,3.8202,3.7938,3.762,3.7211,3.7003,3.69,3.6691,3.6455,3.6077,3.5196,3.4415,3.3758,3.2858,3.1697,3.1248,3.1048,3.0735,3.0228,2.9561,2.8964,2.853,2.8063,2.7805,2.7482,2.7267,2.7051,2.6805,2.6558,2.6279,2.603,2.581,2.5569,4.7088,4.7111,4.7223,4.7267,4.7307,4.732,4.7327,4.7241,4.6722,4.6383,4.6167,4.5536,4.4856,4.4223,4.3978,4.3583,4.3042,4.2918,4.2957,4.2938,4.2957,4.2957,4.2957,4.2975,4.2918,4.2689,4.2688,4.2668,4.2649,4.2631,4.2591,4.2649,4.2649,4.2589,4.2512,4.2452,4.245,4.2371,4.2277,4.2203,4.2221,4.2239,4.216,4.2115,4.2068,4.2076,4.2055,4.2051,4.2009,4.1888,4.1862,4.1644,4.1353,4.1053,4.0918,4.0817,4.0769,4.0648,4.0485,4.0404,4.0263,4.0028,3.991,3.9755,3.9625,3.9451,3.9249,3.9088,3.8925,3.8771,3.8683,3.8847,3.9411,4.0075,4.0577,4.1023,4.135,4.0786,4.0289,3.99,3.9702,3.9364,3.9111,3.8929,3.8708,3.8412,3.8052,3.7749,3.7672,3.7495,3.7289,3.6926,3.6105,3.4885,3.413,3.3464,3.2296,3.1946,3.1776,3.1519,3.1222,3.0684,3.0012,2.9419,2.8988,2.8685,2.8407,2.8195,2.7995,2.7753,2.751,2.7185,2.6928,2.6723,2.6445,4.7468,4.7572,4.7593,4.7615,4.7633,4.7636,4.7663,4.771,4.7547,4.7209,4.6743,4.6542,4.6051,4.5343,4.458,4.3924,4.3433,4.3251,4.3178,4.3178,4.3178,4.3178,4.3178,4.3214,4.3178,4.3105,4.305,4.2975,4.2862,4.2844,4.2844,4.2862,4.2862,4.2824,4.2805,4.2765,4.2727,4.2688,4.2629,4.2571,4.2589,4.257,4.2552,4.2492,4.249,4.2412,4.2331,4.2331,4.2308,4.2207,4.2103,4.1998,4.1849,4.1542,4.134,4.1244,4.1146,4.1029,4.0935,4.0864,4.0745,4.0583,4.0419,4.0288,4.0138,3.9952,3.9755,3.9573,3.9412,3.9319,3.978,3.9923,4.0388,4.1102,4.1549,4.1703,4.2045,4.19,4.1407,4.0987,4.0612,4.0196,3.99,3.9687,3.9508,3.922,3.8819,3.8598,3.8523,3.83,3.8052,3.7618,3.7123,3.5716,3.4455,3.3752,3.2974,3.2704,3.2489,3.2309,3.2019,3.1666,3.1097,3.0558,2.9986,2.9561,2.9289,2.9106,2.8961,2.8752,2.8435,2.8127,2.7834,2.758,2.7377,4.7806,4.7847,4.7847,4.7888,4.7966,4.7968,4.799,4.8053,4.8055,4.7892,4.7656,4.7547,4.7126,4.6469,4.6122,4.5296,4.4305,4.3644,4.3552,4.3516,4.3516,4.3497,4.348,4.348,4.3497,4.3497,4.3464,4.3305,4.3087,4.305,4.305,4.305,4.305,4.305,4.305,4.3031,4.3012,4.2975,4.2938,4.29,4.2918,4.2899,4.286,4.2842,4.2767,4.2689,4.2611,4.2609,4.255,4.247,4.2409,4.2369,4.2269,4.2103,4.1827,4.1631,4.1515,4.142,4.1353,4.1221,4.1105,4.0971,4.0871,4.0752,4.0607,4.0412,4.023,4.0096,4.0296,4.0304,4.0538,4.1073,4.1761,4.2166,4.2463,4.2673,4.2814,4.271,4.2381,4.198,4.1474,4.1005,4.0646,4.0439,4.0301,4.0005,3.9631,3.9472,3.94,3.9111,3.8819,3.837,3.7835,3.6664,3.536,3.4566,3.3779,3.3444,3.3234,3.3058,3.281,3.2489,3.22,3.1809,3.1206,3.057,3.0228,3.005,2.9896,2.9741,2.938,2.9015,2.8673,2.8395,2.8235,4.8111,4.8131,4.8113,4.817,4.8267,4.8267,4.8305,4.8363,4.8345,4.8345,4.8363,4.8308,4.7977,4.75,4.7132,4.6504,4.5244,4.4544,4.4306,4.4085,4.4068,4.4009,4.3806,4.3788,4.3771,4.3719,4.3738,4.3635,4.341,4.3358,4.3322,4.334,4.334,4.3322,4.334,4.3304,4.3286,4.3268,4.325,4.325,4.3251,4.3196,4.3142,4.3105,4.3031,4.2919,4.288,4.288,4.2842,4.2765,4.2727,4.2707,4.267,4.2571,4.2351,4.2058,4.1952,4.1845,4.1714,4.1609,4.1498,4.1363,4.1284,4.1169,4.1006,4.0858,4.0741,4.0726,4.0934,4.1451,4.1767,4.2476,4.3009,4.3253,4.351,4.368,4.3519,4.3355,4.3204,4.2758,4.2285,4.1835,4.144,4.1223,4.1107,4.0783,4.0389,4.025,4.0111,3.9829,3.9484,3.9101,3.8454,3.7473,3.6432,3.5575,3.4801,3.4113,3.3997,3.3859,3.3618,3.3339,3.3044,3.2783,3.2367,3.1773,3.1394,3.0973,3.0735,3.0508,3.0228,2.9909,2.9588,2.9367,2.9223,4.8476,4.8532,4.8514,4.8532,4.855,4.855,4.8569,4.8569,4.8569,4.8569,4.8587,4.8587,4.8513,4.8255,4.7627,4.6906,4.6241,4.5813,4.5404,4.4977,4.4905,4.4609,4.3987,4.3788,4.3983,4.398,4.389,4.3788,4.3703,4.3703,4.3704,4.3669,4.3652,4.3703,4.3635,4.3566,4.3563,4.3546,4.3496,4.348,4.3463,4.3339,4.3303,4.3268,4.3232,4.3178,4.316,4.3142,4.3142,4.3105,4.3068,4.3049,4.3012,4.29,4.2823,4.2629,4.243,4.2166,4.2079,4.1998,4.1913,4.1762,4.171,4.1582,4.1393,4.1314,4.1352,4.1788,4.1871,4.2295,4.2995,4.3476,4.3823,4.4062,4.4255,4.4236,4.408,4.3964,4.3802,4.3595,4.3111,4.2664,4.2222,4.2045,4.1866,4.1522,4.1223,4.1055,4.0851,4.0562,4.025,3.9862,3.9267,3.8299,3.7349,3.6529,3.5715,3.4909,3.4754,3.4654,3.437,3.4119,3.3928,3.3604,3.3255,3.2881,3.2381,3.1982,3.1629,3.1296,3.1046,3.0771,3.0507,3.033,3.0126,4.8873,4.8767,4.8767,4.8803,4.8819,4.8801,4.8872,4.8925,4.8942,4.8942,4.8942,4.8942,4.8942,4.8757,4.8105,4.7566,4.7157,4.6766,4.6339,4.6025,4.5929,4.5762,4.5462,4.5018,4.4761,4.4649,4.4333,4.4123,4.4061,4.3939,4.3804,4.3804,4.3804,4.3771,4.3837,4.3753,4.3718,4.3701,4.3667,4.3669,4.3651,4.3617,4.36,4.36,4.3549,4.3479,4.3426,4.3426,4.341,4.3357,4.3286,4.3214,4.3178,4.3123,4.3031,4.3031,4.29,4.2689,4.2432,4.2331,4.2228,4.2124,4.2037,4.1866,4.1741,4.1923,4.2079,4.2299,4.3155,4.3754,4.4182,4.4526,4.4765,4.4949,4.4927,4.478,4.4648,4.4525,4.4412,4.4196,4.3977,4.3519,4.3096,4.2805,4.2555,4.2222,4.19,4.1704,4.154,4.1307,4.1005,4.065,3.9995,3.9182,3.8274,3.7408,3.6559,3.5864,3.5509,3.5365,3.5088,3.4843,3.4691,3.4539,3.4269,3.3845,3.336,3.281,3.2273,3.2055,3.1909,3.164,3.1368,3.1158,3.0947,4.9273,4.9094,4.9044,4.9061,4.9092,4.9092,4.916,4.9244,4.9225,4.9244,4.9244,4.9244,4.9244,4.915,4.8683,4.8383,4.829,4.767,4.7277,4.7146,4.7052,4.6921,4.6513,4.6064,4.5859,4.5874,4.5447,4.5185,4.4961,4.4615,4.4289,4.3934,4.3963,4.3947,4.395,4.3947,4.3947,4.3947,4.3947,4.3931,4.3931,4.3899,4.3865,4.3849,4.3832,4.3802,4.3699,4.3664,4.3649,4.3566,4.3515,4.3444,4.3444,4.3428,4.3339,4.3322,4.325,4.3124,4.2844,4.2671,4.2571,4.2452,4.2346,4.2231,4.2406,4.278,4.3328,4.3453,4.4149,4.4747,4.5077,4.5473,4.5502,4.5503,4.545,4.5292,4.5177,4.5042,4.4923,4.4686,4.4519,4.4395,4.3977,4.3595,4.3265,4.2896,4.2617,4.2349,4.2158,4.1964,4.1704,4.1374,4.1041,4.0299,3.9399,3.8442,3.7556,3.6844,3.6488,3.6115,3.5861,3.5671,3.5494,3.5379,3.5184,3.4872,3.4409,3.3659,3.2952,3.2846,3.2704,3.2453,3.2237,3.2019,3.174,4.9644,4.9615,4.9446,4.9384,4.9368,4.9384,4.9365,4.9384,4.9399,4.9399,4.9399,4.9399,4.9399,4.9346,4.9305,4.9212,4.9249,4.923,4.8667,4.8236,4.8048,4.7763,4.7387,4.7087,4.688,4.6861,4.6505,4.6505,4.6542,4.5752,4.5088,4.4397,4.4337,4.4278,4.424,4.4211,4.4211,4.4226,4.4226,4.4226,4.4192,4.4143,4.4079,4.4064,4.4002,4.3942,4.3899,4.3897,4.3865,4.382,4.3769,4.3734,4.3734,4.3703,4.3634,4.3766,4.375,4.3683,4.3597,4.3195,4.2955,4.2764,4.2769,4.2969,4.3388,4.3326,4.3912,4.4946,4.534,4.5646,4.5956,4.62,4.6112,4.6013,4.5912,4.5786,4.5658,4.5555,4.5398,4.5203,4.5042,4.4906,4.4769,4.439,4.3889,4.3502,4.3171,4.2896,4.2726,4.2539,4.2349,4.2126,4.2045,4.147,4.0594,3.974,3.8984,3.8122,3.7561,3.708,3.663,3.6475,3.6274,3.6038,3.5832,3.564,3.535,3.4643,3.4051,3.3722,3.3479,3.3199,3.2952,3.2739,3.2417,4.9885,4.9885,4.9838,4.9741,4.9585,4.9604,4.9585,4.9585,4.9585,4.9585,4.9585,4.9585,4.9585,4.9585,4.9585,4.9585,4.9585,4.9604,4.934,4.9227,4.9039,4.8922,4.8564,4.8112,4.7853,4.7773,4.7453,4.7113,4.7,4.6788,4.6572,4.5923,4.5101,4.4524,4.443,4.4599,4.4543,4.4505,4.4486,4.4449,4.4397,4.434,4.4292,4.4277,4.4203,4.4177,4.415,4.415,4.4135,4.4126,4.4098,4.4138,4.4143,4.408,4.42,4.4482,4.4504,4.4623,4.463,4.4034,4.3378,4.3847,4.4058,4.4357,4.4599,4.4833,4.519,4.5815,4.6226,4.6545,4.663,4.6643,4.6525,4.6453,4.6357,4.6211,4.6112,4.6038,4.5887,4.5684,4.5555,4.545,4.5292,4.5133,4.4614,4.415,4.3785,4.3459,4.3279,4.3127,4.2943,4.2774,4.268,4.2345,4.1497,4.0891,4.038,3.9557,3.8675,3.8209,3.7759,3.7152,3.6967,3.6754,3.6538,3.6337,3.6054,3.5559,3.507,3.4606,3.4216,3.3874,3.3667,3.3423,3.3143,5.0063,5.0108,5.0145,5.0031,4.9816,4.9835,4.9816,4.9821,4.9835,4.9835,4.9816,4.9821,4.9821,4.9835,4.9835,4.9835,4.983,4.9816,4.9816,4.9759,4.9773,4.9835,4.9594,4.9305,4.8921,4.8742,4.8453,4.8164,4.8253,4.7861,4.7672,4.7197,4.6299,4.5679,4.5411,4.5317,4.5298,4.5298,4.5317,4.5317,4.5341,4.5331,4.5336,4.5359,4.5354,4.5344,4.5352,4.5375,4.5304,4.5241,4.5159,4.5021,4.4922,4.4898,4.5061,4.5329,4.5609,4.5819,4.5737,4.5254,4.4363,4.4802,4.5128,4.5432,4.5804,4.6137,4.6248,4.6632,4.7072,4.729,4.7178,4.7053,4.6939,4.6888,4.6795,4.6678,4.6566,4.6471,4.6308,4.6161,4.6038,4.5895,4.5735,4.5555,4.5133,4.4669,4.435,4.4076,4.3885,4.3756,4.3595,4.3446,4.3265,4.2848,4.2307,4.1852,4.1387,4.0901,4.0121,3.9572,3.9054,3.8424,3.7912,3.7783,3.7539,3.7167,3.6754,3.6305,3.5847,3.5362,3.4968,3.4501,3.4332,3.4079,3.377,5.0243,5.029,5.029,5.0219,5.0095,5.0095,5.0082,5.007,5.005,5.007,5.007,5.007,5.0082,5.0082,5.007,5.0057,5.005,5.005,5.005,5.0057,5.0057,5.007,5.005,4.9917,4.9727,5.0006,4.9702,4.9518,4.9752,4.9081,4.8827,4.8631,4.7884,4.7214,4.7116,4.7103,4.7103,4.7084,4.6984,4.6909,4.6833,4.6776,4.6744,4.6711,4.6679,4.6581,4.6525,4.6511,4.6464,4.6444,4.6423,4.6394,4.6402,4.6345,4.643,4.6635,4.6657,4.6666,4.6624,4.6235,4.6063,4.5938,4.6177,4.6394,4.6662,4.6873,4.7011,4.7422,4.7669,4.7636,4.7551,4.7468,4.7338,4.7267,4.716,4.7088,4.6957,4.6847,4.6713,4.6613,4.6477,4.6332,4.6161,4.5938,4.558,4.5203,4.4923,4.4703,4.4502,4.4333,4.4179,4.4035,4.3889,4.3626,4.3194,4.2816,4.2398,4.1996,4.154,4.0952,4.0414,3.9859,3.9379,3.9015,3.8704,3.8439,3.7793,3.7103,3.6646,3.6164,3.5539,3.5115,3.4949,3.4702,3.4419,5.0424,5.0446,5.0446,5.0412,5.0348,5.0267,5.0231,5.0231,5.0231,5.0231,5.0231,5.0231,5.0231,5.0231,5.0243,5.0231,5.0231,5.0231,5.0231,5.0212,5.0231,5.0231,5.0231,5.0207,5.0182,5.0158,5.0133,5.012,5.0019,4.9733,4.972,4.9537,4.9212,4.8586,4.7783,4.7466,4.7447,4.7447,4.7428,4.7447,4.7492,4.7473,4.7466,4.7491,4.7484,4.747,4.744,4.7464,4.7437,4.7382,4.7344,4.7307,4.7259,4.7164,4.7308,4.7594,4.7733,4.7956,4.8181,4.817,4.7707,4.7367,4.7279,4.7574,4.7884,4.7901,4.8007,4.8,4.805,4.7949,4.785,4.7728,4.7645,4.76,4.7515,4.7403,4.7316,4.7209,4.708,4.7025,4.6911,4.6754,4.659,4.6423,4.6087,4.5837,4.558,4.5283,4.5079,4.4879,4.4731,4.4603,4.4463,4.4305,4.4068,4.3749,4.3523,4.321,4.2779,4.2265,4.1753,4.1247,4.0799,4.0384,4.0069,3.9709,3.8988,3.825,3.7557,3.6952,3.6629,3.6029,3.5638,3.5365,3.499,5.0585,5.0595,5.0605,5.0595,5.0575,5.0438,5.0371,5.0371,5.0371,5.0379,5.0359,5.0359,5.0371,5.0359,5.0359,5.0371,5.039,5.0359,5.0371,5.0371,5.0371,5.0371,5.0348,5.0325,5.0325,5.029,5.0267,5.0255,5.0267,5.0236,5.0197,5.019,5.0224,4.9618,4.8895,4.8677,4.8573,4.8618,4.8656,4.8618,4.858,4.8529,4.8466,4.8473,4.8466,4.8409,4.8313,4.8249,4.8217,4.8159,4.8132,4.8137,4.811,4.8149,4.832,4.8654,4.8817,4.8987,4.9177,4.9259,4.8693,4.825,4.8597,4.8659,4.8642,4.8495,4.8421,4.8382,4.8343,4.8267,4.817,4.8034,4.7994,4.7933,4.785,4.7744,4.7642,4.7539,4.7475,4.7407,4.729,4.7138,4.7002,4.6865,4.6637,4.6447,4.6235,4.5963,4.5658,4.5424,4.5257,4.515,4.5042,4.4889,4.4835,4.4705,4.455,4.4435,4.3951,4.344,4.3104,4.2629,4.2192,4.1707,4.1257,4.0757,4.014,3.948,3.8988,3.8583,3.8243,3.7515,3.6553,3.6129,3.5901,5.0729,5.0801,5.0821,5.0793,5.0766,5.0585,5.0502,5.0521,5.0502,5.0502,5.0502,5.0532,5.0532,5.0521,5.0502,5.0502,5.0511,5.0511,5.0511,5.0511,5.0511,5.0511,5.05,5.0489,5.0468,5.0489,5.0468,5.0424,5.0478,5.0446,5.0446,5.0468,5.0446,5.0197,5.0007,4.9851,4.9756,4.9692,4.968,4.9654,4.9635,4.9808,4.9725,4.9694,4.9688,4.9682,4.9657,4.9683,4.9746,4.9778,4.9841,4.9872,4.9889,4.9833,4.9816,4.9755,4.9655,4.9621,4.9581,4.9585,4.9491,4.9096,4.9064,4.8993,4.8874,4.8821,4.875,4.866,4.8605,4.855,4.8476,4.842,4.8363,4.8286,4.8189,4.811,4.8012,4.7931,4.7832,4.7728,4.7578,4.745,4.7298,4.7165,4.7098,4.7025,4.6824,4.6596,4.6291,4.5945,4.5786,4.5658,4.5555,4.5468,4.5398,4.5372,4.5239,4.5015,4.4934,4.4555,4.4245,4.391,4.3474,4.2975,4.2361,4.1805,4.1295,4.0968,4.0692,4.0232,3.9636,3.8928,3.7995,3.7375,3.703,5.0784,5.0821,5.0821,5.0821,5.0793,5.0739,5.0711,5.0692,5.0711,5.0711,5.0711,5.072,5.0692,5.0711,5.0654,5.0635,5.0635,5.0625,5.0643,5.0643,5.0643,5.0624,5.0614,5.0613,5.0593,5.0553,5.0532,5.0532,5.0511,5.0511,5.0511,5.05,5.0521,5.0521,5.0489,5.0416,5.0382,5.0359,5.0348,5.0337,5.0348,5.0348,5.0348,5.0337,5.0302,5.0278,5.0255,5.0207,5.0182,5.012,5.0095,5.0082,5.007,5.0031,5.0005,5.0005,4.9933,4.9885,4.9816,4.9778,4.9721,4.9644,4.9525,4.9368,4.9209,4.9094,4.9027,4.8923,4.8872,4.882,4.875,4.8697,4.8642,4.855,4.8476,4.8401,4.8325,4.8248,4.8152,4.8032,4.787,4.7767,4.7642,4.7557,4.7515,4.7468,4.7359,4.7165,4.6898,4.6554,4.6308,4.6144,4.607,4.5988,4.593,4.5887,4.576,4.5624,4.552,4.5415,4.5075,4.4778,4.4626,4.4174,4.3501,4.3008,4.2562,4.2242,4.1974,4.1399,4.0762,4.0113,3.9471,3.8868,3.8341,5.094,5.0901,5.0921,5.0921,5.0921,5.0921,5.0921,5.0893,5.0836,5.0821,5.0821,5.0812,5.0821,5.0793,5.0738,5.0748,5.0739,5.072,5.073,5.073,5.0721,5.073,5.0712,5.0693,5.0693,5.0664,5.0654,5.0664,5.0605,5.0585,5.0604,5.0585,5.0565,5.0573,5.0593,5.0582,5.0563,5.0542,5.0513,5.0511,5.0511,5.0511,5.05,5.05,5.0457,5.0424,5.0382,5.0325,5.029,5.0267,5.0267,5.0243,5.0219,5.0182,5.0108,5.0095,5.0057,5.0018,4.9959,4.9939,4.9898,4.9876,4.9835,4.9717,4.9566,4.943,4.9273,4.916,4.9127,4.9077,4.8993,4.8926,4.8855,4.8785,4.8732,4.8697,4.8624,4.855,4.8438,4.8323,4.8208,4.8092,4.8012,4.7951,4.7909,4.7868,4.7806,4.7663,4.7367,4.7035,4.6783,4.6596,4.6548,4.6501,4.6453,4.6398,4.6277,4.6154,4.603,4.5887,4.5735,4.5546,4.5312,4.4972,4.4578,4.413,4.3696,4.3468,4.3171,4.2585,4.2247,4.1984,4.1281,4.0331,3.9841,5.1088,5.1081,5.1088,5.1081,5.1088,5.1081,5.1081,5.1074,5.0909,5.0816,5.0836,5.0846,5.0863,5.0861,5.0844,5.0819,5.081,5.0801,5.0784,5.0782,5.0775,5.0775,5.0803,5.0812,5.0776,5.0803,5.0803,5.0758,5.0766,5.073,5.0682,5.0701,5.0702,5.0702,5.0702,5.0702,5.0702,5.0673,5.0624,5.0573,5.0542,5.0521,5.0511,5.0521,5.0511,5.05,5.05,5.05,5.05,5.0481,5.047,5.0427,5.0371,5.0302,5.0219,5.0194,5.0182,5.0139,5.0114,5.0089,5.0063,5.0057,5.0044,4.9965,4.983,4.9659,4.9476,4.9402,4.9352,4.9305,4.926,4.9211,4.9144,4.9077,4.901,4.8959,4.8907,4.882,4.8696,4.8606,4.8532,4.842,4.8363,4.8305,4.8248,4.8228,4.8168,4.8052,4.7891,4.7557,4.732,4.712,4.7053,4.7007,4.6939,4.6847,4.6754,4.6637,4.6518,4.6423,4.6284,4.6112,4.5938,4.5605,4.5243,4.5146,4.4856,4.4551,4.4286,4.4062,4.3839,4.3908,4.3211,4.1999,4.1392,5.1094,5.1081,5.1081,5.1081,5.1101,5.1081,5.1101,5.1094,5.105,5.1016,5.1012,5.1005,5.0998,5.099,5.0968,5.0925,5.0893,5.0897,5.0855,5.0827,5.0819,5.0855,5.0829,5.0855,5.0838,5.0821,5.0821,5.0838,5.0838,5.0801,5.0764,5.0784,5.0776,5.0767,5.0767,5.0767,5.0767,5.0758,5.074,5.0683,5.0634,5.0653,5.0653,5.0633,5.0604,5.0563,5.0553,5.0532,5.0511,5.05,5.05,5.0489,5.0459,5.0427,5.0416,5.0404,5.0371,5.0325,5.0259,5.0224,5.02,5.0145,5.0108,5.0082,4.9992,4.983,4.9717,4.9663,4.9604,4.9559,4.9514,4.9483,4.9434,4.9337,4.9239,4.9225,4.9193,4.9077,4.894,4.889,4.8839,4.8768,4.8697,4.866,4.8587,4.8532,4.8457,4.8381,4.8324,4.8111,4.787,4.7666,4.7554,4.749,4.7403,4.7276,4.7147,4.707,4.6939,4.687,4.6801,4.659,4.6357,4.6137,4.5877,4.576,4.5606,4.5433,4.5206,4.4998,4.4835,4.4669,4.4491,4.3563,4.3065,5.1145,5.1145,5.1125,5.1139,5.1145,5.1145,5.1145,5.1145,5.1145,5.1142,5.1126,5.1108,5.1089,5.1101,5.1048,5.1046,5.0998,5.0995,5.0987,5.0945,5.0909,5.0937,5.0929,5.0921,5.0945,5.0937,5.0956,5.0956,5.0921,5.0869,5.0852,5.0852,5.0836,5.0829,5.0829,5.0801,5.0829,5.0821,5.0829,5.0794,5.073,5.0721,5.0702,5.0683,5.0654,5.0624,5.0633,5.0594,5.0584,5.0582,5.0582,5.0542,5.0532,5.05,5.05,5.0489,5.0478,5.0478,5.0404,5.0371,5.0329,5.0278,5.0267,5.029,5.0194,5.0057,4.9965,4.9898,4.9843,4.9802,4.9688,4.9644,4.9619,4.954,4.951,4.948,4.9434,4.9355,4.9257,4.9158,4.9127,4.9061,4.901,4.8978,4.8907,4.882,4.8732,4.8678,4.8642,4.8624,4.8382,4.8209,4.8052,4.7929,4.7847,4.7666,4.75,4.7432,4.7381,4.7232,4.7143,4.6962,4.6778,4.6572,4.6405,4.6277,4.6137,4.5988,4.576,4.5477,4.5372,4.5266,4.5079,4.4879,4.4345,5.121,5.123,5.123,5.123,5.123,5.123,5.123,5.123,5.123,5.123,5.122,5.1159,5.1138,5.1108,5.1108,5.1108,5.1101,5.1082,5.1101,5.1081,5.1055,5.1041,5.1041,5.1067,5.1053,5.1053,5.1053,5.1053,5.1046,5.099,5.0933,5.0925,5.0885,5.0836,5.0836,5.0836,5.0861,5.0869,5.0869,5.0844,5.081,5.0766,5.072,5.0711,5.0712,5.0731,5.0712,5.0712,5.0712,5.0693,5.0663,5.0633,5.0594,5.0593,5.0553,5.0553,5.0572,5.0551,5.0511,5.05,5.0489,5.0489,5.053,5.0495,5.0425,5.0355,5.0271,5.0202,5.0139,5.0016,4.9922,4.9867,4.9844,4.984,4.9807,4.9763,4.972,4.9675,4.9616,4.9521,4.9474,4.9412,4.9364,4.9332,4.9267,4.915,4.9081,4.901,4.8959,4.8926,4.8785,4.8642,4.8513,4.8401,4.8247,4.8092,4.7895,4.7832,4.7767,4.7603,4.7454,4.7345,4.7214,4.703,4.687,4.6731,4.659,4.6447,4.6186,4.5963,4.5862,4.5743,4.5529,4.5319,4.5213,5.1375,5.1356,5.1356,5.1356,5.1353,5.1372,5.1375,5.1356,5.1353,5.1375,5.1342,5.1289,5.1233,5.1185,5.118,5.1184,5.1194,5.1175,5.1138,5.1107,5.1108,5.1095,5.1108,5.1108,5.1088,5.1095,5.1101,5.1101,5.1115,5.1088,5.108,5.1053,5.1034,5.1012,5.1032,5.1012,5.0998,5.0998,5.099,5.1002,5.0937,5.0869,5.0782,5.0764,5.0775,5.0775,5.0775,5.0775,5.0775,5.0757,5.0855,5.0904,5.0962,5.1,5.099,5.1086,5.1048,5.1009,5.1037,5.1017,5.1045,5.0926,5.0945,5.0867,5.0812,5.0782,5.0707,5.0673,5.0553,5.0285,5.019,5.0196,5.0157,5.0244,5.0255,5.0201,5.0179,5.0123,5.0066,5.0023,4.9979,4.992,4.9894,4.9849,4.9821,4.974,4.9712,4.9645,4.969,4.9473,4.9309,4.923,4.9166,4.8715,4.8513,4.8457,4.8306,4.8248,4.817,4.7994,4.7872,4.777,4.7624,4.7472,4.732,4.7147,4.703,4.6893,4.6684,4.6459,4.6357,4.6211,4.5963,4.5786,4.5684]}]]